[[{"header":{"parameterUnit":"m.s-1","parameterCategory":1,"la1":31.0,"la2":29.5877,"lo1":-88.7671,"lo2":-86.6584,"dy":0.0162,"dx":0.0185,"nx":115,"ny":88,"refTime":"2024-04-13T18:00:00:Z","depth":0,"parameterNumber":2,"parameterNumberName":"U-component_of_WINDS"},"data":[0.0,0.0,0.0,0.0,0.0,0.0,0.0,0.0,0.0,0.0,0.0,0.0,0.0,0.0,0.0,0.0,0.0,0.0,0.0,0.0,0.0,0.0,0.0,0.0,0.0,0.0,0.0,0.0,0.0,0.0,0.0,0.0,0.0,0.0,0.0,0.0,0.0,0.0,0.0,0.0,0.0,0.0,0.0,0.0,0.0,0.0,0.0,0.0,0.0,0.0,0.0,0.0,0.0,0.0,0.0,0.0,0.0,0.0,0.0,0.0,0.0,0.0,0.0,0.0,0.0,0.0,0.0,0.0,0.0,0.0,0.0,0.0,0.0,0.0,0.0,0.0,0.0,0.0,0.0,0.0,0.0,0.0,0.0,0.0,0.0,0.0,0.0,0.0,0.0,0.0,0.0,0.0,0.0,0.0,0.0,0.0,0.0,0.0,0.0,0.0,0.0,0.0,0.0,0.0,0.0,0.0,0.0,0.0,0.0,0.0,0.0,0.0,0.0,0.0,0.0,0.0,0.0,0.0,0.0,0.0,0.0,0.0,0.0,0.0,0.0,0.0,0.0,0.0,0.0,0.0,0.0,0.0,0.0,0.0,0.0,0.0,0.0,0.0,0.0,0.0,0.0,0.0,0.0,0.0,0.0,0.0,0.0,0.0,0.0,0.0,0.0,0.0,0.0,0.0,0.0,0.0,0.0,0.0,0.0,0.0,0.0,0.0,0.0,0.0,0.0,0.0,0.0,0.0,0.0,0.0,0.0,0.0,0.0,0.0,0.0,0.0,0.0,0.0,0.0,0.0,0.0,0.0,0.0,0.0,0.0,0.0,0.0,0.0,0.0,0.0,0.0,0.0,0.0,0.0,0.0,0.0,0.0,0.0,0.0,0.0,0.0,0.0,0.0,0.0,0.0,0.0,0.0,0.0,0.0,0.0,0.0,0.0,0.0,0.0,0.0,0.0,0.0,0.0,0.0,0.0,0.0,0.0,0.0,0.0,0.0,0.0,0.0,0.0,0.0,0.0,0.0,0.0,0.0,0.0,0.0,0.0,0.0,0.0,0.0,0.0,0.0,0.0,0.0,0.0,0.0,0.0,0.0,0.0,0.0,0.0,0.0,0.0,0.0,0.0,0.0,0.0,0.0,0.0,0.0,0.0,0.0,0.0,0.0,0.0,0.0,0.0,0.0,0.0,0.0,0.0,0.0,0.0,0.0,0.0,0.0,0.0,0.0,0.0,0.0,0.0,0.0,0.0,0.0,0.0,0.0,0.0,0.0,0.0,0.0,0.0,0.0,0.0,0.0,0.0,0.0,0.0,0.0,0.0,0.0,0.0,0.0,0.0,0.0,0.0,0.0,0.0,0.0,0.0,0.0,0.0,0.0,0.0,0.0,0.0,0.0,0.0,0.0,0.0,0.0,0.0,0.0,0.0,0.0,0.0,0.0,0.0,0.0,0.0,0.0,0.0,0.0,0.0,0.0,0.0,0.0,0.0,0.0,0.0,0.0,0.0,0.0,0.0,0.0,0.0,0.0,0.0,0.0,0.0,0.0,0.0,0.0,0.0,0.0,0.0,0.0,0.0,0.0,0.0,0.0,0.0,0.0,0.0,0.0,0.0,0.0,0.0,0.0,0.0,0.0,0.0,0.0,0.0,0.0,0.0,0.0,0.0,0.0,0.0,0.0,0.0,0.0,0.0,0.0,0.0,0.0,0.0,0.0,0.0,0.0,0.0,0.0,0.0,0.0,0.0,0.0,0.0,0.0,0.0,0.0,0.0,0.0,0.0,0.0,0.0,0.0,0.0,0.0,0.0,0.0,0.0,0.0,0.0,0.0,0.0,0.0,0.0,0.0,0.0,0.0,0.0,0.0,0.0,0.0,0.0,0.0,0.0,0.0,0.0,0.0,0.0,0.0,0.0,0.0,0.0,0.0,0.0,0.0,0.0,0.0,0.0,0.0,0.0,0.0,0.0,0.0,0.0,0.0,0.0,0.0,0.0,0.0,0.0,0.0,0.0,0.0,0.0,0.0,0.0,0.0,0.0,0.0,0.0,0.0,0.0,0.0,0.0,0.0,0.0,0.0,0.0,0.0,0.0,0.0,0.0,0.0,0.0,0.0,0.0,0.0,0.0,0.0,0.0,0.0,0.0,0.0,0.0,0.0,0.0,0.0,0.0,0.0,0.0,0.0,0.0,0.0,0.0,0.0,0.0,0.0,0.0,0.0,0.0,0.0,0.0,0.0,0.0,0.0,0.0,0.0,0.0,0.0,0.0,0.0,0.0,0.0,0.0,0.0,0.0,0.0,0.0,0.0,0.0,0.0,0.0,0.0,0.0,0.0,0.0,0.0,0.0,0.0,0.0,0.0,0.0,0.0,0.0,0.0,0.0,0.0,0.0,0.0,0.0,0.0,0.0,0.0,0.0,0.0,0.0,0.0,0.0,0.0,0.0,0.0,0.0,0.0,0.0,0.0,0.0,0.0,0.0,0.0,0.0,0.0,0.0,0.0,0.0,0.0,0.0,0.0,0.0,0.0,0.0,0.0,0.0,0.0,0.0,0.0,0.0,0.0,0.0,0.0,0.0,0.0,0.0,0.0,0.0,0.0,0.0,0.0,0.0,0.0,0.0,0.0,0.0,0.0,0.0,0.0,0.0,0.0,0.0,0.0,0.0,0.0,0.0,0.0,0.0,0.0,0.0,0.0,0.0,0.0,0.0,0.0,0.0,0.0,0.0,0.0,0.0,0.0,0.0,0.0,0.0,0.0,0.0,0.0,0.0,0.0,0.0,0.0,0.0,0.0,0.0,0.0,0.0,0.0,0.0,0.0,0.0,0.0,0.0,0.0,0.0,0.0,0.0,0.0,0.0,0.0,0.0,0.0,0.0,0.0,0.0,0.0,0.0,0.0,0.0,0.0,0.0,0.0,0.0,0.0,0.0,0.0,0.0,0.0,0.0,0.0,0.0,0.0,0.0,0.0,0.0,0.0,0.0,0.0,0.0,0.0,0.0,0.0,0.0,0.0,0.0,0.0,0.0,0.0,0.0,0.0,0.0,0.0,0.0,0.0,0.0,0.0,0.0,0.0,0.0,0.0,0.0,0.0,0.0,0.0,0.0,0.0,0.0,0.0,0.0,0.0,0.0,0.0,0.0,0.0,0.0,0.0,0.0,0.0,0.0,0.0,0.0,0.0,0.0,0.0,0.0,0.0,0.0,0.0,0.0,0.0,0.0,0.0,0.0,0.0,0.0,0.0,0.0,0.0,0.0,0.0,0.0,0.0,0.0,0.0,0.0,0.0,0.0,0.0,0.0,0.0,0.0,0.0,0.0,0.0,0.0,0.0,0.0,0.0,0.0,0.0,0.0,0.0,0.0,0.0,0.0,0.0,0.0,0.0,0.0,0.0,0.0,0.0,0.0,0.0,0.0,0.0,0.0,0.0,0.0,0.0,0.0,0.0,0.0,0.0,0.0,0.0,0.0,0.0,0.0,0.0,0.0,0.0,0.0,0.0,0.0,0.0,0.0,0.0,0.0,0.0,0.0,0.0,0.0,0.0,0.0,0.0,0.0,0.0,0.0,0.0,0.0,0.0,0.0,0.0,0.0,0.0,0.0,0.0,0.0,0.0,0.0,0.0,0.0,0.0,0.0,0.0,0.0,0.0,0.0,0.0,0.0,0.0,0.0,0.0,0.0,0.0,0.0,0.0,0.0,0.0,0.0,0.0,0.0,0.0,0.0,0.0,0.0,0.0,0.0,0.0,0.0,0.0,0.0,0.0,0.0,0.0,0.0,0.0,0.0,0.0,0.0,0.0,0.0,0.0,0.0,0.0,0.0,0.0,0.0,0.0,0.0,0.0,0.0,0.0,0.0,0.0,0.0,0.0,0.0,0.0,0.0,0.0,0.0,0.0,0.0,0.0,0.0,0.0,0.0,0.0,0.0,0.0,0.0,0.0,0.0,0.0,0.0,0.0,0.0,0.0,0.0,0.0,0.0,0.0,0.0,0.0,0.0,0.0,0.0,0.0,0.0,0.0,0.0,0.0,0.0,0.0,0.0,0.0,0.0,0.0,0.0,0.0,0.0,0.0,0.0,0.0,0.0,0.0,0.0,0.0,0.0,0.0,0.0,0.0,0.0,0.0,0.0,0.0,0.0,0.0,0.0,0.0,0.0,0.0,0.0,0.0,0.0,0.0,0.0,0.0,0.0,0.0,0.0,0.0,0.0,0.0,0.0,0.0,0.0,0.0,0.0,0.0,0.0,0.0,0.0,0.0,0.0,0.0,0.0,-4.6289,0.0,0.0,0.0,0.0,0.0,0.0,0.0,0.0,0.0,0.0,0.0,0.0,0.0,0.0,0.0,0.0,0.0,0.0,0.0,0.0,0.0,0.0,0.0,0.0,0.0,0.0,0.0,0.0,0.0,0.0,0.0,0.0,0.0,0.0,0.0,0.0,0.0,0.0,0.0,0.0,0.0,0.0,0.0,0.0,0.0,0.0,0.0,0.0,0.0,0.0,0.0,0.0,0.0,0.0,0.0,0.0,0.0,0.0,0.0,0.0,0.0,0.0,0.0,0.0,0.0,0.0,0.0,0.0,0.0,0.0,0.0,0.0,0.0,0.0,0.0,0.0,0.0,0.0,0.0,0.0,0.0,0.0,0.0,0.0,0.0,0.0,0.0,0.0,0.0,0.0,0.0,0.0,0.0,0.0,0.0,0.0,0.0,0.0,0.0,0.0,0.0,0.0,0.0,0.0,0.0,0.0,0.0,0.0,0.0,0.0,-4.6289,-4.6289,-4.6289,-4.6289,-4.6289,0.0,0.0,0.0,0.0,0.0,0.0,0.0,0.0,0.0,0.0,0.0,0.0,0.0,0.0,0.0,0.0,0.0,0.0,0.0,0.0,0.0,0.0,0.0,0.0,0.0,0.0,0.0,0.0,0.0,0.0,0.0,0.0,0.0,0.0,0.0,0.0,0.0,0.0,0.0,0.0,0.0,0.0,0.0,0.0,0.0,0.0,0.0,0.0,0.0,0.0,0.0,0.0,0.0,0.0,0.0,0.0,0.0,0.0,0.0,0.0,0.0,0.0,0.0,0.0,0.0,0.0,0.0,0.0,0.0,0.0,0.0,0.0,0.0,0.0,0.0,0.0,0.0,0.0,0.0,0.0,0.0,0.0,0.0,0.0,0.0,0.0,0.0,0.0,0.0,0.0,0.0,0.0,0.0,0.0,0.0,0.0,0.0,0.0,0.0,0.0,0.0,0.0,0.0,0.0,0.0,0.0,0.0,0.0,0.0,0.0,0.0,0.0,-4.6601,-4.6601,-4.6601,0.0,0.0,0.0,0.0,0.0,0.0,0.0,0.0,0.0,0.0,0.0,0.0,0.0,0.0,0.0,0.0,0.0,0.0,0.0,0.0,0.0,0.0,0.0,0.0,0.0,0.0,0.0,0.0,0.0,0.0,0.0,0.0,0.0,0.0,0.0,0.0,0.0,0.0,0.0,0.0,0.0,0.0,0.0,0.0,0.0,0.0,0.0,0.0,0.0,0.0,0.0,0.0,0.0,0.0,0.0,0.0,0.0,0.0,0.0,0.0,0.0,0.0,0.0,0.0,0.0,0.0,0.0,0.0,0.0,0.0,0.0,0.0,0.0,0.0,0.0,0.0,0.0,0.0,0.0,0.0,0.0,0.0,0.0,0.0,0.0,0.0,0.0,0.0,0.0,0.0,0.0,0.0,0.0,0.0,0.0,0.0,0.0,0.0,0.0,0.0,0.0,0.0,0.0,0.0,0.0,0.0,0.0,0.0,0.0,0.0,-4.668,-4.7461,-4.748,0.0,-4.748,0.0,0.0,0.0,0.0,0.0,0.0,0.0,0.0,0.0,0.0,0.0,0.0,0.0,0.0,0.0,0.0,0.0,0.0,0.0,0.0,0.0,0.0,0.0,0.0,0.0,0.0,0.0,0.0,0.0,0.0,0.0,0.0,0.0,0.0,0.0,0.0,0.0,0.0,0.0,0.0,0.0,0.0,0.0,0.0,0.0,0.0,0.0,0.0,0.0,0.0,0.0,0.0,0.0,0.0,0.0,0.0,0.0,0.0,0.0,0.0,0.0,0.0,0.0,0.0,0.0,0.0,0.0,0.0,0.0,0.0,0.0,0.0,0.0,0.0,0.0,0.0,0.0,0.0,0.0,0.0,0.0,0.0,0.0,0.0,0.0,0.0,0.0,0.0,0.0,0.0,0.0,0.0,0.0,0.0,0.0,0.0,0.0,0.0,0.0,0.0,0.0,0.0,0.0,0.0,0.0,0.0,0.0,0.0,0.0,0.0,-4.6719,-4.7598,-4.7617,-4.7363,0.0,0.0,0.0,0.0,0.0,0.0,0.0,0.0,0.0,0.0,0.0,0.0,0.0,0.0,0.0,0.0,0.0,0.0,0.0,0.0,0.0,0.0,0.0,0.0,0.0,0.0,0.0,0.0,0.0,0.0,0.0,0.0,0.0,0.0,0.0,0.0,0.0,0.0,0.0,0.0,0.0,0.0,0.0,0.0,0.0,0.0,0.0,0.0,0.0,0.0,0.0,0.0,0.0,0.0,0.0,0.0,0.0,0.0,0.0,0.0,0.0,0.0,0.0,0.0,0.0,0.0,0.0,0.0,0.0,0.0,0.0,0.0,0.0,0.0,0.0,0.0,0.0,0.0,0.0,0.0,0.0,0.0,0.0,0.0,0.0,0.0,0.0,0.0,0.0,0.0,0.0,0.0,0.0,0.0,0.0,0.0,0.0,0.0,0.0,0.0,0.0,0.0,0.0,0.0,0.0,0.0,0.0,0.0,0.0,0.0,-4.5625,-4.6465,-4.7539,-4.7832,-4.7441,-4.6328,0.0,0.0,0.0,0.0,0.0,0.0,0.0,0.0,0.0,0.0,0.0,0.0,0.0,0.0,0.0,0.0,0.0,0.0,0.0,0.0,0.0,0.0,0.0,0.0,0.0,0.0,0.0,0.0,0.0,0.0,0.0,0.0,0.0,0.0,0.0,0.0,0.0,0.0,0.0,0.0,0.0,0.0,0.0,0.0,0.0,0.0,0.0,0.0,0.0,0.0,0.0,0.0,0.0,0.0,0.0,0.0,0.0,0.0,0.0,0.0,0.0,0.0,0.0,0.0,0.0,0.0,0.0,0.0,0.0,0.0,0.0,0.0,0.0,0.0,0.0,0.0,0.0,0.0,0.0,0.0,0.0,0.0,0.0,0.0,0.0,0.0,0.0,0.0,0.0,0.0,0.0,0.0,0.0,0.0,0.0,0.0,0.0,0.0,0.0,0.0,0.0,0.0,0.0,0.0,0.0,0.0,0.0,0.0,-4.4902,-4.5039,-4.5879,-4.7558,-4.8379,-4.8047,0.0,0.0,0.0,0.0,0.0,0.0,0.0,0.0,0.0,0.0,0.0,0.0,0.0,0.0,0.0,0.0,0.0,0.0,0.0,0.0,0.0,0.0,0.0,0.0,0.0,0.0,0.0,0.0,0.0,0.0,0.0,0.0,0.0,0.0,0.0,0.0,0.0,0.0,0.0,0.0,0.0,0.0,0.0,0.0,0.0,0.0,0.0,0.0,0.0,0.0,0.0,0.0,0.0,0.0,0.0,0.0,0.0,0.0,0.0,0.0,0.0,0.0,0.0,0.0,0.0,0.0,0.0,0.0,0.0,0.0,0.0,0.0,0.0,0.0,0.0,0.0,0.0,0.0,0.0,0.0,0.0,0.0,0.0,0.0,0.0,0.0,0.0,0.0,0.0,0.0,0.0,0.0,0.0,0.0,0.0,0.0,0.0,0.0,0.0,0.0,0.0,0.0,0.0,0.0,0.0,0.0,0.0,0.0,0.0,-4.334,-4.4936,-4.6562,-4.8123,-4.7557,-4.661,0.0,0.0,0.0,0.0,0.0,0.0,0.0,0.0,0.0,0.0,0.0,0.0,0.0,0.0,0.0,0.0,0.0,0.0,0.0,0.0,0.0,0.0,0.0,0.0,0.0,0.0,0.0,0.0,0.0,0.0,0.0,0.0,0.0,0.0,0.0,0.0,0.0,0.0,0.0,0.0,0.0,0.0,0.0,0.0,0.0,0.0,0.0,0.0,0.0,0.0,0.0,0.0,0.0,0.0,0.0,0.0,0.0,0.0,0.0,0.0,0.0,0.0,0.0,0.0,0.0,0.0,0.0,0.0,0.0,0.0,0.0,0.0,0.0,0.0,0.0,0.0,0.0,0.0,0.0,0.0,0.0,0.0,0.0,0.0,0.0,0.0,0.0,0.0,0.0,0.0,0.0,0.0,0.0,0.0,0.0,0.0,0.0,0.0,0.0,0.0,0.0,0.0,0.0,0.0,0.0,0.0,0.0,0.0,0.0,-4.2809,0.0,-4.6557,-4.7285,-4.6596,-4.5501,0.0,0.0,0.0,0.0,0.0,0.0,0.0,0.0,0.0,0.0,0.0,0.0,0.0,0.0,0.0,0.0,0.0,0.0,0.0,0.0,0.0,0.0,0.0,0.0,0.0,0.0,0.0,0.0,0.0,0.0,0.0,0.0,0.0,0.0,0.0,0.0,0.0,0.0,0.0,0.0,0.0,0.0,0.0,0.0,0.0,0.0,0.0,0.0,0.0,0.0,0.0,0.0,0.0,0.0,0.0,0.0,0.0,0.0,0.0,0.0,0.0,0.0,0.0,0.0,0.0,0.0,0.0,0.0,0.0,0.0,0.0,0.0,0.0,0.0,0.0,0.0,0.0,0.0,0.0,0.0,0.0,0.0,0.0,0.0,0.0,0.0,0.0,0.0,0.0,0.0,0.0,0.0,0.0,0.0,0.0,0.0,0.0,0.0,0.0,0.0,0.0,0.0,0.0,0.0,0.0,0.0,0.0,0.0,-4.2007,-4.3564,-4.5214,-4.5709,-4.4897,-4.5618,-4.4842,0.0,0.0,0.0,0.0,0.0,0.0,0.0,0.0,0.0,0.0,0.0,0.0,0.0,0.0,0.0,0.0,0.0,0.0,0.0,0.0,0.0,0.0,0.0,0.0,0.0,0.0,0.0,0.0,0.0,0.0,0.0,0.0,0.0,0.0,0.0,0.0,0.0,0.0,0.0,0.0,0.0,0.0,0.0,0.0,0.0,0.0,0.0,0.0,0.0,0.0,0.0,0.0,0.0,0.0,0.0,0.0,0.0,0.0,0.0,0.0,0.0,0.0,0.0,0.0,0.0,0.0,0.0,0.0,0.0,0.0,0.0,0.0,0.0,0.0,0.0,0.0,0.0,0.0,0.0,0.0,0.0,0.0,0.0,0.0,0.0,0.0,0.0,0.0,0.0,0.0,0.0,0.0,0.0,0.0,0.0,0.0,0.0,0.0,0.0,0.0,0.0,0.0,0.0,0.0,0.0,0.0,0.0,0.0,0.0,-4.3471,-4.4558,-4.523,-4.5437,-4.4666,-4.3864,0.0,0.0,0.0,0.0,0.0,0.0,0.0,0.0,0.0,0.0,0.0,0.0,0.0,0.0,0.0,0.0,0.0,0.0,0.0,0.0,0.0,0.0,0.0,0.0,0.0,0.0,0.0,0.0,0.0,0.0,0.0,0.0,0.0,0.0,0.0,0.0,0.0,0.0,0.0,0.0,0.0,0.0,0.0,0.0,0.0,0.0,0.0,0.0,0.0,0.0,0.0,0.0,0.0,0.0,0.0,0.0,0.0,0.0,0.0,0.0,0.0,0.0,0.0,0.0,0.0,0.0,0.0,0.0,0.0,0.0,0.0,0.0,0.0,0.0,0.0,0.0,0.0,0.0,0.0,0.0,0.0,0.0,0.0,0.0,0.0,0.0,0.0,0.0,0.0,0.0,0.0,0.0,0.0,0.0,0.0,0.0,0.0,0.0,0.0,0.0,0.0,0.0,0.0,0.0,0.0,0.0,0.0,0.0,0.0,-4.4308,-4.5142,-4.5654,-4.5807,-4.4543,-4.3532,-4.2879,0.0,0.0,0.0,0.0,0.0,0.0,0.0,0.0,0.0,0.0,0.0,0.0,0.0,0.0,0.0,0.0,0.0,0.0,0.0,0.0,0.0,0.0,0.0,0.0,0.0,0.0,0.0,0.0,0.0,0.0,0.0,0.0,0.0,0.0,0.0,0.0,0.0,0.0,0.0,0.0,0.0,0.0,0.0,0.0,0.0,0.0,0.0,0.0,0.0,0.0,0.0,0.0,0.0,0.0,0.0,0.0,0.0,0.0,0.0,0.0,0.0,0.0,0.0,0.0,0.0,0.0,0.0,0.0,0.0,0.0,0.0,0.0,0.0,0.0,0.0,0.0,0.0,0.0,0.0,0.0,0.0,0.0,0.0,0.0,0.0,0.0,0.0,0.0,0.0,0.0,0.0,0.0,0.0,0.0,0.0,0.0,0.0,0.0,0.0,0.0,0.0,0.0,0.0,0.0,0.0,0.0,0.0,0.0,-4.5865,-4.6774,-4.6832,-4.5981,-4.5065,-4.3827,0.0,0.0,0.0,0.0,0.0,0.0,0.0,0.0,0.0,0.0,0.0,0.0,0.0,0.0,0.0,0.0,0.0,0.0,0.0,0.0,0.0,0.0,0.0,0.0,0.0,0.0,0.0,0.0,0.0,0.0,0.0,0.0,0.0,0.0,0.0,0.0,0.0,0.0,0.0,0.0,0.0,0.0,0.0,0.0,0.0,0.0,0.0,0.0,0.0,0.0,0.0,0.0,0.0,0.0,0.0,0.0,0.0,0.0,0.0,0.0,0.0,0.0,0.0,0.0,0.0,0.0,0.0,0.0,0.0,0.0,0.0,0.0,0.0,0.0,0.0,0.0,0.0,0.0,0.0,0.0,0.0,0.0,0.0,0.0,0.0,0.0,0.0,0.0,0.0,0.0,0.0,0.0,0.0,0.0,0.0,0.0,0.0,0.0,0.0,0.0,0.0,0.0,0.0,0.0,0.0,0.0,0.0,0.0,0.0,-4.6748,-4.8237,-4.8604,-4.7695,-4.5684,-4.44,0.0,0.0,0.0,0.0,0.0,0.0,0.0,0.0,0.0,0.0,0.0,0.0,0.0,0.0,0.0,0.0,0.0,0.0,0.0,0.0,0.0,0.0,0.0,0.0,0.0,0.0,0.0,0.0,0.0,0.0,0.0,0.0,0.0,0.0,0.0,0.0,0.0,0.0,0.0,0.0,0.0,0.0,0.0,0.0,0.0,0.0,0.0,0.0,0.0,0.0,0.0,0.0,0.0,0.0,0.0,0.0,0.0,0.0,0.0,0.0,0.0,0.0,0.0,0.0,0.0,0.0,0.0,0.0,0.0,0.0,0.0,0.0,0.0,0.0,0.0,0.0,0.0,0.0,0.0,0.0,0.0,0.0,0.0,0.0,0.0,0.0,0.0,0.0,0.0,0.0,0.0,0.0,0.0,0.0,0.0,0.0,0.0,0.0,0.0,0.0,0.0,0.0,0.0,0.0,0.0,0.0,0.0,0.0,-4.5916,-4.7618,-4.932,-4.9958,-4.9455,-4.698,-4.5316,0.0,0.0,0.0,0.0,0.0,0.0,0.0,0.0,0.0,0.0,0.0,0.0,0.0,0.0,0.0,0.0,0.0,0.0,0.0,0.0,0.0,0.0,0.0,0.0,0.0,0.0,0.0,0.0,0.0,0.0,0.0,0.0,0.0,0.0,0.0,0.0,0.0,0.0,0.0,0.0,0.0,0.0,0.0,0.0,0.0,0.0,0.0,0.0,0.0,0.0,0.0,0.0,0.0,0.0,0.0,0.0,0.0,0.0,0.0,0.0,0.0,0.0,0.0,0.0,0.0,0.0,0.0,0.0,0.0,0.0,0.0,0.0,0.0,0.0,0.0,0.0,0.0,0.0,0.0,0.0,0.0,0.0,0.0,0.0,0.0,0.0,0.0,0.0,0.0,0.0,0.0,0.0,0.0,0.0,0.0,0.0,0.0,0.0,0.0,0.0,0.0,0.0,0.0,0.0,0.0,0.0,0.0,0.0,-4.6767,-4.8508,-5.0086,-5.0898,-5.0821,-4.843,-4.6361,0.0,0.0,0.0,0.0,0.0,0.0,0.0,0.0,0.0,0.0,0.0,0.0,0.0,0.0,0.0,0.0,0.0,0.0,0.0,0.0,0.0,0.0,0.0,0.0,0.0,0.0,0.0,0.0,0.0,0.0,0.0,0.0,0.0,0.0,0.0,0.0,0.0,0.0,0.0,0.0,0.0,0.0,0.0,0.0,0.0,0.0,0.0,0.0,0.0,0.0,0.0,0.0,0.0,0.0,0.0,0.0,0.0,0.0,0.0,0.0,0.0,0.0,0.0,0.0,0.0,0.0,0.0,0.0,0.0,0.0,0.0,0.0,0.0,0.0,0.0,0.0,0.0,0.0,0.0,0.0,0.0,0.0,0.0,0.0,0.0,0.0,0.0,0.0,0.0,0.0,0.0,0.0,0.0,0.0,0.0,0.0,0.0,0.0,0.0,0.0,0.0,0.0,0.0,0.0,0.0,0.0,0.0,0.0,-4.7657,-4.9378,-5.0395,-5.0898,-5.0879,-4.843,-4.6619,0.0,0.0,0.0,0.0,0.0,0.0,0.0,0.0,0.0,0.0,0.0,0.0,0.0,0.0,0.0,0.0,0.0,0.0,0.0,0.0,0.0,0.0,0.0,0.0,0.0,0.0,0.0,0.0,0.0,0.0,0.0,0.0,0.0,0.0,0.0,0.0,0.0,0.0,0.0,0.0,0.0,0.0,0.0,0.0,0.0,0.0,0.0,0.0,-4.1074,0.0,0.0,0.0,0.0,0.0,0.0,0.0,0.0,0.0,0.0,0.0,0.0,0.0,0.0,0.0,0.0,0.0,0.0,0.0,0.0,0.0,0.0,0.0,0.0,0.0,0.0,0.0,0.0,0.0,0.0,0.0,0.0,0.0,0.0,0.0,0.0,0.0,0.0,0.0,0.0,0.0,0.0,0.0,0.0,0.0,0.0,0.0,0.0,0.0,0.0,0.0,0.0,0.0,0.0,0.0,0.0,0.0,0.0,0.0,-4.7947,-4.9641,-5.0492,-5.0898,-5.084,-4.9243,-4.754,0.0,0.0,0.0,0.0,0.0,0.0,0.0,0.0,0.0,0.0,0.0,0.0,0.0,0.0,0.0,0.0,0.0,0.0,0.0,0.0,0.0,0.0,0.0,0.0,0.0,0.0,0.0,0.0,0.0,0.0,0.0,0.0,0.0,0.0,0.0,0.0,0.0,0.0,0.0,0.0,0.0,0.0,0.0,0.0,0.0,0.0,0.0,0.0,0.0,0.0,0.0,0.0,0.0,0.0,0.0,0.0,0.0,0.0,0.0,0.0,0.0,0.0,0.0,0.0,0.0,0.0,0.0,0.0,0.0,0.0,0.0,0.0,0.0,0.0,0.0,0.0,0.0,0.0,0.0,0.0,0.0,0.0,0.0,0.0,0.0,0.0,0.0,0.0,0.0,0.0,0.0,0.0,0.0,0.0,0.0,0.0,0.0,0.0,0.0,0.0,0.0,0.0,0.0,0.0,0.0,0.0,0.0,-4.638,-4.7985,-4.9823,-5.0558,-5.0898,-5.0898,-5.0132,-4.8488,-4.5904,0.0,0.0,0.0,0.0,0.0,0.0,0.0,0.0,0.0,0.0,0.0,0.0,0.0,0.0,0.0,0.0,0.0,0.0,0.0,0.0,0.0,0.0,0.0,0.0,0.0,0.0,0.0,0.0,0.0,0.0,0.0,0.0,0.0,0.0,0.0,0.0,0.0,0.0,-3.7734,-3.9277,0.0,0.0,0.0,0.0,0.0,0.0,0.0,0.0,-4.1441,0.0,0.0,0.0,0.0,0.0,0.0,0.0,0.0,0.0,0.0,0.0,0.0,0.0,0.0,0.0,0.0,0.0,0.0,0.0,0.0,0.0,0.0,0.0,0.0,0.0,0.0,0.0,0.0,0.0,0.0,0.0,0.0,0.0,0.0,0.0,0.0,0.0,0.0,0.0,0.0,0.0,0.0,0.0,0.0,0.0,0.0,0.0,0.0,0.0,0.0,0.0,0.0,0.0,0.0,0.0,0.0,-4.6631,-4.696,-4.8256,-5.0627,-5.084,-5.0898,-5.0879,-5.0132,-4.8469,-4.5942,0.0,0.0,0.0,0.0,0.0,0.0,0.0,0.0,0.0,0.0,0.0,0.0,0.0,0.0,0.0,0.0,0.0,0.0,0.0,0.0,0.0,0.0,0.0,0.0,0.0,0.0,0.0,0.0,0.0,0.0,0.0,0.0,0.0,0.0,0.0,0.0,0.0,0.0,0.0,-4.1367,-4.2344,0.0,0.0,0.0,0.0,0.0,0.0,0.0,0.0,-4.1848,0.0,0.0,0.0,0.0,0.0,0.0,0.0,0.0,0.0,0.0,0.0,0.0,0.0,0.0,0.0,0.0,0.0,0.0,0.0,0.0,0.0,0.0,0.0,0.0,0.0,0.0,0.0,0.0,0.0,0.0,0.0,0.0,0.0,0.0,0.0,0.0,0.0,0.0,0.0,0.0,0.0,0.0,0.0,0.0,0.0,0.0,0.0,0.0,0.0,0.0,0.0,0.0,0.0,0.0,0.0,-4.6271,-4.7753,-4.9262,-5.084,-5.0898,-5.0898,-5.0879,-4.968,-4.8005,0.0,0.0,0.0,0.0,0.0,0.0,0.0,0.0,0.0,0.0,0.0,0.0,0.0,0.0,0.0,0.0,0.0,0.0,0.0,0.0,0.0,0.0,0.0,0.0,0.0,0.0,0.0,0.0,0.0,0.0,0.0,0.0,0.0,0.0,0.0,0.0,0.0,0.0,0.0,0.0,-4.2538,-4.3552,-4.4879,0.0,0.0,0.0,0.0,0.0,0.0,-4.3073,-4.184,0.0,0.0,0.0,0.0,0.0,0.0,0.0,0.0,0.0,0.0,0.0,0.0,0.0,0.0,0.0,0.0,0.0,0.0,0.0,0.0,0.0,0.0,0.0,0.0,0.0,0.0,0.0,0.0,0.0,0.0,0.0,0.0,0.0,0.0,0.0,0.0,0.0,0.0,0.0,0.0,0.0,0.0,0.0,0.0,0.0,0.0,0.0,0.0,0.0,0.0,0.0,0.0,0.0,0.0,0.0,-4.5529,-4.8101,-4.9919,-5.084,-5.0898,-5.0898,-5.0859,-4.9126,-4.7328,0.0,0.0,0.0,0.0,0.0,0.0,0.0,0.0,0.0,0.0,0.0,0.0,0.0,0.0,0.0,0.0,0.0,0.0,0.0,0.0,0.0,0.0,0.0,0.0,0.0,0.0,0.0,0.0,0.0,0.0,0.0,0.0,0.0,0.0,0.0,0.0,0.0,0.0,0.0,0.0,0.0,-4.4464,-4.5806,-4.4832,0.0,0.0,0.0,0.0,-4.5039,-4.3487,0.0,0.0,0.0,0.0,0.0,0.0,0.0,0.0,0.0,0.0,0.0,0.0,0.0,0.0,0.0,0.0,0.0,0.0,0.0,0.0,0.0,0.0,0.0,0.0,0.0,0.0,0.0,0.0,0.0,0.0,0.0,0.0,0.0,0.0,0.0,0.0,0.0,0.0,0.0,0.0,0.0,0.0,0.0,0.0,0.0,0.0,0.0,0.0,0.0,0.0,0.0,0.0,0.0,0.0,0.0,0.0,-4.4717,-4.725,-4.932,-5.0801,-5.0898,-5.0898,-5.0859,-4.8527,-4.6477,0.0,0.0,0.0,0.0,0.0,0.0,0.0,0.0,0.0,0.0,0.0,0.0,0.0,0.0,0.0,0.0,0.0,0.0,0.0,0.0,0.0,0.0,0.0,0.0,0.0,0.0,0.0,0.0,0.0,0.0,0.0,0.0,0.0,0.0,0.0,0.0,0.0,0.0,0.0,0.0,0.0,-4.4866,-4.4975,-4.4887,-4.4758,0.0,0.0,-4.5763,-4.6101,-4.578,0.0,0.0,0.0,0.0,0.0,0.0,0.0,0.0,0.0,0.0,0.0,0.0,0.0,0.0,0.0,0.0,0.0,0.0,0.0,0.0,0.0,0.0,0.0,0.0,0.0,0.0,0.0,0.0,0.0,0.0,0.0,0.0,0.0,0.0,0.0,0.0,0.0,0.0,0.0,0.0,0.0,0.0,0.0,0.0,0.0,0.0,0.0,0.0,0.0,0.0,0.0,0.0,0.0,0.0,0.0,-4.2995,-4.4659,-4.8043,-5.0183,-5.0859,-5.0898,-5.0898,-5.0898,-4.7947,-4.58,0.0,0.0,0.0,0.0,0.0,0.0,0.0,0.0,0.0,0.0,0.0,0.0,0.0,0.0,0.0,0.0,0.0,0.0,0.0,0.0,0.0,0.0,0.0,0.0,0.0,0.0,0.0,0.0,0.0,0.0,0.0,0.0,0.0,0.0,0.0,0.0,0.0,0.0,0.0,0.0,0.0,0.0,-4.5413,-4.5159,0.0,0.0,0.0,-4.5351,-4.534,0.0,0.0,0.0,0.0,0.0,0.0,0.0,0.0,0.0,0.0,0.0,0.0,0.0,0.0,0.0,0.0,0.0,0.0,0.0,0.0,0.0,0.0,0.0,0.0,0.0,0.0,0.0,0.0,0.0,0.0,0.0,0.0,0.0,0.0,0.0,0.0,0.0,0.0,0.0,0.0,0.0,0.0,0.0,0.0,0.0,0.0,0.0,0.0,0.0,0.0,0.0,0.0,0.0,0.0,0.0,0.0,0.0,-4.4349,-4.8655,-5.0898,-5.0898,-5.0898,-5.0898,-5.084,-4.7792,0.0,0.0,0.0,0.0,0.0,0.0,0.0,0.0,0.0,0.0,0.0,0.0,0.0,0.0,0.0,0.0,0.0,0.0,0.0,0.0,0.0,0.0,0.0,0.0,0.0,0.0,0.0,-3.3862,0.0,0.0,0.0,0.0,0.0,0.0,0.0,0.0,0.0,0.0,0.0,0.0,0.0,0.0,-4.4035,-4.5495,-4.5351,-4.5038,0.0,0.0,-4.5021,-4.4948,-4.4916,-4.4555,0.0,0.0,0.0,0.0,0.0,0.0,0.0,0.0,0.0,0.0,0.0,0.0,0.0,0.0,0.0,0.0,0.0,0.0,0.0,0.0,0.0,0.0,0.0,0.0,0.0,0.0,0.0,0.0,0.0,0.0,0.0,0.0,0.0,0.0,0.0,0.0,0.0,0.0,0.0,0.0,0.0,0.0,0.0,0.0,0.0,0.0,0.0,0.0,0.0,0.0,0.0,0.0,0.0,0.0,-4.3324,-4.3556,-4.8326,-5.0898,-5.0898,-5.0898,-5.0898,-5.0859,-4.8372,-4.5858,0.0,0.0,0.0,0.0,0.0,0.0,0.0,0.0,0.0,0.0,0.0,0.0,0.0,0.0,0.0,0.0,0.0,0.0,0.0,0.0,0.0,0.0,0.0,0.0,0.0,0.0,0.0,0.0,0.0,0.0,0.0,0.0,0.0,0.0,0.0,0.0,0.0,0.0,0.0,0.0,0.0,-4.3778,-4.4512,-4.5295,-4.5795,0.0,-4.5731,-4.5757,-4.5806,-4.5744,-4.5183,-4.3645,0.0,0.0,0.0,0.0,0.0,0.0,0.0,0.0,0.0,0.0,0.0,0.0,0.0,0.0,0.0,0.0,0.0,0.0,0.0,0.0,0.0,0.0,0.0,0.0,0.0,0.0,0.0,0.0,0.0,0.0,0.0,0.0,0.0,0.0,0.0,0.0,0.0,0.0,0.0,0.0,0.0,0.0,0.0,0.0,0.0,0.0,0.0,0.0,0.0,0.0,0.0,0.0,0.0,-4.3305,-4.3363,-4.8307,-5.0898,-5.0879,-5.0415,-5.0152,-5.0163,-4.7657,-4.5355,0.0,0.0,0.0,0.0,0.0,0.0,0.0,0.0,0.0,0.0,0.0,0.0,0.0,0.0,0.0,0.0,0.0,0.0,0.0,0.0,0.0,0.0,0.0,0.0,0.0,0.0,0.0,0.0,-3.8104,-3.7587,-3.6551,0.0,0.0,0.0,0.0,0.0,0.0,0.0,0.0,0.0,0.0,-4.3792,-4.511,-4.5615,0.0,0.0,-4.5742,-4.5773,-4.5718,-4.526,-4.4496,-4.3397,-4.2207,0.0,0.0,0.0,0.0,0.0,0.0,0.0,0.0,0.0,0.0,0.0,0.0,0.0,0.0,0.0,0.0,0.0,0.0,0.0,0.0,0.0,0.0,0.0,0.0,0.0,0.0,0.0,0.0,0.0,0.0,0.0,0.0,0.0,0.0,0.0,0.0,0.0,0.0,0.0,0.0,0.0,0.0,0.0,0.0,0.0,0.0,0.0,0.0,0.0,0.0,0.0,0.0,-4.344,-4.3704,-4.8461,-5.0898,-5.0898,-5.0105,-4.9707,-4.9649,-4.7424,-4.5413,0.0,0.0,0.0,0.0,0.0,0.0,0.0,0.0,0.0,0.0,0.0,0.0,0.0,0.0,0.0,0.0,0.0,0.0,0.0,0.0,0.0,0.0,0.0,0.0,0.0,0.0,0.0,0.0,-3.8429,-3.7813,-3.6388,0.0,0.0,0.0,0.0,0.0,0.0,0.0,0.0,0.0,0.0,-4.4109,-4.5529,-4.5754,-4.5715,-4.5612,-4.5676,-4.5715,-4.5612,-4.5075,-4.4412,-4.3585,0.0,0.0,0.0,0.0,0.0,0.0,0.0,0.0,0.0,0.0,0.0,0.0,0.0,0.0,0.0,0.0,0.0,0.0,0.0,0.0,0.0,0.0,0.0,0.0,0.0,0.0,0.0,-3.6884,0.0,0.0,-3.5762,0.0,0.0,0.0,0.0,0.0,0.0,0.0,0.0,0.0,0.0,0.0,0.0,0.0,0.0,0.0,0.0,0.0,0.0,0.0,0.0,0.0,0.0,-4.373,-4.4594,-4.8732,-5.0898,-5.0879,-5.0113,-4.9707,-4.9668,-4.7985,-4.6283,-4.4594,0.0,0.0,0.0,0.0,0.0,0.0,0.0,0.0,0.0,0.0,0.0,0.0,0.0,0.0,0.0,0.0,0.0,0.0,0.0,0.0,0.0,0.0,0.0,0.0,0.0,0.0,-3.6058,-3.7311,-3.7941,0.0,0.0,0.0,0.0,0.0,0.0,0.0,0.0,0.0,0.0,-4.2846,-4.4742,-4.5486,-4.5603,-4.5603,-4.5594,-4.5594,-4.5603,-4.5594,-4.5575,-4.5287,0.0,0.0,0.0,0.0,0.0,0.0,0.0,0.0,0.0,0.0,0.0,0.0,0.0,0.0,0.0,0.0,0.0,0.0,0.0,0.0,0.0,0.0,0.0,0.0,0.0,0.0,0.0,-4.0268,-3.9514,0.0,0.0,0.0,0.0,0.0,0.0,0.0,0.0,0.0,0.0,0.0,-4.453,-4.453,0.0,0.0,0.0,0.0,0.0,0.0,0.0,0.0,0.0,0.0,0.0,0.0,-4.4304,-4.4794,-4.8751,-5.0898,-5.0898,-5.0132,-4.9707,-4.9687,-4.8566,-4.7154,-4.5432,0.0,0.0,0.0,0.0,0.0,0.0,0.0,0.0,0.0,0.0,0.0,0.0,0.0,0.0,0.0,0.0,0.0,0.0,0.0,0.0,0.0,0.0,0.0,0.0,0.0,-3.7585,0.0,0.0,0.0,0.0,0.0,0.0,0.0,0.0,0.0,0.0,0.0,-4.0471,-4.2111,-4.3501,-4.4664,-4.5488,-4.5594,-4.5594,0.0,0.0,0.0,0.0,0.0,0.0,0.0,0.0,0.0,0.0,0.0,0.0,0.0,0.0,-4.4239,-4.2527,-4.247,-4.2758,-4.3047,0.0,0.0,0.0,0.0,0.0,0.0,0.0,0.0,0.0,0.0,0.0,0.0,0.0,0.0,-4.3595,0.0,-4.2557,0.0,0.0,0.0,0.0,0.0,0.0,0.0,0.0,-4.6419,-4.7424,-4.7154,-4.7173,-4.6883,0.0,-4.549,-4.4059,0.0,0.0,0.0,0.0,0.0,0.0,0.0,0.0,-4.4884,-4.5568,-4.9042,-5.0898,-5.0879,-5.0113,-4.9707,-4.9687,-4.8856,-4.7869,-4.6748,-4.5645,-4.4001,0.0,0.0,0.0,0.0,0.0,0.0,0.0,0.0,0.0,0.0,0.0,0.0,0.0,0.0,0.0,0.0,0.0,0.0,0.0,0.0,0.0,0.0,0.0,-3.8024,0.0,0.0,0.0,0.0,0.0,0.0,0.0,0.0,0.0,-3.7868,-3.996,-4.2026,-4.338,-4.4267,-4.496,-4.5518,0.0,0.0,0.0,0.0,0.0,0.0,0.0,-4.5105,-4.4797,-4.4316,-4.3874,-4.3566,-4.4182,-4.4643,-4.4355,0.0,0.0,-4.3412,-4.3316,-4.3605,-4.3912,-4.3739,-4.3778,-4.4566,-4.4739,-4.4921,0.0,0.0,0.0,0.0,0.0,0.0,0.0,0.0,-4.8469,-4.7521,0.0,-4.602,0.0,0.0,0.0,0.0,0.0,-4.4743,0.0,0.0,-4.9591,-5.0442,-4.9745,-4.9687,-4.9707,-4.9687,-4.8836,-4.8005,-4.7057,-4.4736,0.0,0.0,0.0,0.0,0.0,0.0,-4.549,-4.7115,-4.961,-5.0898,-5.0879,-5.0132,-4.9765,-4.9745,-4.8952,-4.8508,-4.843,-4.6967,-4.6,-4.5768,-4.1905,0.0,0.0,0.0,0.0,0.0,0.0,0.0,0.0,0.0,0.0,0.0,0.0,0.0,0.0,0.0,0.0,0.0,0.0,0.0,0.0,-3.8065,0.0,0.0,0.0,0.0,0.0,0.0,0.0,0.0,0.0,0.0,-3.9715,-4.1687,-4.353,-4.4265,0.0,0.0,0.0,0.0,-4.6942,-4.6942,-4.7586,-4.7817,-4.7058,-4.6923,-4.6644,-4.5825,0.0,0.0,-4.4566,-4.5133,-4.546,-4.4605,-4.522,-4.5671,-4.5671,-4.4921,-4.4605,-4.5344,-4.4913,-4.4729,-4.546,-4.5845,-4.5883,-5.0945,0.0,0.0,0.0,0.0,-4.9436,-5.0074,-5.1099,-5.1119,-5.048,-4.9436,-4.9455,0.0,0.0,0.0,0.0,0.0,0.0,-4.7212,-4.8063,-4.9436,-5.0229,-5.055,-5.055,-5.0569,-5.0531,-5.0299,-5.0047,-4.9776,-4.9068,-4.6341,-4.1738,0.0,0.0,0.0,0.0,-4.6922,-4.8063,-4.9939,-5.0898,-5.0898,-5.0666,-5.055,-5.055,-5.0318,-5.019,-5.0183,-4.9718,-4.8624,-4.6786,-4.5561,0.0,0.0,0.0,0.0,0.0,0.0,0.0,0.0,0.0,0.0,0.0,0.0,0.0,0.0,0.0,0.0,0.0,0.0,0.0,-3.7853,-3.9084,-3.9246,0.0,0.0,0.0,0.0,0.0,0.0,0.0,0.0,0.0,-4.2874,-4.405,-4.4983,0.0,0.0,-4.6547,-4.6528,-4.724,-4.774,-4.775,-4.7942,0.0,-4.7788,-4.7759,-4.7654,-4.7413,-4.7394,-4.7298,-4.7067,-4.7221,-4.7298,-4.7028,-4.7201,-4.7394,-4.7317,-4.6182,-4.5402,-4.5556,-4.5874,-4.6413,-4.7201,-4.7855,-4.8471,-5.3865,-5.2793,-5.1459,-5.1304,-5.1912,-5.1931,-5.2608,-5.371,-5.3691,-5.3227,-5.2445,-5.2453,-5.1331,-4.9378,-4.9049,0.0,0.0,0.0,-4.9068,-4.9919,-5.0113,-5.0434,-5.0879,-5.0898,-5.0898,-5.0898,-5.0898,-5.0898,-5.0898,-5.0589,-4.845,-4.4678,0.0,0.0,-4.4117,-4.6399,-4.8043,-4.8933,-5.0221,-5.0898,-5.0898,-5.0898,-5.0898,-5.0898,-5.0898,-5.0898,-5.0898,-5.0898,-5.0055,-4.8198,-4.7105,-4.4969,0.0,0.0,0.0,0.0,0.0,0.0,0.0,0.0,0.0,0.0,0.0,-3.393,-3.2064,0.0,0.0,0.0,-3.7296,-3.8423,-3.9411,-4.0104,0.0,0.0,0.0,0.0,0.0,0.0,0.0,-4.095,-4.2508,-4.3758,-4.4259,-4.5355,-4.6105,-4.6105,-4.6586,-4.7,-4.7327,0.0,-4.8606,-4.8625,-4.8913,-4.9009,-4.8682,-4.8606,-4.849,-4.8135,-4.8096,-4.8096,-4.8096,-4.8096,-4.8096,-4.8096,-4.8096,-4.8096,-4.8096,-4.7259,-4.6586,-4.6586,-4.699,-4.7519,-4.8029,-4.8529,-4.9048,-5.6091,-5.5818,-5.2658,-5.2232,-5.3672,-5.3691,-5.4561,-5.5965,-5.5984,-5.5586,-5.489,-5.489,-5.3556,-5.1265,-5.0461,0.0,-5.1207,-5.1149,-5.1525,-5.2268,-5.1409,-5.1014,-5.0995,-5.0917,-5.0898,-5.0898,-5.0906,-5.0906,-5.0859,-5.0171,-4.9366,-4.8527,-4.8508,-4.8024,-4.7173,-4.7947,-4.8836,-4.9687,-5.0415,-5.0821,-5.0898,-5.0898,-5.0898,-5.0898,-5.0898,-5.0898,-5.0898,-5.0821,-5.0453,-4.966,-4.726,-4.5476,-4.4434,0.0,0.0,0.0,0.0,0.0,0.0,0.0,0.0,0.0,0.0,0.0,0.0,0.0,0.0,0.0,-4.0893,0.0,-4.1904,-4.1181,0.0,0.0,0.0,-3.9823,-4.0612,-4.1489,-4.2,-4.2,0.0,0.0,-4.4509,-4.5913,-4.6951,-4.7067,-4.7115,-4.7375,-4.8086,-4.8952,-4.949,-4.949,-5.0173,-5.0404,-4.9625,-4.949,-4.9279,-4.8606,-4.8298,-4.8413,-4.8413,-4.8413,-4.8355,-4.8432,-4.8336,-4.8355,-4.8317,-4.8355,-4.8298,-4.8298,-4.824,-4.8221,-4.8279,-4.8413,-4.8567,-5.685,-5.6854,-5.5384,-5.5045,-5.5412,-5.5412,-5.5636,-5.5984,-5.6003,-5.5877,-5.5722,-5.5702,-5.5374,-5.4746,-5.3962,-5.3691,-5.3826,-5.3188,-5.2995,-5.3111,-5.2279,-5.1873,-5.1854,-5.1207,-5.0898,-5.0906,-5.0966,-5.094,-5.0906,-5.0773,-5.025,-4.9417,-4.9397,-4.8604,-4.7192,-4.7966,-4.8817,-4.9687,-4.9892,-5.0279,-5.0879,-5.0898,-5.0898,-5.0898,-5.0898,-5.0898,-5.0898,-5.0299,-4.99,-4.9687,-4.8404,-4.6739,-4.4588,-4.1453,0.0,0.0,0.0,0.0,0.0,0.0,0.0,0.0,0.0,-3.5231,-3.2526,0.0,-3.7161,0.0,-4.1585,-4.3451,-4.2835,-4.2604,0.0,0.0,-4.145,-4.1546,-4.2393,-4.3201,-4.372,-4.3701,-4.4624,-4.5547,-4.6192,-4.6663,-4.7375,-4.8606,-4.8798,-4.8894,-4.9086,-4.9827,-5.0385,-5.0385,-5.0539,-5.0606,-5.0423,-5.0404,-5.0289,-5.0125,-5.0048,-5.0077,-5.0077,-5.0067,-5.0067,-5.0096,-5.0096,-5.0067,-5.0029,-5.0087,-5.0048,-5.0029,-4.9548,-4.9086,-4.9106,-4.9586,-5.0077,-5.6859,-5.6637,-5.6596,-5.636,-5.6003,-5.6003,-5.6003,-5.6003,-5.6003,-5.6003,-5.6003,-5.6003,-5.6003,-5.5984,-5.5548,-5.5335,-5.5258,-5.4465,-5.4078,-5.402,-5.3169,-5.2782,-5.2743,-5.2299,-5.1888,-5.154,-5.1599,-5.1418,-5.1009,-5.0997,-5.0743,-5.0281,-5.0244,-4.9571,-4.8314,-4.8353,-4.8643,-4.9107,-4.9513,-5.0086,-5.0859,-5.0898,-5.0531,-4.9815,-4.9796,-4.9436,-4.8662,-4.8217,-4.763,-4.69,-4.6321,-4.5036,-4.2879,-4.066,-3.8659,0.0,0.0,0.0,0.0,0.0,0.0,0.0,0.0,0.0,0.0,0.0,-3.8584,-3.9084,-4.2277,-4.3816,-4.2624,-4.2874,-4.3047,-4.2931,-4.2912,-4.3258,-4.4124,-4.4605,-4.5028,-4.5413,-4.5893,-4.649,-4.7317,-4.7759,-4.8336,-4.9298,-4.9721,-4.9971,-5.001,-5.0423,-5.0683,-5.0683,-5.0683,-5.0683,-5.0683,-5.0683,-5.0683,-5.0683,-5.0683,-5.0683,-5.0683,-5.0683,-5.0683,-5.0683,-5.0683,-5.0683,-5.0683,-5.0683,-5.0683,-5.0625,-5.0317,-5.001,-4.999,-5.0385,-5.0683,-5.6693,-5.6222,-5.6983,-5.6854,-5.6158,-5.6158,-5.61,-5.6003,-5.6003,-5.6003,-5.6003,-5.6003,-5.6003,-5.6003,-5.6003,-5.6003,-5.5954,-5.5258,-5.4967,-5.4909,-5.4058,-5.368,-5.3677,-5.3618,-5.3208,-5.2498,-5.2544,-5.2121,-5.1274,-5.1212,-5.1082,-5.0875,-5.0804,-5.036,-4.9548,-4.8786,-4.8411,-4.8411,-4.9262,-5.0035,-5.0724,-5.0635,-4.9815,-4.8333,-4.8237,-4.7482,-4.5884,-4.571,-4.4974,-4.3554,-4.3299,-4.2567,-4.1142,-3.9441,-3.8142,0.0,-3.6481,0.0,0.0,0.0,0.0,0.0,0.0,0.0,0.0,-4.015,-4.0727,-4.0823,-4.294,-4.3739,-4.2412,-4.297,-4.3701,-4.4374,-4.447,-4.4759,-4.5498,-4.5691,-4.6047,-4.6827,-4.6981,-4.7375,-4.8182,-4.8952,-4.9394,-4.9625,-5.0192,-5.0587,-5.0673,-5.0673,-5.0683,-5.0683,-5.0683,-5.0683,-5.0683,-5.0683,-5.0683,-5.0683,-5.0683,-5.0683,-5.0683,-5.0683,-5.0683,-5.0683,-5.0683,-5.0683,-5.0683,-5.0683,-5.0683,-5.0683,-5.0654,-5.0625,-5.0625,-5.0654,-5.0683,-5.7429,-5.8007,-5.7503,-5.7202,-5.7048,-5.7048,-5.6641,-5.6003,-5.6003,-5.6003,-5.6003,-5.6003,-5.6003,-5.6003,-5.6003,-5.6003,-5.6003,-5.5857,-5.5771,-5.5733,-5.4929,-5.4583,-5.4595,-5.3911,-5.3546,-5.3443,-5.3483,-5.3061,-5.2154,-5.2194,-5.1508,-5.0136,-5.0028,-4.9588,-4.8754,0.0,0.0,0.0,-4.9262,-4.9765,-4.99,-4.9223,-4.8392,-4.7386,-4.7347,0.0,-4.5838,-4.5181,-4.4664,-4.4281,-4.3588,0.0,0.0,0.0,0.0,0.0,0.0,0.0,0.0,0.0,0.0,0.0,-3.9977,-3.9669,-3.9361,-4.0681,-4.1854,-4.2547,-4.3643,-4.447,-4.4855,-4.5017,-4.519,-4.5344,-4.5364,-4.5441,-4.5614,-4.622,-4.674,-4.6894,-4.749,-4.8202,-4.9009,-4.9317,-4.9663,-5.0308,-5.0596,-5.0683,-5.0683,-5.0683,-5.0683,-5.0683,-5.0683,-5.0683,-5.0683,-5.0683,-5.0683,-5.0683,-5.0683,-5.0683,-5.0683,-5.0683,-5.0683,-5.0683,-5.0683,-5.0683,-5.0683,-5.0683,-5.0683,-5.0683,-5.0683,-5.0683,-5.0683,-5.0683,-5.0683,-5.723,0.0,-5.7919,-5.7927,0.0,-5.7946,-5.7443,-5.6603,-5.6177,-5.6003,-5.6003,-5.6003,-5.6003,-5.6003,-5.6003,-5.6003,-5.6003,-5.6003,-5.6003,-5.5973,-5.5586,-5.5415,-5.5482,-5.5079,-5.4705,-5.4383,-5.4456,-5.3968,-5.3015,-5.2663,-5.2005,-5.1037,-5.0623,-5.0222,-4.9795,-4.9704,-4.9473,-4.9068,-4.9475,-4.9881,-5.026,-4.9861,-4.8817,-4.7173,-4.7096,0.0,0.0,0.0,0.0,0.0,0.0,0.0,0.0,-4.162,0.0,-4.1143,-4.0758,-4.0719,-4.1143,-4.1546,-4.2124,-4.2959,-4.3017,-4.2497,-4.1277,-4.2701,-4.3855,-4.4278,-4.471,-4.5114,-4.5537,-4.5594,-4.5594,-4.5594,-4.5594,-4.5748,-4.6182,-4.6624,-4.724,-4.8029,-4.849,-4.9067,-4.9942,-5.0029,-5.0183,-5.0616,-5.0683,-5.0683,-5.0683,-5.0683,-5.0683,-5.0683,-5.0683,-5.0683,-5.0683,-5.0683,-5.0683,-5.0683,-5.0683,-5.0683,-5.0683,-5.0683,-5.0683,-5.0683,-5.0683,-5.0683,-5.0683,-5.0683,-5.0683,-5.0683,-5.0683,-5.0683,-5.0683,-5.0683,-5.0683,-5.6717,-5.7098,-5.8162,-5.8584,-5.8604,-5.8767,-5.8333,-5.7462,0.0,0.0,0.0,-5.6003,-5.6003,-5.6003,-5.6003,-5.6003,-5.6003,-5.6003,-5.6003,-5.6003,-5.601,-5.604,-5.6124,-5.6154,-5.5883,-5.53,-5.5307,-5.4814,-5.3844,-5.3211,-5.2694,-5.2246,-5.1643,-5.126,-5.1107,-5.103,-5.0632,-4.9939,-4.9765,-5.0016,-5.0666,-5.055,-4.9397,-4.7161,-4.6941,-4.5819,-4.3634,-4.3375,-4.2916,-4.2177,-4.2112,-4.1843,-4.1216,-4.117,-4.1247,-4.142,-4.2085,-4.2797,-4.3508,-4.4143,-4.4836,-4.5556,-4.5594,-4.5017,-4.3643,-4.4806,-4.5594,-4.5594,-4.5594,-4.5594,-4.5594,-4.5594,-4.5594,-4.5594,-4.5748,-4.6124,-4.6788,-4.7212,-4.7932,-4.9125,-4.949,-4.9875,-5.0548,-5.0644,-5.0683,-5.0683,-5.0683,-5.0683,-5.0683,-5.0683,-5.0683,-5.0683,-5.0683,-5.0683,-5.0683,-5.0683,-5.0683,-5.0683,-5.0683,-5.0683,-5.0683,-5.0683,-5.0683,-5.0683,-5.0683,-5.0683,-5.0683,-5.0683,-5.0683,-5.0683,-5.0683,-5.0683,-5.0683,-5.0683,-5.0683,-5.6344,-5.7079,-5.8162,-5.8584,-5.8662,-5.9397,-5.9203,-5.8314,-5.6689,-5.6003,-5.6003,-5.6003,-5.6003,-5.6003,-5.6003,-5.6003,-5.6003,-5.6003,-5.6003,-5.5993,-5.6067,-5.6124,-5.6194,-5.6126,-5.6082,-5.6039,-5.5877,-5.5423,-5.4783,-5.4588,-5.3877,-5.2675,-5.2383,-5.1866,-5.1082,-5.1004,-5.0903,-5.0732,-5.0055,-4.9765,-4.9861,-4.9146,-4.8237,-4.7154,-4.6419,-4.551,-4.4458,-4.3677,-4.3159,-4.3026,-4.295,-4.3161,-4.3728,-4.372,-4.4085,-4.4806,-4.4998,-4.5133,-4.5248,-4.5355,-4.5479,-4.5575,-4.5594,-4.5479,-4.5287,-4.546,-4.5594,-4.5594,-4.5594,-4.5594,-4.5594,-4.5594,-4.5614,-4.5671,-4.6259,-4.6778,-4.7,-4.8144,-4.9067,-4.9433,-5.0067,-5.05,-5.0644,-5.0683,-5.0683,-5.0683,-5.0683,-5.0683,-5.0683,-5.0683,-5.0683,-5.0683,-5.0683,-5.0683,-5.0683,-5.0683,-5.0683,-5.0683,-5.0683,-5.0683,-5.0683,-5.0683,-5.0683,-5.0683,-5.0683,-5.0683,-5.0683,-5.0683,-5.0683,-5.0683,-5.0683,-5.0683,-5.0683,-5.0683,-5.0683,-5.6165,-5.704,-5.7631,-5.8159,-5.8584,-5.8526,-5.8275,-5.7791,-5.6553,-5.6274,-5.6641,-5.6205,-5.6003,-5.6003,-5.6003,-5.6003,-5.6003,-5.6003,-5.6003,-5.5993,-5.6035,-5.6075,-5.6087,-5.6048,-5.6056,-5.604,-5.5957,-5.5685,-5.5288,-5.5026,-5.4259,-5.301,-5.2232,-5.157,-5.1088,-5.1056,-5.1004,-5.0887,-5.055,-5.0337,-5.0337,-4.995,-4.9359,-4.8527,-4.8101,-4.7289,-4.6013,-4.5551,-4.509,-4.4569,-4.4522,-4.4675,-4.4979,-4.5017,-4.5182,-4.5556,-4.5594,-4.5594,-4.5594,-4.5594,-4.5594,-4.5594,-4.5594,-4.5594,-4.5594,-4.5594,-4.5594,-4.5594,-4.5594,-4.5594,-4.5594,-4.5594,-4.5778,-4.6278,-4.6682,-4.7259,-4.8144,-4.8856,-4.9567,-5.0019,-5.0442,-5.0683,-5.0683,-5.0683,-5.0683,-5.0683,-5.0683,-5.0683,-5.0683,-5.0683,-5.0683,-5.0683,-5.0683,-5.0683,-5.0683,-5.0683,-5.0683,-5.0683,-5.0683,-5.0683,-5.0683,-5.0683,-5.0683,-5.0683,-5.0683,-5.0683,-5.0683,-5.0683,-5.0683,-5.0683,-5.0683,-5.0683,-5.0683,-5.0683,-5.0683,-5.5873,-5.6596,-5.7062,-5.7764,-5.8507,-5.7888,-5.7598,-5.7521,-5.667,-5.6689,-5.7106,-5.6379,-5.6003,-5.6003,-5.6003,-5.6003,-5.6003,-5.6003,-5.6003,-5.6003,-5.6003,-5.6003,-5.6003,-5.5949,-5.5892,-5.5816,-5.5808,-5.5721,-5.5563,-5.5247,-5.4471,-5.3336,-5.1968,-5.1234,-5.1086,-5.108,-5.1037,-5.0914,-5.0898,-5.0898,-5.0898,-5.0898,-5.0596,-5.0035,-4.9784,-4.9042,-4.7758,-4.7283,-4.6735,-4.602,-4.5786,-4.5648,-4.5594,-4.5594,-4.5594,-4.5594,-4.5594,-4.5594,-4.5594,-4.5594,-4.5594,-4.5594,-4.5594,-4.5594,-4.5594,-4.5594,-4.5594,-4.5594,-4.5594,-4.5594,-4.5633,-4.5825,-4.6163,-4.6817,-4.7278,-4.8009,-4.9144,-4.9567,-4.9933,-5.0587,-5.0683,-5.0683,-5.0683,-5.0683,-5.0683,-5.0683,-5.0683,-5.0683,-5.0683,-5.0683,-5.0683,-5.0683,-5.0683,-5.0683,-5.0683,-5.0683,-5.0683,-5.0683,-5.0683,-5.0683,-5.0683,-5.0683,-5.0683,-5.0683,-5.0683,-5.0683,-5.0683,-5.0683,-5.0683,-5.0683,-5.0683,-5.0683,-5.0683,-5.0683,-5.0683,-5.5294,-5.5524,-5.6558,-5.7632,-5.8488,-5.843,-5.8372,-5.8275,-5.7521,-5.7222,-5.7144,-5.6399,-5.6003,-5.6003,-5.6003,-5.6003,-5.6003,-5.6003,-5.6003,-5.6003,-5.6003,-5.6003,-5.5967,-5.575,-5.5639,-5.5618,-5.5535,-5.5516,-5.5585,-5.5457,-5.4821,-5.3553,-5.2047,-5.1234,-5.1097,-5.108,-5.1037,-5.0906,-5.0898,-5.0898,-5.0898,-5.0898,-5.0859,-5.0801,-5.0066,-4.9606,-4.9246,-4.7854,-4.6946,-4.6733,-4.6025,-4.5614,-4.5594,-4.5594,-4.5594,-4.5594,-4.5594,-4.5594,-4.5594,-4.5594,-4.5594,-4.5594,-4.5594,-4.5594,-4.5594,-4.5594,-4.5594,-4.5652,-4.5633,-4.5671,-4.5652,-4.6317,-4.6855,-4.7144,-4.8221,-4.926,-4.9471,-5.0115,-5.0635,-5.0664,-5.0683,-5.0683,-5.0683,-5.0683,-5.0683,-5.0683,-5.0683,-5.0683,-5.0683,-5.0683,-5.0683,-5.0683,-5.0683,-5.0683,-5.0683,-5.0683,-5.0683,-5.0683,-5.0683,-5.0683,-5.0683,-5.0683,-5.0683,-5.0683,-5.0683,-5.0683,-5.0683,-5.0683,-5.0683,-5.0683,-5.0683,-5.0683,-5.0683,-5.0683,-5.0683,-5.5216,-5.5261,-5.5861,-5.6438,-5.6908,-5.6927,-5.6984,-5.7018,-5.6689,-5.6525,-5.6506,-5.6147,-5.6003,-5.6003,-5.6003,-5.6003,-5.6003,-5.6003,-5.6003,-5.6003,-5.5903,-5.5847,-5.5798,-5.558,-5.5485,-5.5488,-5.5434,-5.5415,-5.5327,-5.4589,-5.3935,-5.3463,-5.1991,-5.115,-5.1086,-5.108,-5.1037,-5.0906,-5.0898,-5.0866,-5.0799,-5.0782,-5.0825,-5.0844,-5.0497,-5.0036,-4.9597,-4.885,-4.7998,-4.7003,-4.6546,-4.6144,-4.5633,-4.5594,-4.5594,-4.5594,-4.5594,-4.5594,-4.5594,-4.5594,-4.5594,-4.5594,-4.5594,-4.5594,-4.5594,-4.5594,-4.5787,-4.6278,-4.6374,-4.6374,-4.6432,-4.7124,-4.7798,-4.8336,-4.9009,-4.9606,-5.0125,-5.0481,-5.0683,-5.0683,-5.0683,-5.0683,-5.0683,-5.0683,-5.0683,-5.0683,-5.0683,-5.0683,-5.0683,-5.0683,-5.0683,-5.0683,-5.0683,-5.0683,-5.0683,-5.0683,-5.0683,-5.0683,-5.0683,-5.0683,-5.0683,-5.0683,-5.0683,-5.0683,-5.0683,-5.0683,-5.0683,-5.0683,-5.0683,-5.0683,-5.0683,-5.0683,-5.0683,-5.0683,-5.0683,-5.5102,-5.5149,-5.5326,-5.5539,-5.5705,-5.5705,-5.5767,-5.5847,-5.5875,-5.5894,-5.5931,-5.5894,-5.5894,-5.595,-5.5986,-5.6003,-5.6003,-5.6003,-5.6003,-5.5986,-5.5837,-5.5735,-5.5673,-5.5456,-5.5371,-5.5384,-5.5403,-5.539,-5.5218,-5.3832,-5.3224,-5.3189,-5.1878,-5.1081,-5.1056,-5.1075,-5.1037,-5.0914,-5.0866,-5.0799,-5.0701,-5.0615,-5.0625,-5.0735,-5.0738,-5.043,-4.9877,-4.9635,-4.8915,-4.767,-4.7364,-4.6951,-4.6336,-4.6095,-4.5864,-4.5614,-4.5594,-4.5594,-4.5594,-4.5594,-4.5594,-4.5614,-4.5787,-4.5951,-4.5998,-4.6152,-4.6547,-4.7124,-4.7451,-4.7548,-4.7317,-4.7971,-4.8721,-4.9317,-4.9548,-5.0048,-5.0596,-5.0683,-5.0683,-5.0683,-5.0683,-5.0683,-5.0683,-5.0683,-5.0683,-5.0683,-5.0683,-5.0683,-5.0683,-5.0683,-5.0683,-5.0683,-5.0683,-5.0683,-5.0683,-5.0683,-5.0683,-5.0683,-5.0683,-5.0683,-5.0683,-5.0683,-5.0683,-5.0683,-5.0683,-5.0683,-5.0683,-5.0683,-5.0683,-5.0683,-5.0683,-5.0683,-5.0683,-5.0683,-5.0683,-5.4916,-5.496,-5.5135,-5.5326,-5.5516,-5.5516,-5.5527,-5.5562,-5.5539,-5.5629,-5.5766,-5.5629,-5.5629,-5.5807,-5.5932,-5.6003,-5.6003,-5.5995,-5.5995,-5.5968,-5.5726,-5.5629,-5.5662,-5.5364,-5.5275,-5.539,-5.539,-5.539,-5.5301,-5.3889,-5.3105,-5.3051,-5.1806,-5.105,-5.0947,-5.1043,-5.1018,-5.0906,-5.0791,-5.072,-5.0644,-5.0396,-5.031,-5.0415,-5.0606,-5.0596,-5.0403,-4.9863,-4.9408,-4.9269,-4.8471,-4.8009,-4.7875,-4.724,-4.649,-4.5806,-4.5691,-4.5652,-4.571,-4.5748,-4.5729,-4.5768,-4.6451,-4.6855,-4.6865,-4.7394,-4.7817,-4.8038,-4.8682,-4.8817,-4.8355,-4.8875,-4.9356,-4.949,-5.0144,-5.0577,-5.0673,-5.0683,-5.0683,-5.0683,-5.0683,-5.0683,-5.0683,-5.0683,-5.0683,-5.0683,-5.0683,-5.0683,-5.0683,-5.0683,-5.0683,-5.0683,-5.0683,-5.0683,-5.0683,-5.0683,-5.0683,-5.0683,-5.0683,-5.0683,-5.0683,-5.0683,-5.0683,-5.0683,-5.0683,-5.0683,-5.0683,-5.0683,-5.0683,-5.0683,-5.0683,-5.0683,-5.0683,-5.0683,-5.0683,-5.4901,-5.4901,-5.4971,-5.5121,-5.5288,-5.532,-5.5364,-5.5504,-5.5523,-5.5539,-5.5585,-5.5527,-5.5539,-5.5607,-5.5643,-5.5757,-5.5866,-5.5876,-5.5876,-5.5847,-5.5562,-5.5444,-5.548,-5.5307,-5.5261,-5.5371,-5.539,-5.539,-5.5288,-5.4266,-5.3502,-5.301,-5.22,-5.1474,-5.1014,-5.1018,-5.1037,-5.0906,-5.0773,-5.0654,-5.0507,-5.0298,-5.0175,-5.0107,-5.0369,-5.0527,-5.0557,-5.0411,-5.0072,-4.9499,-4.9105,-4.8682,-4.8144,-4.7836,-4.7528,-4.724,-4.7201,-4.7201,-4.7201,-4.7201,-4.7201,-4.7221,-4.7471,-4.7663,-4.7702,-4.7952,-4.8317,-4.8856,-4.9163,-4.9375,-4.9798,-5.0048,-5.0221,-5.026,-5.0491,-5.0683,-5.0683,-5.0683,-5.0683,-5.0683,-5.0683,-5.0683,-5.0683,-5.0683,-5.0683,-5.0683,-5.0683,-5.0683,-5.0683,-5.0683,-5.0683,-5.0683,-5.0683,-5.0683,-5.0683,-5.0683,-5.0683,-5.0683,-5.0683,-5.0683,-5.0683,-5.0683,-5.0683,-5.0683,-5.0683,-5.0683,-5.0683,-5.0683,-5.0683,-5.0683,-5.0683,-5.0683,-5.0683,-5.0683,-5.0683,-5.4901,-5.4901,-5.4901,-5.4971,-5.5113,-5.5107,-5.5176,-5.5288,-5.5288,-5.5345,-5.5395,-5.5326,-5.5326,-5.5389,-5.5408,-5.548,-5.5607,-5.5662,-5.5695,-5.5692,-5.5432,-5.5333,-5.5371,-5.5249,-5.528,-5.5371,-5.539,-5.539,-5.5275,-5.4524,-5.3747,-5.3086,-5.2403,-5.1667,-5.1049,-5.1017,-5.0977,-5.085,-5.0682,-5.0507,-5.0347,-5.0259,-5.0101,-4.9999,-5.0291,-5.0486,-5.0516,-5.0692,-5.0535,-4.997,-4.9836,-4.9433,-4.8625,-4.8509,-4.8375,-4.8144,-4.8077,-4.8096,-4.8096,-4.8096,-4.8077,-4.8125,-4.8375,-4.8529,-4.8529,-4.8779,-4.924,-4.9663,-4.9817,-5.0125,-5.051,-5.0664,-5.0683,-5.0683,-5.0683,-5.0683,-5.0683,-5.0683,-5.0683,-5.0683,-5.0683,-5.0683,-5.0683,-5.0683,-5.0683,-5.0683,-5.0683,-5.0683,-5.0683,-5.0683,-5.0683,-5.0683,-5.0683,-5.0683,-5.0683,-5.0683,-5.0683,-5.0683,-5.0683,-5.0683,-5.0683,-5.0683,-5.0683,-5.0683,-5.0683,-5.0683,-5.0683,-5.0683,-5.0683,-5.0683,-5.0683,-5.0683,-5.0683,-5.0683,-5.0683,-5.4901,-5.4901,-5.4901,-5.4901,-5.4931,-5.4931,-5.4916,-5.4946,-5.4946,-5.5038,-5.5176,-5.5014,-5.5038,-5.5157,-5.5183,-5.5197,-5.5249,-5.5376,-5.548,-5.548,-5.5358,-5.5339,-5.5371,-5.5268,-5.5275,-5.539,-5.539,-5.539,-5.5333,-5.4638,-5.3897,-5.3152,-5.2511,-5.1835,-5.0956,-5.1032,-5.0902,-5.0709,-5.0517,-5.0347,-5.0243,-5.0207,-5.0076,-4.9973,-5.038,-5.0556,-5.0337,-5.0625,-5.0738,-5.0635,-5.0616,-5.0269,-4.9529,-4.9413,-4.9067,-4.8471,-4.8231,-4.8192,-4.824,-4.8308,-4.8413,-4.8471,-4.8971,-4.9394,-4.951,-5.0029,-5.0481,-5.0519,-5.0577,-5.0673,-5.0673,-5.0683,-5.0683,-5.0683,-5.0683,-5.0683,-5.0683,-5.0683,-5.0683,-5.0683,-5.0683,-5.0683,-5.0683,-5.0683,-5.0683,-5.0683,-5.0683,-5.0683,-5.0683,-5.0683,-5.0683,-5.0683,-5.0683,-5.0683,-5.0683,-5.0683,-5.0683,-5.0683,-5.0683,-5.0683,-5.0683,-5.0683,-5.0683,-5.0683,-5.0683,-5.0683,-5.0683,-5.0683,-5.0683,-5.0683,-5.0683,-5.0683,-5.0683,-5.0683,-5.0683,-5.4901,-5.4901,-5.4901,-5.4901,-5.4901,-5.4901,-5.4901,-5.4901,-5.4901,-5.4927,-5.4971,-5.4931,-5.4946,-5.4985,-5.5,-5.5,-5.5,-5.5071,-5.5162,-5.5268,-5.5203,-5.5176,-5.5203,-5.5294,-5.5358,-5.539,-5.539,-5.539,-5.5352,-5.5193,-5.4735,-5.4003,-5.3342,-5.2612,-5.1765,-5.1196,-5.0805,-5.0692,-5.041,-5.0228,-5.0188,-5.0063,-4.9959,-4.9965,-5.0275,-5.0418,-5.0344,-5.0615,-5.0757,-5.0702,-5.0683,-5.0577,-5.0346,-5.0279,-5.0144,-4.9933,-4.9904,-4.9894,-4.9875,-4.9856,-4.9817,-4.9913,-5.0125,-5.0269,-5.0308,-5.0519,-5.0683,-5.0683,-5.0683,-5.0683,-5.0683,-5.0683,-5.0683,-5.0683,-5.0683,-5.0683,-5.0683,-5.0683,-5.0683,-5.0683,-5.0683,-5.0683,-5.0683,-5.0683,-5.0683,-5.0683,-5.0683,-5.0683,-5.0683,-5.0683,-5.0683,-5.0683,-5.0683,-5.0683,-5.0683,-5.0683,-5.0683,-5.0683,-5.0683,-5.0683,-5.0683,-5.0683,-5.0683,-5.0683,-5.0683,-5.0683,-5.0683,-5.0683,-5.0683,-5.0683,-5.0683,-5.0683,-5.0683,-5.0683,-5.0683,-5.583,-5.583,-5.583,-5.564,-5.5394,-5.5375,-5.5185,-5.4939,-5.4901,-5.4901,-5.4901,-5.4901,-5.4901,-5.4901,-5.4901,-5.4901,-5.4901,-5.4901,-5.4971,-5.508,-5.5107,-5.5075,-5.5121,-5.5319,-5.539,-5.539,-5.539,-5.539,-5.5384,-5.5449,-5.5105,-5.4357,-5.3984,-5.323,-5.2216,-5.1559,-5.1085,-5.0634,-5.0333,-5.0163,-5.0089,-5.0038,-4.9973,-4.9959,-5.0264,-5.0377,-5.0337,-5.0615,-5.0748,-5.0702,-5.0683,-5.0693,-5.0683,-5.0664,-5.0683,-5.0683,-5.0683,-5.0673,-5.0683,-5.0587,-5.0683,-5.0683,-5.0683,-5.0683,-5.0683,-5.0683,-5.0683,-5.0683,-5.0683,-5.0683,-5.0683,-5.0683,-5.0683,-5.0683,-5.0683,-5.0683,-5.0683,-5.0683,-5.0683,-5.0683,-5.0683,-5.0683,-5.0683,-5.0683,-5.0683,-5.0683,-5.0683,-5.0683,-5.0683,-5.0683,-5.0683,-5.0683,-5.0683,-5.0683,-5.0683,-5.0683,-5.0683,-5.0683,-5.0683,-5.0683,-5.0683,-5.0683,-5.0683,-5.0683,-5.0683,-5.0683,-5.0683,-5.0683,-5.0683,-5.0683,-5.0683,-5.0683,-5.0683,-5.0683,-5.0683,-5.7384,-5.7403,-5.7308,-5.6758,-5.6133,-5.6019,-5.5546,-5.4977,-5.4901,-5.4901,-5.4901,-5.4901,-5.4901,-5.4901,-5.4901,-5.4901,-5.4901,-5.4901,-5.4901,-5.4956,-5.5042,-5.5107,-5.5168,-5.5332,-5.539,-5.539,-5.539,-5.539,-5.5384,-5.5421,-5.5025,-5.4452,-5.4329,-5.3619,-5.2404,-5.202,-5.1335,-5.0498,-5.024,-5.0076,-4.9933,-5.0082,-5.0063,-4.9893,-5.0256,-5.0402,-5.031,-5.0545,-5.0692,-5.0693,-5.0693,-5.0683,-5.0683,-5.0683,-5.0683,-5.0683,-5.0683,-5.0683,-5.0683,-5.0683,-5.0683,-5.0683,-5.0683,-5.0683,-5.0683,-5.0683,-5.0683,-5.0683,-5.0683,-5.0683,-5.0683,-5.0683,-5.0683,-5.0683,-5.0683,-5.0683,-5.0683,-5.0683,-5.0683,-5.0683,-5.0683,-5.0683,-5.0683,-5.0683,-5.0683,-5.0683,-5.0683,-5.0683,-5.0683,-5.0683,-5.0683,-5.0683,-5.0683,-5.0683,-5.0683,-5.0683,-5.0683,-5.0683,-5.0683,-5.0683,-5.0683,-5.0683,-5.0683,-5.0683,-5.0683,-5.0683,-5.0683,-5.0683,-5.0683,-5.0683,-5.0683,-5.0683,-5.0683,-5.0683,-5.0683,-5.7403,-5.7346,-5.6758,-5.6379,-5.6095,-5.5527,-5.5148,-5.492,-5.4901,-5.4901,-5.4901,-5.4901,-5.4901,-5.4901,-5.4901,-5.4901,-5.4901,-5.4901,-5.4901,-5.4931,-5.5042,-5.52,-5.5305,-5.5377,-5.539,-5.539,-5.539,-5.539,-5.5416,-5.5468,-5.537,-5.5143,-5.4624,-5.3917,-5.2877,-5.2026,-5.1132,-5.0362,-5.0076,-4.9959,-4.9939,-4.9952,-4.9912,-4.9788,-4.9967,-5.0088,-5.0125,-5.0483,-5.0683,-5.0693,-5.0683,-5.0683,-5.0683,-5.0683,-5.0683,-5.0683,-5.0683,-5.0683,-5.0683,-5.0683,-5.0683,-5.0683,-5.0683,-5.0683,-5.0683,-5.0683,-5.0683,-5.0683,-5.0683,-5.0683,-5.0683,-5.0683,-5.0683,-5.0683,-5.0683,-5.0683,-5.0683,-5.0683,-5.0683,-5.0683,-5.0683,-5.0683,-5.0683,-5.0683,-5.0683,-5.0683,-5.0683,-5.0683,-5.0683,-5.0683,-5.0683,-5.0683,-5.0683,-5.0683,-5.0683,-5.0683,-5.0683,-5.0683,-5.0683,-5.0683,-5.0683,-5.0683,-5.0683,-5.0683,-5.0683,-5.0683,-5.0683,-5.0683,-5.0683,-5.0683,-5.0683,-5.0683,-5.0683,-5.0683,-5.0683,-5.7952,-5.7858,-5.7043,-5.6512,-5.6152,-5.564,-5.5242,-5.4958,-5.4901,-5.4901,-5.4901,-5.4901,-5.4901,-5.4901,-5.4901,-5.4901,-5.4901,-5.4901,-5.4901,-5.4931,-5.5042,-5.5214,-5.5345,-5.539,-5.539,-5.539,-5.539,-5.539,-5.5396,-5.5425,-5.538,-5.5248,-5.4971,-5.4322,-5.3418,-5.2466,-5.1541,-5.0792,-5.0208,-4.9893,-4.9912,-4.9843,-4.9792,-4.9721,-4.9769,-4.9855,-5.0075,-5.0347,-5.0544,-5.0644,-5.0683,-5.0683,-5.0683,-5.0683,-5.0683,-5.0683,-5.0683,-5.0683,-5.0683,-5.0683,-5.0683,-5.0683,-5.0683,-5.0683,-5.0683,-5.0683,-5.0683,-5.0683,-5.0683,-5.0683,-5.0683,-5.0683,-5.0683,-5.0683,-5.0683,-5.0683,-5.0683,-5.0683,-5.0683,-5.0683,-5.0683,-5.0683,-5.0683,-5.0683,-5.0683,-5.0683,-5.0683,-5.0683,-5.0683,-5.0683,-5.0683,-5.0683,-5.0683,-5.0683,-5.0683,-5.0683,-5.0683,-5.0683,-5.0673,-5.0683,-5.0673,-5.0683,-5.0683,-5.0683,-5.0683,-5.0683,-5.0673,-5.0673,-5.0683,-5.0683,-5.0683,-5.0683,-5.0683,-5.0683,-5.0683,-5.8635,-5.8483,-5.7611,-5.6872,-5.6228,-5.6076,-5.5527,-5.4996,-5.4901,-5.4901,-5.4901,-5.4901,-5.4901,-5.4901,-5.4901,-5.4901,-5.4901,-5.4901,-5.4901,-5.4941,-5.5057,-5.52,-5.5326,-5.539,-5.539,-5.539,-5.539,-5.5371,-5.5339,-5.5255,-5.5176,-5.5138,-5.5166,-5.4733,-5.3836,-5.3104,-5.2317,-5.1313,-5.0542,-5.0055,-4.9881,-4.9759,-4.9692,-4.9585,-4.9592,-4.9781,-5.0038,-5.0225,-5.0369,-5.0683,-5.0683,-5.0683,-5.0683,-5.0683,-5.0683,-5.0683,-5.0683,-5.0683,-5.0683,-5.0683,-5.0683,-5.0683,-5.0683,-5.0683,-5.0683,-5.0683,-5.0683,-5.0683,-5.0683,-5.0683,-5.0683,-5.0683,-5.0683,-5.0683,-5.0683,-5.0683,-5.0683,-5.0683,-5.0683,-5.0683,-5.0683,-5.0683,-5.0683,-5.0683,-5.0683,-5.0683,-5.0683,-5.0683,-5.0683,-5.0683,-5.0683,-5.0683,-5.0683,-5.0683,-5.0683,-5.0683,-5.0683,-5.0683,-5.0663,-5.0682,-5.0673,-5.0682,-5.0692,-5.0692,-5.0643,-5.0633,-5.0643,-5.0653,-5.0663,-5.0663,-5.0643,-5.0663,-5.0702,-5.0683,-5.0683,-5.8309,-5.7592,-5.6815,-5.6341,-5.6095,-5.5489,-5.5091,-5.492,-5.4901,-5.4901,-5.4901,-5.4901,-5.4901,-5.4901,-5.4901,-5.4901,-5.4901,-5.4901,-5.4931,-5.4985,-5.5052,-5.5149,-5.5248,-5.5326,-5.539,-5.539,-5.539,-5.5326,-5.5261,-5.5222,-5.5135,-5.5057,-5.5,-5.4643,-5.3884,-5.3542,-5.2698,-5.1508,-5.1011,-5.0487,-4.9896,-4.9707,-4.9574,-4.9371,-4.9399,-4.9602,-4.9851,-5.0099,-5.0358,-5.0614,-5.0683,-5.0683,-5.0683,-5.0683,-5.0683,-5.0673,-5.0683,-5.0683,-5.0683,-5.0683,-5.0683,-5.0683,-5.0683,-5.0683,-5.0683,-5.0683,-5.0683,-5.0683,-5.0683,-5.0683,-5.0683,-5.0683,-5.0683,-5.0683,-5.0683,-5.0683,-5.0683,-5.0683,-5.0683,-5.0683,-5.0683,-5.0683,-5.0683,-5.0683,-5.0683,-5.0683,-5.0683,-5.0683,-5.0683,-5.0683,-5.0683,-5.0683,-5.0683,-5.0683,-5.0683,-5.0683,-5.0673,-5.0673,-5.0653,-5.0623,-5.0642,-5.0613,-5.0603,-5.0593,-5.0563,-5.0582,-5.0603,-5.0582,-5.0563,-5.0582,-5.0603,-5.0623,-5.0643,-5.0663,-5.0846,-5.7251,-5.6758,-5.5943,-5.5583,-5.5527,-5.5091,-5.4901,-5.4901,-5.4901,-5.4901,-5.4901,-5.4901,-5.4901,-5.4901,-5.4901,-5.4901,-5.4901,-5.4901,-5.4927,-5.4985,-5.5042,-5.5107,-5.517,-5.5254,-5.5286,-5.5358,-5.5326,-5.5261,-5.5203,-5.5149,-5.5085,-5.5019,-5.4971,-5.479,-5.4219,-5.3916,-5.3286,-5.2419,-5.1533,-5.087,-5.0344,-4.9755,-4.9384,-4.9146,-4.9144,-4.9318,-4.9598,-4.9884,-5.0166,-5.0421,-5.0614,-5.0683,-5.0683,-5.0683,-5.0624,-5.0523,-5.0634,-5.0594,-5.0544,-5.0595,-5.0683,-5.0683,-5.0683,-5.0683,-5.0683,-5.0683,-5.0683,-5.0683,-5.0683,-5.0683,-5.0683,-5.0683,-5.0683,-5.0683,-5.0683,-5.0683,-5.0683,-5.0683,-5.0683,-5.0683,-5.0683,-5.0683,-5.0683,-5.0683,-5.0683,-5.0683,-5.0683,-5.0683,-5.0683,-5.0683,-5.0683,-5.0683,-5.0683,-5.0683,-5.0683,-5.0683,-5.0663,-5.0643,-5.0623,-5.0593,-5.0572,-5.0551,-5.053,-5.0511,-5.0511,-5.0532,-5.0562,-5.0511,-5.0511,-5.0572,-5.0593,-5.0593,-5.0737,-5.1008,-5.1229,-5.6114,-5.5943,-5.5204,-5.4901,-5.4901,-5.4901,-5.4901,-5.4901,-5.4901,-5.5015,-5.511,-5.511,-5.5318,-5.5337,-5.5413,-5.528,-5.5148,-5.5129,-5.523,-5.4975,-5.5,-5.5052,-5.5135,-5.5135,-5.52,-5.5332,-5.5254,-5.5189,-5.5135,-5.5085,-5.5014,-5.4971,-5.4931,-5.4844,-5.4693,-5.4276,-5.3764,-5.3328,-5.2338,-5.1324,-5.076,-4.999,-4.9471,-4.8993,-4.8925,-4.911,-4.9427,-4.9698,-4.9943,-5.0214,-5.0514,-5.0663,-5.0683,-5.0673,-5.0585,-5.0325,-5.0565,-5.0575,-5.0493,-5.0554,-5.0683,-5.0683,-5.0683,-5.0683,-5.0683,-5.0683,-5.0683,-5.0683,-5.0683,-5.0683,-5.0683,-5.0683,-5.0683,-5.0683,-5.0683,-5.0683,-5.0683,-5.0683,-5.0683,-5.0683,-5.0683,-5.0683,-5.0683,-5.0683,-5.0683,-5.0683,-5.0683,-5.0683,-5.0683,-5.0683,-5.0683,-5.0683,-5.0683,-5.0683,-5.0683,-5.0472,-5.0483,-5.0534,-5.0532,-5.0489,-5.0468,-5.0478,-5.0468,-5.0478,-5.0489,-5.0489,-5.0478,-5.0427,-5.0468,-5.0551,-5.0619,-5.0636,-5.0945,-5.135,-5.1659,-5.5773,-5.511,-5.4958,-5.4901,-5.492,-5.492,-5.4977,-5.4901,-5.5034,-5.5337,-5.5925,-5.6,-5.6341,-5.6739,-5.6967,-5.6607,-5.6,-5.583,-5.5523,-5.5059,-5.4975,-5.5028,-5.5057,-5.5066,-5.5127,-5.514,-5.5107,-5.508,-5.5052,-5.5014,-5.4956,-5.4912,-5.4901,-5.4901,-5.4882,-5.4693,-5.428,-5.3834,-5.3097,-5.2205,-5.1021,-5.0263,-4.9633,-4.8982,-4.889,-4.9061,-4.9349,-4.9655,-4.9936,-5.0214,-5.0534,-5.0663,-5.0663,-5.0663,-5.0614,-5.0544,-5.0525,-5.0514,-5.0483,-5.0585,-5.0683,-5.0683,-5.0683,-5.0683,-5.0683,-5.0683,-5.0683,-5.0683,-5.0683,-5.0683,-5.0683,-5.0683,-5.0683,-5.0683,-5.0683,-5.0683,-5.0683,-5.0683,-5.0683,-5.0683,-5.0683,-5.0683,-5.0683,-5.0683,-5.0683,-5.0683,-5.0683,-5.0683,-5.0683,-5.0683,-5.0683,-5.0683,-5.0683,-5.0683,-5.0683,-5.0369,-5.0206,-5.0344,-5.0344,-5.0287,-5.0306,-5.0382,-5.0404,-5.0424,-5.0412,-5.0401,-5.0359,-5.0359,-5.0371,-5.0446,-5.0552,-5.0667,-5.1198,-5.171,-5.231,-5.528,-5.492,-5.4901,-5.5185,-5.5527,-5.5564,-5.5811,-5.6171,-5.6209,-5.6417,-5.672,-5.6834,-5.7005,-5.7327,-5.7403,-5.6967,-5.6398,-5.6209,-5.5716,-5.5087,-5.4946,-5.499,-5.4985,-5.5,-5.5028,-5.5028,-5.5014,-5.5014,-5.4985,-5.4956,-5.4927,-5.4916,-5.4901,-5.4901,-5.4901,-5.4863,-5.4629,-5.4118,-5.361,-5.268,-5.116,-5.0303,-4.9367,-4.9073,-4.889,-4.9012,-4.9141,-4.9457,-4.9707,-4.9968,-5.0291,-5.041,-5.0432,-5.0421,-5.0388,-5.0268,-5.0256,-5.0237,-5.0279,-5.0336,-5.0493,-5.0673,-5.0683,-5.0683,-5.0683,-5.0683,-5.0683,-5.0683,-5.0683,-5.0683,-5.0683,-5.0683,-5.0683,-5.0683,-5.0683,-5.0683,-5.0683,-5.0683,-5.0683,-5.0683,-5.0683,-5.0683,-5.0683,-5.0683,-5.0683,-5.0683,-5.0683,-5.0683,-5.0683,-5.0683,-5.0683,-5.0634,-5.0614,-5.0483,-5.0421,-5.0104,-4.9936,-5.0062,-5.0075,-5.0012,-5.0149,-5.024,-5.0325,-5.0348,-5.0325,-5.0325,-5.0314,-5.0325,-5.0325,-5.0337,-5.0447,-5.0711,-5.1461,-5.2107,-5.2678,-5.5015,-5.5166,-5.5148,-5.564,-5.636,-5.6436,-5.6777,-5.7308,-5.7346,-5.7441,-5.7668,-5.7668,-5.7763,-5.7914,-5.7839,-5.7441,-5.6531,-5.6493,-5.5906,-5.5053,-5.4901,-5.4931,-5.496,-5.4946,-5.4912,-5.4956,-5.4946,-5.4931,-5.496,-5.4931,-5.4901,-5.4901,-5.4901,-5.4901,-5.4901,-5.4901,-5.4757,-5.4456,-5.3984,-5.2956,-5.1493,-5.0055,-4.9039,-4.8909,-4.889,-4.8909,-4.8959,-4.9255,-4.9518,-4.9754,-4.9962,-5.0135,-5.0111,-5.0075,-4.9949,-4.9776,-4.9776,-4.9798,-4.9943,-5.0087,-5.038,-5.0663,-5.0683,-5.0683,-5.0683,-5.0683,-5.0683,-5.0683,-5.0683,-5.0683,-5.0683,-5.0683,-5.0683,-5.0683,-5.0683,-5.0683,-5.0683,-5.0683,-5.0683,-5.0683,-5.0683,-5.0683,-5.0683,-5.0683,-5.0683,-5.0683,-5.0683,-5.0683,-5.0683,-5.0683,-5.0673,-5.0585,-5.0493,-5.0272,-5.0068,-4.9779,-4.9678,-4.9752,-4.9697,-4.9613,-4.987,-5.0144,-5.02,-5.0248,-5.0325,-5.0325,-5.0314,-5.029,-5.0314,-5.0325,-5.0379,-5.0899,-5.1878,-5.2525,-5.3042,-5.5337,-5.6038,-5.6038,-5.6512,-5.7194,-5.7251,-5.7308,-5.7479,-5.7554,-5.7858,-5.8556,-5.8575,-5.8916,-5.9295,-5.939,-5.8578,-5.7592,-5.6967,-5.6209,-5.5072,-5.4901,-5.4901,-5.4897,-5.4901,-5.4901,-5.4931,-5.4901,-5.4901,-5.4916,-5.4901,-5.4901,-5.4901,-5.4901,-5.4901,-5.4901,-5.4871,-5.4773,-5.4578,-5.4322,-5.3297,-5.1617,-5.0394,-4.9596,-4.9076,-4.889,-4.889,-4.8925,-4.9176,-4.9415,-4.9488,-4.9726,-4.9844,-4.9817,-4.9617,-4.9499,-4.9529,-4.9651,-4.991,-5.0019,-5.0123,-5.0283,-5.0573,-5.0673,-5.0683,-5.0683,-5.0683,-5.0683,-5.0683,-5.0683,-5.0683,-5.0683,-5.0683,-5.0683,-5.0683,-5.0683,-5.0683,-5.0683,-5.0683,-5.0683,-5.0683,-5.0683,-5.0683,-5.0683,-5.0683,-5.0683,-5.0683,-5.0683,-5.0683,-5.0663,-5.0624,-5.0565,-5.0464,-5.0159,-4.9924,-4.9692,-4.939,-4.9363,-4.9424,-4.9363,-4.9252,-4.9599,-4.991,-5.0076,-5.0144,-5.0236,-5.0259,-5.0193,-5.0193,-5.0259,-5.0271,-5.0259,-5.1254,-5.2518,-5.2987,-5.3162,-5.6531,-5.6872,-5.6872,-5.7365,-5.8104,-5.8123,-5.8407,-5.8767,-5.8805,-5.903,-5.9333,-5.939,-5.9598,-5.9769,-5.9468,-5.8521,-5.7497,-5.6948,-5.6095,-5.5148,-5.4901,-5.4901,-5.4901,-5.4901,-5.4901,-5.4901,-5.4901,-5.4901,-5.4901,-5.4901,-5.4901,-5.4901,-5.4901,-5.4901,-5.4871,-5.4773,-5.4632,-5.4305,-5.3746,-5.2733,-5.1527,-5.0562,-4.9726,-4.8964,-4.8909,-4.889,-4.8925,-4.9012,-4.9241,-4.9352,-4.9562,-4.9573,-4.9558,-4.9457,-4.9352,-4.9144,-4.9222,-4.942,-4.9698,-4.9884,-5.0142,-5.0399,-5.0565,-5.0683,-5.0683,-5.0683,-5.0683,-5.0683,-5.0683,-5.0683,-5.0683,-5.0683,-5.0683,-5.0683,-5.0683,-5.0683,-5.0683,-5.0683,-5.0683,-5.0683,-5.0683,-5.0634,-5.0614,-5.0594,-5.0614,-5.0683,-5.0663,-5.0624,-5.0554,-5.0453,-5.038,-5.0294,-4.9911,-4.9493,-4.9237,-4.8984,-4.8969,-4.9019,-4.9048,-4.9064,-4.9409,-4.9641,-4.9803,-5.0,-5.0144,-5.0144,-5.0076,-5.0144,-5.0224,-5.02,-5.0144,-5.1161,-5.2132,-5.2376,-5.2752,-5.8009,-5.8009,-5.7801,-5.8218,-5.8976,-5.8992,-5.9317,-5.9845,-5.9845,-5.9864,-5.9921,-5.9864,-5.9788,-5.9522,-5.8919,-5.8161,-5.7062,-5.6474,-5.5716,-5.5166,-5.4901,-5.4901,-5.4901,-5.4901,-5.4901,-5.4901,-5.4901,-5.4901,-5.4901,-5.4901,-5.4901,-5.4901,-5.4901,-5.4871,-5.4791,-5.468,-5.4552,-5.4265,-5.3534,-5.2549,-5.1509,-5.0822,-4.9912,-4.9243,-4.889,-4.889,-4.889,-4.8926,-4.9077,-4.9193,-4.9257,-4.9289,-4.9273,-4.9241,-4.9144,-4.8976,-4.8993,-4.9077,-4.9334,-4.9554,-4.9857,-5.0178,-5.0464,-5.0683,-5.0683,-5.0683,-5.0683,-5.0683,-5.0683,-5.0683,-5.0683,-5.0683,-5.0683,-5.0683,-5.0683,-5.0683,-5.0673,-5.0634,-5.0634,-5.0663,-5.0614,-5.0523,-5.0483,-5.0451,-5.0513,-5.0653,-5.0653,-5.0554,-5.038,-5.0206,-5.008,-4.9949,-4.9641,-4.924,-4.9015,-4.8799,-4.8713,-4.8641,-4.8694,-4.8833,-4.9113,-4.9317,-4.9453,-4.9688,-4.9942,-4.9857,-4.9702,-4.9942,-5.0132,-4.9929,-4.9919,-5.0686,-5.1397,-5.1772,-5.2501,-5.975,-5.9674,-5.8881,-5.903,-5.9788,-5.9826,-5.9845,-5.9921,-5.9921,-5.9866,-5.9788,-5.9826,-5.9409,-5.8859,-5.8426,-5.7649,-5.6341,-5.6228,-5.5621,-5.5129,-5.4901,-5.4901,-5.4901,-5.4901,-5.4901,-5.4901,-5.4901,-5.4901,-5.4901,-5.4901,-5.4901,-5.4901,-5.4856,-5.4776,-5.468,-5.4565,-5.4368,-5.4126,-5.3684,-5.2828,-5.1899,-5.1156,-5.0488,-4.9299,-4.8927,-4.889,-4.8909,-4.9002,-4.9186,-4.9291,-4.9252,-4.9179,-4.925,-4.9084,-4.896,-4.8907,-4.889,-4.896,-4.9059,-4.9334,-4.9698,-5.0118,-5.0442,-5.0634,-5.0683,-5.0683,-5.0683,-5.0683,-5.0683,-5.0683,-5.0683,-5.0683,-5.0614,-5.0653,-5.0604,-5.0534,-5.0523,-5.0534,-5.0534,-5.0604,-5.0523,-5.0344,-5.0245,-5.0178,-5.0225,-5.0366,-5.0272,-5.0152,-4.9962,-4.9768,-4.9659,-4.9522,-4.9287,-4.905,-4.888,-4.871,-4.855,-4.8476,-4.8476,-4.8586,-4.8781,-4.8951,-4.9161,-4.9302,-4.9516,-4.9409,-4.936,-4.9546,-4.9603,-4.9439,-4.9652,-5.026,-5.1363,-5.2263,-5.2918,-5.8653,-5.9108,-5.884,-5.9181,-5.9921,-5.9921,-5.9921,-5.9921,-5.9902,-5.9598,-5.9146,-5.9143,-5.8691,-5.799,-5.7327,-5.6872,-5.6133,-5.5583,-5.5223,-5.5034,-5.4901,-5.4901,-5.4901,-5.4901,-5.4901,-5.4901,-5.4901,-5.4901,-5.4901,-5.4886,-5.4788,-5.4757,-5.4711,-5.4661,-5.4581,-5.4384,-5.4143,-5.3981,-5.3795,-5.3181,-5.2364,-5.1565,-5.0841,-4.9782,-4.9039,-4.9243,-4.9559,-4.9633,-4.9949,-5.0116,-4.9875,-4.9707,-4.9559,-4.928,-4.9057,-4.8983,-4.8983,-4.8946,-4.8942,-4.9222,-4.966,-5.0075,-5.0317,-5.0464,-5.0624,-5.0673,-5.0683,-5.0683,-5.0673,-5.0644,-5.0683,-5.0525,-5.0391,-5.0504,-5.0502,-5.0366,-5.0355,-5.0336,-5.0268,-5.0268,-5.0142,-5.0006,-4.9936,-4.9878,-4.9974,-5.005,-4.9924,-4.9754,-4.9547,-4.9371,-4.9249,-4.9142,-4.8936,-4.8782,-4.8622,-4.8477,-4.8363,-4.8343,-4.8324,-4.842,-4.8587,-4.8764,-4.8951,-4.905,-4.9097,-4.9113,-4.9113,-4.9129,-4.9129,-4.9129,-4.9276,-4.9607,-5.0934,-5.2492,-5.3217,-5.7744,-5.8274,-5.8293,-5.8938,-5.9845,-5.9921,-5.975,-5.9579,-5.9541,-5.9086,-5.8312,-5.8256,-5.7839,-5.7043,-5.655,-5.6038,-5.5697,-5.5223,-5.4996,-5.4901,-5.4901,-5.4901,-5.4901,-5.4901,-5.4901,-5.4901,-5.4901,-5.4901,-5.4901,-5.4856,-5.4742,-5.4613,-5.45,-5.4434,-5.4368,-5.4179,-5.3926,-5.3832,-5.3757,-5.3404,-5.2605,-5.2085,-5.1416,-5.0599,-5.0023,-5.0042,-5.0395,-5.0525,-5.0729,-5.0915,-5.0822,-5.0543,-5.0302,-5.0005,-4.9577,-4.9355,-4.9243,-4.9187,-4.905,-4.9222,-4.9558,-4.9844,-5.0019,-5.0225,-5.0451,-5.0493,-5.0388,-5.0702,-5.0624,-5.0575,-5.0614,-5.0453,-5.0421,-5.0544,-5.0155,-5.0012,-5.0099,-5.0123,-5.0,-4.991,-4.9776,-4.9684,-4.9612,-4.955,-4.9546,-4.9618,-4.9584,-4.9375,-4.9097,-4.8951,-4.8849,-4.8729,-4.8605,-4.8458,-4.8325,-4.8325,-4.8343,-4.8343,-4.8324,-4.8324,-4.8439,-4.8623,-4.8676,-4.8694,-4.8746,-4.8815,-4.8815,-4.8764,-4.8833,-4.8917,-4.9338,-4.9936,-5.0749,-5.2224,-5.3077,-5.7365,-5.7422,-5.7422,-5.835,-5.9674,-5.9847,-5.9393,-5.8764,-5.8691,-5.8237,-5.7497,-5.7422,-5.6986,-5.6323,-5.6019,-5.5697,-5.5223,-5.4977,-5.4901,-5.4901,-5.4901,-5.4901,-5.4901,-5.4901,-5.4901,-5.4901,-5.4901,-5.4901,-5.4901,-5.4742,-5.4629,-5.4503,-5.4318,-5.4126,-5.4109,-5.3926,-5.3794,-5.3813,-5.3813,-5.3348,-5.2884,-5.2549,-5.1955,-5.1509,-5.1045,-5.0989,-5.1286,-5.1361,-5.1546,-5.1732,-5.1565,-5.1361,-5.1286,-5.1156,-5.0711,-5.0153,-5.0098,-4.9726,-4.9075,-4.93,-4.9471,-4.9548,-4.9721,-4.9936,-5.0087,-5.0087,-5.013,-5.0493,-5.0399,-5.041,-5.0421,-5.0399,-5.0388,-5.0291,-4.991,-4.9721,-4.9784,-4.9738,-4.9589,-4.9521,-4.9469,-4.938,-4.9305,-4.9225,-4.912,-4.9134,-4.9198,-4.9019,-4.8748,-4.8605,-4.855,-4.8514,-4.842,-4.8382,-4.8306,-4.8306,-4.8324,-4.8324,-4.8324,-4.8324,-4.8324,-4.842,-4.842,-4.8363,-4.8439,-4.8568,-4.8458,-4.8344,-4.8495,-4.8789,-4.997,-5.0718,-5.1323,-5.1971,-5.2937,-5.6076,-5.6607,-5.6607,-5.7232,-5.818,-5.8237,-5.8066,-5.7858,-5.7782,-5.7365,-5.672,-5.6588,-5.6114,-5.5564,-5.5375,-5.5223,-5.4996,-5.4901,-5.4901,-5.4901,-5.4901,-5.4901,-5.4901,-5.4901,-5.4901,-5.4901,-5.4901,-5.4901,-5.4901,-5.468,-5.4552,-5.4405,-5.4127,-5.3945,-5.3907,-5.3832,-5.3813,-5.3813,-5.3775,-5.3627,-5.3348,-5.2902,-5.2494,-5.2178,-5.1769,-5.1751,-5.2141,-5.2178,-5.2382,-5.2642,-5.2494,-5.2197,-5.2085,-5.1918,-5.1361,-5.0989,-5.0933,-5.0562,-4.9986,-4.9864,-4.9718,-4.9615,-4.9488,-4.9655,-4.987,-4.9851,-5.0038,-5.0202,-5.0087,-5.0142,-5.0237,-4.9884,-4.9809,-4.9857,-4.9622,-4.9435,-4.9389,-4.9268,-4.9141,-4.9125,-4.9077,-4.9094,-4.9062,-4.8976,-4.8906,-4.8818,-4.8869,-4.8818,-4.8587,-4.8476,-4.8401,-4.8382,-4.8325,-4.8343,-4.8324,-4.8324,-4.8324,-4.8324,-4.8324,-4.8324,-4.8324,-4.8324,-4.8324,-4.8325,-4.8325,-4.8324,-4.8324,-4.8324,-4.8324,-4.8766,-4.9829,-5.0637,-5.1042,-5.1914,-5.3101,-5.5223,-5.5716,-5.5735,-5.6038,-5.6588,-5.7137,-5.727,-5.6967,-5.6683,-5.6228,-5.5811,-5.5735,-5.547,-5.5034,-5.4901,-5.4901,-5.4901,-5.4901,-5.4901,-5.4901,-5.4901,-5.4901,-5.4901,-5.4901,-5.4901,-5.4901,-5.4886,-5.4886,-5.4776,-5.4616,-5.4386,-5.4163,-5.3945,-5.387,-5.3832,-5.3813,-5.3813,-5.3813,-5.3794,-5.3794,-5.359,-5.3348,-5.307,-5.2902,-5.2679,-5.2512,-5.2865,-5.3107,-5.3237,-5.3497,-5.3367,-5.2995,-5.281,-5.2587,-5.2085,-5.1936,-5.1454,-5.1138,-5.0711,-5.0598,-5.0348,-4.9755,-4.9449,-4.938,-4.9554,-4.9491,-4.9702,-4.9844,-4.9776,-4.987,-4.9923,-4.9529,-4.9484,-4.9535,-4.9404,-4.9222,-4.9222,-4.9127,-4.8959,-4.8907,-4.8909,-4.8891,-4.8856,-4.8786,-4.8714,-4.8642,-4.8569,-4.8513,-4.8438,-4.8382,-4.8324,-4.8324,-4.8324,-4.8324,-4.8324,-4.8324,-4.8324,-4.8324,-4.8324,-4.8324,-4.8324,-4.8324,-4.8324,-4.8324,-4.8324,-4.8324,-4.8324,-4.8324,-4.8324,-4.8655,-4.9426,-5.0123,-5.0674,-5.1838,-5.3118,-5.4886,-5.4886,-5.4901,-5.4958,-5.5204,-5.655,-5.6796,-5.6095,-5.5318,-5.4977,-5.4958,-5.5015,-5.4977,-5.4939,-5.4901,-5.4901,-5.4901,-5.4901,-5.4901,-5.4901,-5.4901,-5.4901,-5.4901,-5.4901,-5.4901,-5.4901,-5.4871,-5.4742,-5.4597,-5.4437,-5.418,-5.3945,-5.3851,-5.3813,-5.3813,-5.3813,-5.3813,-5.3813,-5.3813,-5.3813,-5.372,-5.372,-5.359,-5.3515,-5.346,-5.3441,-5.359,-5.3645,-5.3701,-5.3775,-5.3738,-5.3738,-5.3757,-5.3794,-5.3274,-5.2698,-5.1955,-5.1732,-5.1472,-5.1435,-5.0971,-5.0315,-4.9517,-4.9316,-4.9206,-4.9204,-4.9389,-4.9539,-4.9554,-4.9641,-4.967,-4.9525,-4.9408,-4.9296,-4.9171,-4.9158,-4.9241,-4.9144,-4.8959,-4.8909,-4.8891,-4.8875,-4.8804,-4.8733,-4.8587,-4.855,-4.8495,-4.8438,-4.8382,-4.8363,-4.8324,-4.8324,-4.8324,-4.8324,-4.8324,-4.8324,-4.8324,-4.8324,-4.8324,-4.8324,-4.8324,-4.8324,-4.8324,-4.8324,-4.8324,-4.8324,-4.8324,-4.8324,-4.8324,-4.8765,-4.9242,-4.9976,-5.0637,-5.1836,-5.2966,-5.4676,-5.4692,-5.4837,-5.4901,-5.4977,-5.5432,-5.5489,-5.5242,-5.4977,-5.4901,-5.4901,-5.4901,-5.4901,-5.4901,-5.4901,-5.4901,-5.4901,-5.4901,-5.4901,-5.4901,-5.4901,-5.4901,-5.4901,-5.4901,-5.4901,-5.4837,-5.4757,-5.4645,-5.4533,-5.4354,-5.4073,-5.3851,-5.3813,-5.3813,-5.3813,-5.3813,-5.3813,-5.3813,-5.3813,-5.3813,-5.3813,-5.3813,-5.3813,-5.3813,-5.3813,-5.3813,-5.3813,-5.3813,-5.3813,-5.3813,-5.3813,-5.3813,-5.3813,-5.3813,-5.3571,-5.3534,-5.3181,-5.294,-5.2401,-5.2252,-5.1899,-5.1063,-5.0246,-4.9483,-4.9218,-4.9064,-4.9146,-4.9255,-4.9283,-4.9312,-4.9374,-4.9315,-4.9204,-4.9108,-4.8991,-4.9025,-4.911,-4.9061,-4.889,-4.8874,-4.8875,-4.8787,-4.8733,-4.8624,-4.8495,-4.8476,-4.8438,-4.8363,-4.8324,-4.8324,-4.8324,-4.8324,-4.8324,-4.8324,-4.8324,-4.8324,-4.8324,-4.8324,-4.8324,-4.8324,-4.8324,-4.8324,-4.8324,-4.8324,-4.8324,-4.8324,-4.8324,-4.8324,-4.8324,-4.8545,-4.9022,-4.9829,-5.0692,-5.1818,-5.2778,-5.4519,-5.4536,-5.4714,-5.4822,-5.4901,-5.4901,-5.4901,-5.4901,-5.4901,-5.4901,-5.4901,-5.4901,-5.4901,-5.4901,-5.4901,-5.4901,-5.4901,-5.4901,-5.4901,-5.4901,-5.4901,-5.4901,-5.4901,-5.4886,-5.4837,-5.4757,-5.4664,-5.4533,-5.4403,-5.4162,-5.3907,-5.3832,-5.3813,-5.3813,-5.3813,-5.3813,-5.3813,-5.3813,-5.3813,-5.3813,-5.3813,-5.3813,-5.3813,-5.3813,-5.3813,-5.3813,-5.3813,-5.3813,-5.3813,-5.3813,-5.3813,-5.3813,-5.3813,-5.3813,-5.3813,-5.3757,-5.3683,-5.346,-5.3162,-5.3088,-5.2605,-5.1918,-5.1101,-5.0283,-4.9559,-4.9221,-4.9157,-4.9127,-4.9027,-4.8959,-4.901,-4.9044,-4.8976,-4.889,-4.889,-4.889,-4.889,-4.8907,-4.8874,-4.8839,-4.8787,-4.8697,-4.8606,-4.8494,-4.8401,-4.8382,-4.8382,-4.8343,-4.8324,-4.8324,-4.8324,-4.8324,-4.8324,-4.8324,-4.8324,-4.8324,-4.8324,-4.8324,-4.8324,-4.8324,-4.8324,-4.8324,-4.8324,-4.8324,-4.8324,-4.8324,-4.8324,-4.8324,-4.8361,-4.8563,-4.882,-4.9517,-5.0417,-5.152,-5.2426,-5.4373,-5.439,-5.4536,-5.468,-5.4837,-5.4856,-5.4871,-5.4886,-5.4886,-5.4901,-5.4901,-5.4901,-5.4901,-5.4901,-5.4901,-5.4901,-5.4901,-5.4901,-5.4901,-5.4901,-5.4901,-5.4901,-5.4886,-5.4852,-5.4757,-5.4645,-5.4517,-5.4352,-5.409,-5.3926,-5.3851,-5.3813,-5.3813,-5.3813,-5.3813,-5.3813,-5.3813,-5.3813,-5.3813,-5.3813,-5.3813,-5.3813,-5.3813,-5.3813,-5.3813,-5.3813,-5.3813,-5.3813,-5.3813,-5.3813,-5.3813,-5.3813,-5.3813,-5.3813,-5.3813,-5.3813,-5.3813,-5.3757,-5.3645,-5.359,-5.3311,-5.2679,-5.1955,-5.1119,-5.0376,-4.9317,-4.905,-4.8993,-4.8925,-4.8907,-4.8959,-4.8959,-4.8907,-4.889,-4.889,-4.889,-4.889,-4.8891,-4.8857,-4.8787,-4.8679,-4.8587,-4.855,-4.8438,-4.8363,-4.8325,-4.8306,-4.8324,-4.8324,-4.8324,-4.8324,-4.8324,-4.8324,-4.8324,-4.8324,-4.8324,-4.8324,-4.8324,-4.8324,-4.8324,-4.8324,-4.8324,-4.8324,-4.8324,-4.8324,-4.8324,-4.8324,-4.8324,-4.8324,-4.8361,-4.8691,-4.9224,-5.0141,-5.1261,-5.2181,-5.4181,-5.418,-5.4371,-5.4491,-5.4541,-5.4632,-5.468,-5.4676,-5.4837,-5.4901,-5.4901,-5.4901,-5.4901,-5.4901,-5.4901,-5.4901,-5.4901,-5.4901,-5.4901,-5.4886,-5.4886,-5.4856,-5.4856,-5.4742,-5.4645,-5.4533,-5.4386,-5.4145,-5.3944,-5.3832,-5.3813,-5.3813,-5.3813,-5.3813,-5.3813,-5.3813,-5.3813,-5.3813,-5.3813,-5.3813,-5.3813,-5.3813,-5.3813,-5.3813,-5.3813,-5.3813,-5.3813,-5.3813,-5.3813,-5.3813,-5.3813,-5.3813,-5.3813,-5.3813,-5.3813,-5.3813,-5.3813,-5.3813,-5.3813,-5.3813,-5.3608,-5.3348,-5.2717,-5.1936,-5.0971,-4.967,-4.8946,-4.8927,-4.889,-4.889,-4.889,-4.889,-4.889,-4.889,-4.889,-4.889,-4.889,-4.8856,-4.8822,-4.8715,-4.8587,-4.8513,-4.8457,-4.8419,-4.8343,-4.8324,-4.8324,-4.8324,-4.8324,-4.8324,-4.8324,-4.8324,-4.8324,-4.8324,-4.8324,-4.8324,-4.8324,-4.8324,-4.8324,-4.8324,-4.8324,-4.8324,-4.8324,-4.8324,-4.8324,-4.8324,-4.8324,-4.8324,-4.8324,-4.8324,-4.8526,-4.904,-4.9958,-5.1041,-5.1958,-5.3963,-5.3981,-5.418,-5.4321,-5.4407,-5.447,-5.4533,-5.4613,-5.4726,-5.4822,-5.4886,-5.4901,-5.4901,-5.4901,-5.4901,-5.4886,-5.4886,-5.4901,-5.4822,-5.4791,-5.4807,-5.4761,-5.468,-5.4597,-5.4468,-5.4351,-5.4126,-5.3907,-5.3832,-5.3813,-5.3813,-5.3813,-5.3813,-5.3813,-5.3813,-5.3813,-5.3813,-5.3813,-5.3813,-5.3813,-5.3813,-5.3813,-5.3813,-5.3813,-5.3813,-5.3813,-5.3813,-5.3813,-5.3813,-5.3813,-5.3813,-5.3813,-5.3813,-5.3813,-5.3813,-5.3813,-5.3813,-5.3813,-5.3813,-5.3813,-5.3813,-5.3571,-5.3088,-5.2178,-5.1342,-5.0098,-4.9262,-4.9169,-4.8927,-4.889,-4.889,-4.889,-4.889,-4.889,-4.889,-4.889,-4.8838,-4.8786,-4.875,-4.8678,-4.8532,-4.8401,-4.8363,-4.8363,-4.8324,-4.8324,-4.8324,-4.8324,-4.8324,-4.8324,-4.8324,-4.8324,-4.8324,-4.8324,-4.8324,-4.8324,-4.8324,-4.8324,-4.8324,-4.8324,-4.8324,-4.8324,-4.8324,-4.8324,-4.8324,-4.8324,-4.8324,-4.8324,-4.8324,-4.8324,-4.8545,-4.8838,-4.9866,-5.0894,-5.1775,-5.3497,-5.3664,-5.3814,-5.407,-5.4321,-5.4356,-5.4422,-5.4517,-5.4584,-5.468,-5.4822,-5.4837,-5.4871,-5.4901,-5.4901,-5.4886,-5.4856,-5.4807,-5.4726,-5.4648,-5.473,-5.4635,-5.4538,-5.4453,-5.4301,-5.4126,-5.3926,-5.3851,-5.3813,-5.3813,-5.3813,-5.3813,-5.3813,-5.3813,-5.3813,-5.3813,-5.3813,-5.3813,-5.3813,-5.3793,-5.3793,-5.3793,-5.3813,-5.3813,-5.3813,-5.3813,-5.3813,-5.3813,-5.3813,-5.3774,-5.3774,-5.3793,-5.3813,-5.3813,-5.3813,-5.3813,-5.3813,-5.3813,-5.3813,-5.3813,-5.3813,-5.3627,-5.3032,-5.2401,-5.1602,-5.0785,-4.993,-4.9355,-4.9132,-4.889,-4.889,-4.889,-4.889,-4.889,-4.889,-4.8891,-4.8821,-4.8732,-4.866,-4.8605,-4.8476,-4.8325,-4.8306,-4.8324,-4.8324,-4.8324,-4.8324,-4.8324,-4.8324,-4.8324,-4.8324,-4.8324,-4.8324,-4.8324,-4.8324,-4.8324,-4.8324,-4.8324,-4.8324,-4.8324,-4.8324,-4.8324,-4.8324,-4.8324,-4.8324,-4.8324,-4.8324,-4.8324,-4.8324,-4.8324,-4.8434,-4.8802,-5.005,-5.1022,-5.1701,-5.2252,-5.2847,-5.2865,-5.3274,-5.3851,-5.4072,-5.4162,-5.4214,-5.4315,-5.4522,-5.4497,-5.4623,-5.4745,-5.4867,-5.4901,-5.4841,-5.4664,-5.4645,-5.4568,-5.4472,-5.4522,-5.4474,-5.4373,-5.4232,-5.4073,-5.3926,-5.3832,-5.3832,-5.3813,-5.3813,-5.3813,-5.3813,-5.3813,-5.3813,-5.3813,-5.3813,-5.3813,-5.3813,-5.3793,-5.3793,-5.3735,-5.3754,-5.3813,-5.3813,-5.3813,-5.3813,-5.3813,-5.3813,-5.3774,-5.3735,-5.3696,-5.3735,-5.3755,-5.3774,-5.3774,-5.3774,-5.3793,-5.3793,-5.3774,-5.3793,-5.3774,-5.3737,-5.3273,-5.3032,-5.2234,-5.1472,-5.0618,-4.9783,-4.943,-4.8983,-4.889,-4.889,-4.889,-4.8891,-4.8891,-4.8856,-4.8822,-4.8697,-4.8587,-4.8513,-4.842,-4.8343,-4.8324,-4.8324,-4.8324,-4.8324,-4.8324,-4.8324,-4.8324,-4.8324,-4.8324,-4.8324,-4.8324,-4.8324,-4.8324,-4.8324,-4.8324,-4.8324,-4.8324,-4.8324,-4.8324,-4.8324,-4.8324,-4.8324,-4.8324,-4.8324,-4.8324,-4.8324,-4.8324,-4.8324,-4.8324,-4.8765,-5.0086,-5.1041,-5.1665]},{"header":{"parameterUnit":"m.s-1","parameterCategory":1,"la1":31.0,"la2":29.5877,"lo1":-88.7671,"lo2":-86.6584,"dy":0.0162,"dx":0.0185,"nx":115,"ny":88,"refTime":"2024-04-13T18:00:00:Z","depth":0,"parameterNumber":3,"parameterNumberName":"V-component_of_WINDS"},"data":[0.0,0.0,0.0,0.0,0.0,0.0,0.0,0.0,0.0,0.0,0.0,0.0,0.0,0.0,0.0,0.0,0.0,0.0,0.0,0.0,0.0,0.0,0.0,0.0,0.0,0.0,0.0,0.0,0.0,0.0,0.0,0.0,0.0,0.0,0.0,0.0,0.0,0.0,0.0,0.0,0.0,0.0,0.0,0.0,0.0,0.0,0.0,0.0,0.0,0.0,0.0,0.0,0.0,0.0,0.0,0.0,0.0,0.0,0.0,0.0,0.0,0.0,0.0,0.0,0.0,0.0,0.0,0.0,0.0,0.0,0.0,0.0,0.0,0.0,0.0,0.0,0.0,0.0,0.0,0.0,0.0,0.0,0.0,0.0,0.0,0.0,0.0,0.0,0.0,0.0,0.0,0.0,0.0,0.0,0.0,0.0,0.0,0.0,0.0,0.0,0.0,0.0,0.0,0.0,0.0,0.0,0.0,0.0,0.0,0.0,0.0,0.0,0.0,0.0,0.0,0.0,0.0,0.0,0.0,0.0,0.0,0.0,0.0,0.0,0.0,0.0,0.0,0.0,0.0,0.0,0.0,0.0,0.0,0.0,0.0,0.0,0.0,0.0,0.0,0.0,0.0,0.0,0.0,0.0,0.0,0.0,0.0,0.0,0.0,0.0,0.0,0.0,0.0,0.0,0.0,0.0,0.0,0.0,0.0,0.0,0.0,0.0,0.0,0.0,0.0,0.0,0.0,0.0,0.0,0.0,0.0,0.0,0.0,0.0,0.0,0.0,0.0,0.0,0.0,0.0,0.0,0.0,0.0,0.0,0.0,0.0,0.0,0.0,0.0,0.0,0.0,0.0,0.0,0.0,0.0,0.0,0.0,0.0,0.0,0.0,0.0,0.0,0.0,0.0,0.0,0.0,0.0,0.0,0.0,0.0,0.0,0.0,0.0,0.0,0.0,0.0,0.0,0.0,0.0,0.0,0.0,0.0,0.0,0.0,0.0,0.0,0.0,0.0,0.0,0.0,0.0,0.0,0.0,0.0,0.0,0.0,0.0,0.0,0.0,0.0,0.0,0.0,0.0,0.0,0.0,0.0,0.0,0.0,0.0,0.0,0.0,0.0,0.0,0.0,0.0,0.0,0.0,0.0,0.0,0.0,0.0,0.0,0.0,0.0,0.0,0.0,0.0,0.0,0.0,0.0,0.0,0.0,0.0,0.0,0.0,0.0,0.0,0.0,0.0,0.0,0.0,0.0,0.0,0.0,0.0,0.0,0.0,0.0,0.0,0.0,0.0,0.0,0.0,0.0,0.0,0.0,0.0,0.0,0.0,0.0,0.0,0.0,0.0,0.0,0.0,0.0,0.0,0.0,0.0,0.0,0.0,0.0,0.0,0.0,0.0,0.0,0.0,0.0,0.0,0.0,0.0,0.0,0.0,0.0,0.0,0.0,0.0,0.0,0.0,0.0,0.0,0.0,0.0,0.0,0.0,0.0,0.0,0.0,0.0,0.0,0.0,0.0,0.0,0.0,0.0,0.0,0.0,0.0,0.0,0.0,0.0,0.0,0.0,0.0,0.0,0.0,0.0,0.0,0.0,0.0,0.0,0.0,0.0,0.0,0.0,0.0,0.0,0.0,0.0,0.0,0.0,0.0,0.0,0.0,0.0,0.0,0.0,0.0,0.0,0.0,0.0,0.0,0.0,0.0,0.0,0.0,0.0,0.0,0.0,0.0,0.0,0.0,0.0,0.0,0.0,0.0,0.0,0.0,0.0,0.0,0.0,0.0,0.0,0.0,0.0,0.0,0.0,0.0,0.0,0.0,0.0,0.0,0.0,0.0,0.0,0.0,0.0,0.0,0.0,0.0,0.0,0.0,0.0,0.0,0.0,0.0,0.0,0.0,0.0,0.0,0.0,0.0,0.0,0.0,0.0,0.0,0.0,0.0,0.0,0.0,0.0,0.0,0.0,0.0,0.0,0.0,0.0,0.0,0.0,0.0,0.0,0.0,0.0,0.0,0.0,0.0,0.0,0.0,0.0,0.0,0.0,0.0,0.0,0.0,0.0,0.0,0.0,0.0,0.0,0.0,0.0,0.0,0.0,0.0,0.0,0.0,0.0,0.0,0.0,0.0,0.0,0.0,0.0,0.0,0.0,0.0,0.0,0.0,0.0,0.0,0.0,0.0,0.0,0.0,0.0,0.0,0.0,0.0,0.0,0.0,0.0,0.0,0.0,0.0,0.0,0.0,0.0,0.0,0.0,0.0,0.0,0.0,0.0,0.0,0.0,0.0,0.0,0.0,0.0,0.0,0.0,0.0,0.0,0.0,0.0,0.0,0.0,0.0,0.0,0.0,0.0,0.0,0.0,0.0,0.0,0.0,0.0,0.0,0.0,0.0,0.0,0.0,0.0,0.0,0.0,0.0,0.0,0.0,0.0,0.0,0.0,0.0,0.0,0.0,0.0,0.0,0.0,0.0,0.0,0.0,0.0,0.0,0.0,0.0,0.0,0.0,0.0,0.0,0.0,0.0,0.0,0.0,0.0,0.0,0.0,0.0,0.0,0.0,0.0,0.0,0.0,0.0,0.0,0.0,0.0,0.0,0.0,0.0,0.0,0.0,0.0,0.0,0.0,0.0,0.0,0.0,0.0,0.0,0.0,0.0,0.0,0.0,0.0,0.0,0.0,0.0,0.0,0.0,0.0,0.0,0.0,0.0,0.0,0.0,0.0,0.0,0.0,0.0,0.0,0.0,0.0,0.0,0.0,0.0,0.0,0.0,0.0,0.0,0.0,0.0,0.0,0.0,0.0,0.0,0.0,0.0,0.0,0.0,0.0,0.0,0.0,0.0,0.0,0.0,0.0,0.0,0.0,0.0,0.0,0.0,0.0,0.0,0.0,0.0,0.0,0.0,0.0,0.0,0.0,0.0,0.0,0.0,0.0,0.0,0.0,0.0,0.0,0.0,0.0,0.0,0.0,0.0,0.0,0.0,0.0,0.0,0.0,0.0,0.0,0.0,0.0,0.0,0.0,0.0,0.0,0.0,0.0,0.0,0.0,0.0,0.0,0.0,0.0,0.0,0.0,0.0,0.0,0.0,0.0,0.0,0.0,0.0,0.0,0.0,0.0,0.0,0.0,0.0,0.0,0.0,0.0,0.0,0.0,0.0,0.0,0.0,0.0,0.0,0.0,0.0,0.0,0.0,0.0,0.0,0.0,0.0,0.0,0.0,0.0,0.0,0.0,0.0,0.0,0.0,0.0,0.0,0.0,0.0,0.0,0.0,0.0,0.0,0.0,0.0,0.0,0.0,0.0,0.0,0.0,0.0,0.0,0.0,0.0,0.0,0.0,0.0,0.0,0.0,0.0,0.0,0.0,0.0,0.0,0.0,0.0,0.0,0.0,0.0,0.0,0.0,0.0,0.0,0.0,0.0,0.0,0.0,0.0,0.0,0.0,0.0,0.0,0.0,0.0,0.0,0.0,0.0,0.0,0.0,0.0,0.0,0.0,0.0,0.0,0.0,0.0,0.0,0.0,0.0,0.0,0.0,0.0,0.0,0.0,0.0,0.0,0.0,0.0,0.0,0.0,0.0,0.0,0.0,0.0,0.0,0.0,0.0,0.0,0.0,0.0,0.0,0.0,0.0,0.0,0.0,0.0,0.0,0.0,0.0,0.0,0.0,0.0,0.0,0.0,0.0,0.0,0.0,0.0,0.0,0.0,0.0,0.0,0.0,0.0,0.0,0.0,0.0,0.0,0.0,0.0,0.0,0.0,0.0,0.0,0.0,0.0,0.0,0.0,0.0,0.0,0.0,0.0,0.0,0.0,0.0,0.0,0.0,0.0,0.0,0.0,0.0,0.0,0.0,0.0,0.0,0.0,0.0,0.0,0.0,0.0,0.0,0.0,0.0,0.0,0.0,0.0,0.0,0.0,0.0,0.0,0.0,0.0,0.0,0.0,0.0,0.0,0.0,0.0,0.0,0.0,0.0,0.0,0.0,0.0,0.0,0.0,0.0,0.0,0.0,0.0,0.0,0.0,0.0,0.0,0.0,0.0,0.0,0.0,0.0,0.0,0.0,0.0,0.0,0.0,0.0,0.0,0.0,0.0,0.0,0.0,0.0,0.0,0.0,0.0,0.0,0.0,0.0,0.0,0.0,0.0,0.0,0.0,0.0,0.0,0.0,0.0,0.0,0.0,0.0,0.0,0.0,0.0,0.0,0.0,0.0,0.0,0.0,0.0,0.0,0.0,0.0,0.0,0.0,0.0,0.0,0.0,0.0,0.0,0.0,0.0,0.0,0.0,0.0,0.0,0.0,0.0,0.0,0.0,0.0,0.0,0.0,0.0,0.0,0.0,0.0,0.0,0.0,0.0,0.0,0.0,0.0,0.0,0.0,0.0,0.0,0.0,0.0,0.0,0.0,0.0,0.0,0.0,0.0,0.0,0.0,0.0,0.0,0.0,0.0,0.0,0.0,0.0,0.0,0.0,0.0,0.0,0.0,0.0,0.0,0.0,0.0,0.0,0.0,0.0,0.0,0.0,0.0,0.0,0.0,0.0,0.0,0.0,0.0,0.0,0.0,0.0,0.0,0.0,0.0,0.0,0.0,0.0,0.0,0.0,0.0,0.0,0.0,0.0,0.0,0.0,0.0,0.0,0.0,0.0,0.0,0.0,0.0,0.0,0.0,0.0,0.0,0.0,0.0,0.0,0.0,0.0,0.0,0.0,0.0,0.0,0.0,0.0,0.0,0.0,0.0,0.0,0.0,0.0,0.0,0.0,0.0,0.0,0.0,0.0,0.0,0.0,0.0,0.0,0.0,0.0,0.0,0.0,0.0,0.0,0.0,0.0,0.0,0.0,0.0,0.0,0.0,0.0,0.0,0.0,0.0,0.0,0.0,0.0,0.0,0.0,0.0,0.0,0.0,0.0,0.0,0.0,0.0,0.0,0.0,0.0,0.0,0.0,0.0,0.0,0.0,0.0,0.0,0.0,0.0,0.0,0.0,0.0,0.0,0.0,0.0,0.0,0.0,0.0,0.0,0.0,0.0,0.0,0.0,0.0,0.0,0.0,0.0,0.0,0.0,0.0,0.0,0.0,0.0,0.0,0.0,0.0,0.0,0.0,0.0,0.0,0.0,0.0,0.0,0.0,0.0,0.0,0.0,0.0,0.0,0.0,0.0,0.0,0.0,0.0,0.0,0.0,0.0,0.0,0.0,0.0,0.0,0.0,0.0,0.0,0.0,0.0,0.0,0.0,0.0,0.0,0.0,0.0,0.0,0.0,0.0,0.0,0.0,0.0,0.0,0.0,0.0,0.0,0.0,0.0,0.0,0.0,0.0,0.0,0.0,0.0,0.0,0.0,0.0,0.0,0.0,0.0,0.0,0.0,0.0,0.0,0.0,0.0,0.0,0.0,0.0,0.0,0.0,0.0,0.0,0.0,0.0,0.0,0.0,0.0,0.0,0.0,0.0,0.0,0.0,0.0,0.0,0.0,0.0,0.0,0.0,0.0,0.0,0.0,0.0,0.0,0.0,0.0,0.0,0.0,0.0,0.0,0.0,0.0,0.0,0.0,0.0,0.0,0.0,0.0,0.0,0.0,0.0,0.0,0.0,0.0,0.0,0.0,0.0,0.0,0.0,0.0,0.0,0.0,0.0,0.0,0.0,0.0,0.0,0.0,0.0,0.0,0.0,0.0,0.0,0.0,0.0,0.0,0.0,0.0,0.0,0.0,0.0,0.0,0.0,0.0,0.0,0.0,0.0,0.0,0.0,0.0,0.0,0.0,0.0,0.0,0.0,0.0,0.0,0.0,0.0,0.0,0.0,0.0,0.0,0.0,0.0,0.0,0.0,0.0,0.0,0.0,0.0,0.0,0.0,0.0,0.0,0.0,0.0,0.0,0.0,0.0,0.0,0.0,0.0,0.0,0.0,0.0,0.0,0.0,0.0,0.0,0.0,0.0,0.0,0.0,0.0,0.0,0.0,0.0,0.0,0.0,0.0,0.0,0.0,0.0,0.0,0.0,0.0,0.0,0.0,0.0,0.0,0.0,0.0,0.0,0.0,0.0,0.0,0.0,0.0,0.0,0.0,0.0,0.0,0.0,0.0,0.0,0.0,0.0,0.0,0.0,0.0,0.0,0.0,0.0,0.0,0.0,0.0,0.0,0.0,0.0,0.0,0.0,0.0,0.0,0.0,0.0,0.0,0.0,0.0,0.0,0.0,0.0,0.0,0.0,0.0,0.0,0.0,0.0,0.0,0.0,0.0,0.0,0.0,0.0,0.0,0.0,0.0,0.0,0.0,0.0,0.0,0.0,0.0,0.0,0.0,0.0,0.0,0.0,0.0,0.0,0.0,0.0,0.0,0.0,0.0,0.0,0.0,0.0,0.0,0.0,0.0,0.0,0.0,0.0,0.0,0.0,0.0,0.0,0.0,0.0,0.0,0.0,0.0,0.0,0.0,0.0,0.0,0.0,0.0,0.0,0.0,0.0,0.0,0.0,0.0,0.0,0.0,0.0,0.0,0.0,0.0,0.0,0.0,0.0,0.0,0.0,0.0,0.0,0.0,0.0,0.0,0.0,0.0,0.0,0.0,0.0,0.0,0.0,0.0,0.0,0.0,0.0,0.0,0.0,0.0,0.0,0.0,0.0,0.0,0.0,0.0,0.0,0.0,0.0,0.0,0.0,0.0,0.0,0.0,0.0,0.0,0.0,0.0,0.0,0.0,0.0,0.0,0.0,0.0,0.0,0.0,0.0,0.0,0.0,0.0,0.0,0.0,0.0,0.0,0.0,0.0,0.0,0.0,0.0,0.0,0.0,0.0,0.0,0.0,0.0,0.0,0.0,0.0,0.0,0.0,0.0,0.0,0.0,0.0,0.0,0.0,0.0,0.0,0.0,0.0,0.0,0.0,0.0,0.0,0.0,0.0,0.0,0.0,0.0,0.0,0.0,0.0,0.0,0.0,0.0,0.0,0.0,0.0,0.0,0.0,0.0,0.0,0.0,0.0,0.0,0.0,0.0,0.0,0.0,0.0,0.0,0.0,0.0,0.0,0.0,0.0,0.0,0.0,0.0,0.0,0.0,0.0,0.0,0.0,0.0,0.0,0.0,0.0,0.0,0.0,0.0,0.0,0.0,0.0,0.0,0.0,0.0,0.0,0.0,0.0,0.0,0.0,0.0,0.0,0.0,0.0,0.0,0.0,0.0,0.0,0.0,0.0,0.0,0.0,0.0,0.0,0.0,0.0,0.0,0.0,0.0,0.0,0.0,0.0,0.0,0.0,0.0,0.0,0.0,0.0,0.0,0.0,0.0,0.0,0.0,0.0,0.0,0.0,0.0,0.0,0.0,0.0,0.0,0.0,0.0,0.0,0.0,0.0,0.0,0.0,0.0,0.0,0.0,0.0,0.0,0.0,0.0,0.0,0.0,0.0,0.0,0.0,0.0,0.0,0.0,0.0,0.0,0.0,0.0,0.0,0.0,0.0,0.0,0.0,0.0,0.0,0.0,0.0,0.0,0.0,0.0,0.0,0.0,0.0,0.0,0.0,0.0,0.0,0.0,0.0,0.0,0.0,0.0,0.0,0.0,0.0,0.0,0.0,0.0,0.0,0.0,0.0,0.0,0.0,0.0,0.0,0.0,0.0,0.0,0.0,0.0,0.0,0.0,0.0,0.0,0.0,0.0,0.0,0.0,0.0,0.0,0.0,0.0,0.0,0.0,0.0,0.0,0.0,0.0,0.0,0.0,0.0,0.0,0.0,0.0,0.0,0.0,0.0,0.0,0.0,0.0,0.0,0.0,0.0,0.0,0.0,0.0686,0.1372,0.1996,0.1401,0.1017,0.0,0.0,0.0,0.0,0.0,0.0,0.0,0.0,0.0,0.0,0.0,0.0,0.0,0.0,0.0,0.0,0.0,0.0,0.0,0.0,0.0,0.0,0.0,0.0,0.0,0.0,0.0,0.0,0.0,0.0,0.0,0.0,0.0,0.0,0.0,0.0,0.0,0.0,0.0,0.0,0.0,0.0,0.0,0.0,0.0,0.0,0.0,0.0,0.0,0.0,0.0,0.0,0.0,0.0,0.0,0.0,0.0,0.0,0.0,0.0,0.0,0.0,0.0,0.0,0.0,0.0,0.0,0.0,0.0,0.0,0.0,0.0,0.0,0.0,0.0,0.0,0.0,0.0,0.0,0.0,0.0,0.0,0.0,0.0,0.0,0.0,0.0,0.0,0.0,0.0,0.0,0.0,0.0,0.0,0.0,0.0,0.0,0.0,0.0,0.0,0.0,0.0,0.0,0.0,0.0,0.0,0.0,0.0,0.0,0.056,0.0,0.244,0.3047,0.2442,0.2036,0.0,0.0,0.0,0.0,0.0,0.0,0.0,0.0,0.0,0.0,0.0,0.0,0.0,0.0,0.0,0.0,0.0,0.0,0.0,0.0,0.0,0.0,0.0,0.0,0.0,0.0,0.0,0.0,0.0,0.0,0.0,0.0,0.0,0.0,0.0,0.0,0.0,0.0,0.0,0.0,0.0,0.0,0.0,0.0,0.0,0.0,0.0,0.0,0.0,0.0,0.0,0.0,0.0,0.0,0.0,0.0,0.0,0.0,0.0,0.0,0.0,0.0,0.0,0.0,0.0,0.0,0.0,0.0,0.0,0.0,0.0,0.0,0.0,0.0,0.0,0.0,0.0,0.0,0.0,0.0,0.0,0.0,0.0,0.0,0.0,0.0,0.0,0.0,0.0,0.0,0.0,0.0,0.0,0.0,0.0,0.0,0.0,0.0,0.0,0.0,0.0,0.0,0.0,0.0,0.0,0.0,0.0,0.0,0.0596,0.1616,0.2666,0.3196,0.3041,0.309,0.2988,0.0,0.0,0.0,0.0,0.0,0.0,0.0,0.0,0.0,0.0,0.0,0.0,0.0,0.0,0.0,0.0,0.0,0.0,0.0,0.0,0.0,0.0,0.0,0.0,0.0,0.0,0.0,0.0,0.0,0.0,0.0,0.0,0.0,0.0,0.0,0.0,0.0,0.0,0.0,0.0,0.0,0.0,0.0,0.0,0.0,0.0,0.0,0.0,0.0,0.0,0.0,0.0,0.0,0.0,0.0,0.0,0.0,0.0,0.0,0.0,0.0,0.0,0.0,0.0,0.0,0.0,0.0,0.0,0.0,0.0,0.0,0.0,0.0,0.0,0.0,0.0,0.0,0.0,0.0,0.0,0.0,0.0,0.0,0.0,0.0,0.0,0.0,0.0,0.0,0.0,0.0,0.0,0.0,0.0,0.0,0.0,0.0,0.0,0.0,0.0,0.0,0.0,0.0,0.0,0.0,0.0,0.0,0.0,0.0,0.3755,0.4094,0.4654,0.5277,0.4596,0.4175,0.0,0.0,0.0,0.0,0.0,0.0,0.0,0.0,0.0,0.0,0.0,0.0,0.0,0.0,0.0,0.0,0.0,0.0,0.0,0.0,0.0,0.0,0.0,0.0,0.0,0.0,0.0,0.0,0.0,0.0,0.0,0.0,0.0,0.0,0.0,0.0,0.0,0.0,0.0,0.0,0.0,0.0,0.0,0.0,0.0,0.0,0.0,0.0,0.0,0.0,0.0,0.0,0.0,0.0,0.0,0.0,0.0,0.0,0.0,0.0,0.0,0.0,0.0,0.0,0.0,0.0,0.0,0.0,0.0,0.0,0.0,0.0,0.0,0.0,0.0,0.0,0.0,0.0,0.0,0.0,0.0,0.0,0.0,0.0,0.0,0.0,0.0,0.0,0.0,0.0,0.0,0.0,0.0,0.0,0.0,0.0,0.0,0.0,0.0,0.0,0.0,0.0,0.0,0.0,0.0,0.0,0.0,0.0,0.0,0.5342,0.5443,0.5757,0.6387,0.5667,0.5249,0.5122,0.0,0.0,0.0,0.0,0.0,0.0,0.0,0.0,0.0,0.0,0.0,0.0,0.0,0.0,0.0,0.0,0.0,0.0,0.0,0.0,0.0,0.0,0.0,0.0,0.0,0.0,0.0,0.0,0.0,0.0,0.0,0.0,0.0,0.0,0.0,0.0,0.0,0.0,0.0,0.0,0.0,0.0,0.0,0.0,0.0,0.0,0.0,0.0,0.0,0.0,0.0,0.0,0.0,0.0,0.0,0.0,0.0,0.0,0.0,0.0,0.0,0.0,0.0,0.0,0.0,0.0,0.0,0.0,0.0,0.0,0.0,0.0,0.0,0.0,0.0,0.0,0.0,0.0,0.0,0.0,0.0,0.0,0.0,0.0,0.0,0.0,0.0,0.0,0.0,0.0,0.0,0.0,0.0,0.0,0.0,0.0,0.0,0.0,0.0,0.0,0.0,0.0,0.0,0.0,0.0,0.0,0.0,0.0,0.6395,0.6522,0.653,0.6411,0.6333,0.6159,0.0,0.0,0.0,0.0,0.0,0.0,0.0,0.0,0.0,0.0,0.0,0.0,0.0,0.0,0.0,0.0,0.0,0.0,0.0,0.0,0.0,0.0,0.0,0.0,0.0,0.0,0.0,0.0,0.0,0.0,0.0,0.0,0.0,0.0,0.0,0.0,0.0,0.0,0.0,0.0,0.0,0.0,0.0,0.0,0.0,0.0,0.0,0.0,0.0,0.0,0.0,0.0,0.0,0.0,0.0,0.0,0.0,0.0,0.0,0.0,0.0,0.0,0.0,0.0,0.0,0.0,0.0,0.0,0.0,0.0,0.0,0.0,0.0,0.0,0.0,0.0,0.0,0.0,0.0,0.0,0.0,0.0,0.0,0.0,0.0,0.0,0.0,0.0,0.0,0.0,0.0,0.0,0.0,0.0,0.0,0.0,0.0,0.0,0.0,0.0,0.0,0.0,0.0,0.0,0.0,0.0,0.0,0.0,0.0,0.657,0.6779,0.6831,0.6703,0.642,0.6289,0.0,0.0,0.0,0.0,0.0,0.0,0.0,0.0,0.0,0.0,0.0,0.0,0.0,0.0,0.0,0.0,0.0,0.0,0.0,0.0,0.0,0.0,0.0,0.0,0.0,0.0,0.0,0.0,0.0,0.0,0.0,0.0,0.0,0.0,0.0,0.0,0.0,0.0,0.0,0.0,0.0,0.0,0.0,0.0,0.0,0.0,0.0,0.0,0.0,0.0,0.0,0.0,0.0,0.0,0.0,0.0,0.0,0.0,0.0,0.0,0.0,0.0,0.0,0.0,0.0,0.0,0.0,0.0,0.0,0.0,0.0,0.0,0.0,0.0,0.0,0.0,0.0,0.0,0.0,0.0,0.0,0.0,0.0,0.0,0.0,0.0,0.0,0.0,0.0,0.0,0.0,0.0,0.0,0.0,0.0,0.0,0.0,0.0,0.0,0.0,0.0,0.0,0.0,0.0,0.0,0.0,0.0,0.0,0.6453,0.6692,0.6931,0.7021,0.695,0.6603,0.6369,0.0,0.0,0.0,0.0,0.0,0.0,0.0,0.0,0.0,0.0,0.0,0.0,0.0,0.0,0.0,0.0,0.0,0.0,0.0,0.0,0.0,0.0,0.0,0.0,0.0,0.0,0.0,0.0,0.0,0.0,0.0,0.0,0.0,0.0,0.0,0.0,0.0,0.0,0.0,0.0,0.0,0.0,0.0,0.0,0.0,0.0,0.0,0.0,0.0,0.0,0.0,0.0,0.0,0.0,0.0,0.0,0.0,0.0,0.0,0.0,0.0,0.0,0.0,0.0,0.0,0.0,0.0,0.0,0.0,0.0,0.0,0.0,0.0,0.0,0.0,0.0,0.0,0.0,0.0,0.0,0.0,0.0,0.0,0.0,0.0,0.0,0.0,0.0,0.0,0.0,0.0,0.0,0.0,0.0,0.0,0.0,0.0,0.0,0.0,0.0,0.0,0.0,0.0,0.0,0.0,0.0,0.0,0.0,0.6573,0.6817,0.7095,0.721,0.7199,0.6806,0.6516,0.0,0.0,0.0,0.0,0.0,0.0,0.0,0.0,0.0,0.0,0.0,0.0,0.0,0.0,0.0,0.0,0.0,0.0,0.0,0.0,0.0,0.0,0.0,0.0,0.0,0.0,0.0,0.0,0.0,0.0,0.0,0.0,0.0,0.0,0.0,0.0,0.0,0.0,0.0,0.0,0.0,0.0,0.0,0.0,0.0,0.0,0.0,0.0,0.0,0.0,0.0,0.0,0.0,0.0,0.0,0.0,0.0,0.0,0.0,0.0,0.0,0.0,0.0,0.0,0.0,0.0,0.0,0.0,0.0,0.0,0.0,0.0,0.0,0.0,0.0,0.0,0.0,0.0,0.0,0.0,0.0,0.0,0.0,0.0,0.0,0.0,0.0,0.0,0.0,0.0,0.0,0.0,0.0,0.0,0.0,0.0,0.0,0.0,0.0,0.0,0.0,0.0,0.0,0.0,0.0,0.0,0.0,0.0,0.6698,0.694,0.7139,0.721,0.7207,0.6806,0.65,0.0,0.0,0.0,0.0,0.0,0.0,0.0,0.0,0.0,0.0,0.0,0.0,0.0,0.0,0.0,0.0,0.0,0.0,0.0,0.0,0.0,0.0,0.0,0.0,0.0,0.0,0.0,0.0,0.0,0.0,0.0,0.0,0.0,0.0,0.0,0.0,0.0,0.0,0.0,0.0,0.0,0.0,0.0,0.0,0.0,0.0,0.0,0.0,0.0,0.0,0.0,0.0,0.0,0.0,0.0,0.0,0.0,0.0,0.0,0.0,0.0,0.0,0.0,0.0,0.0,0.0,0.0,0.0,0.0,0.0,0.0,0.0,0.0,0.0,0.0,0.0,0.0,0.0,0.0,0.0,0.0,0.0,0.0,0.0,0.0,0.0,0.0,0.0,0.0,0.0,0.0,0.0,0.0,0.0,0.0,0.0,0.0,0.0,0.0,0.0,0.0,0.0,0.0,0.0,0.0,0.0,0.0,0.0,0.6738,0.7032,0.7152,0.721,0.7202,0.6921,0.6681,0.0,0.0,0.0,0.0,0.0,0.0,0.0,0.0,0.0,0.0,0.0,0.0,0.0,0.0,0.0,0.0,0.0,0.0,0.0,0.0,0.0,0.0,0.0,0.0,0.0,0.0,0.0,0.0,0.0,0.0,0.0,0.0,0.0,0.0,0.0,0.0,0.0,0.0,0.0,0.0,0.0,0.0,0.0,0.0,0.0,0.0,0.0,0.0,0.0,0.0,0.0,0.0,0.0,0.0,0.0,0.0,0.0,0.0,0.0,0.0,0.0,0.0,0.0,0.0,0.0,0.0,0.0,0.0,0.0,0.0,0.0,0.0,0.0,0.0,0.0,0.0,0.0,0.0,0.0,0.0,0.0,0.0,0.0,0.0,0.0,0.0,0.0,0.0,0.0,0.0,0.0,0.0,0.0,0.0,0.0,0.0,0.0,0.0,0.0,0.0,0.0,0.0,0.0,0.0,0.0,0.0,0.0,0.6518,0.6744,0.7002,0.7105,0.721,0.721,0.7046,0.6815,0.64,0.0,0.0,0.0,0.0,0.0,0.0,0.0,0.0,0.0,0.0,0.0,0.0,0.0,0.0,0.0,0.0,0.0,0.0,0.0,0.0,0.0,0.0,0.0,0.0,0.0,0.0,0.0,0.0,0.0,0.0,0.0,0.0,0.0,0.0,0.0,0.0,0.0,0.0,0.0,0.0,0.0,0.0,0.0,0.0,0.0,0.0,0.0,0.0,0.0588,0.0,0.0,0.0,0.0,0.0,0.0,0.0,0.0,0.0,0.0,0.0,0.0,0.0,0.0,0.0,0.0,0.0,0.0,0.0,0.0,0.0,0.0,0.0,0.0,0.0,0.0,0.0,0.0,0.0,0.0,0.0,0.0,0.0,0.0,0.0,0.0,0.0,0.0,0.0,0.0,0.0,0.0,0.0,0.0,0.0,0.0,0.0,0.0,0.0,0.0,0.0,0.0,0.0,0.0,0.0,0.0,0.6554,0.66,0.6782,0.7172,0.7202,0.721,0.7207,0.7046,0.6812,0.6406,0.0,0.0,0.0,0.0,0.0,0.0,0.0,0.0,0.0,0.0,0.0,0.0,0.0,0.0,0.0,0.0,0.0,0.0,0.0,0.0,0.0,0.0,0.0,0.0,0.0,0.0,0.0,0.0,0.0,0.0,0.0,0.0,0.0,0.0,0.0,0.0,0.0,0.0,0.0,0.0,0.0092,0.0,0.0,0.0,0.0,0.0,0.0,0.0,0.0,0.0776,0.0,0.0,0.0,0.0,0.0,0.0,0.0,0.0,0.0,0.0,0.0,0.0,0.0,0.0,0.0,0.0,0.0,0.0,0.0,0.0,0.0,0.0,0.0,0.0,0.0,0.0,0.0,0.0,0.0,0.0,0.0,0.0,0.0,0.0,0.0,0.0,0.0,0.0,0.0,0.0,0.0,0.0,0.0,0.0,0.0,0.0,0.0,0.0,0.0,0.0,0.0,0.0,0.0,0.0,0.0,0.6452,0.6711,0.6923,0.7202,0.721,0.721,0.7207,0.7037,0.6747,0.0,0.0,0.0,0.0,0.0,0.0,0.0,0.0,0.0,0.0,0.0,0.0,0.0,0.0,0.0,0.0,0.0,0.0,0.0,0.0,0.0,0.0,0.0,0.0,0.0,0.0,0.0,0.0,0.0,0.0,0.0,0.0,0.0,0.0,0.0,0.0,0.0,0.0,0.0,0.0,0.0325,0.0475,0.0587,0.0,0.0,0.0,0.0,0.0,0.0,0.1034,0.1141,0.0,0.0,0.0,0.0,0.0,0.0,0.0,0.0,0.0,0.0,0.0,0.0,0.0,0.0,0.0,0.0,0.0,0.0,0.0,0.0,0.0,0.0,0.0,0.0,0.0,0.0,0.0,0.0,0.0,0.0,0.0,0.0,0.0,0.0,0.0,0.0,0.0,0.0,0.0,0.0,0.0,0.0,0.0,0.0,0.0,0.0,0.0,0.0,0.0,0.0,0.0,0.0,0.0,0.0,0.0,0.6399,0.676,0.7016,0.7202,0.721,0.721,0.7204,0.6904,0.6651,0.0,0.0,0.0,0.0,0.0,0.0,0.0,0.0,0.0,0.0,0.0,0.0,0.0,0.0,0.0,0.0,0.0,0.0,0.0,0.0,0.0,0.0,0.0,0.0,0.0,0.0,0.0,0.0,0.0,0.0,0.0,0.0,0.0,0.0,0.0,0.0,0.0,0.0,0.0,0.0,0.0,0.0873,0.1149,0.1027,0.0,0.0,0.0,0.0,0.1327,0.1566,0.0,0.0,0.0,0.0,0.0,0.0,0.0,0.0,0.0,0.0,0.0,0.0,0.0,0.0,0.0,0.0,0.0,0.0,0.0,0.0,0.0,0.0,0.0,0.0,0.0,0.0,0.0,0.0,0.0,0.0,0.0,0.0,0.0,0.0,0.0,0.0,0.0,0.0,0.0,0.0,0.0,0.0,0.0,0.0,0.0,0.0,0.0,0.0,0.0,0.0,0.0,0.0,0.0,0.0,0.0,0.0,0.6285,0.6641,0.6931,0.7196,0.721,0.721,0.7204,0.682,0.6532,0.0,0.0,0.0,0.0,0.0,0.0,0.0,0.0,0.0,0.0,0.0,0.0,0.0,0.0,0.0,0.0,0.0,0.0,0.0,0.0,0.0,0.0,0.0,0.0,0.0,0.0,0.0,0.0,0.0,0.0,0.0,0.0,0.0,0.0,0.0,0.0,0.0,0.0,0.0,0.0,0.0,0.1224,0.2406,0.1764,0.1563,0.0,0.0,0.2649,0.1711,0.2349,0.0,0.0,0.0,0.0,0.0,0.0,0.0,0.0,0.0,0.0,0.0,0.0,0.0,0.0,0.0,0.0,0.0,0.0,0.0,0.0,0.0,0.0,0.0,0.0,0.0,0.0,0.0,0.0,0.0,0.0,0.0,0.0,0.0,0.0,0.0,0.0,0.0,0.0,0.0,0.0,0.0,0.0,0.0,0.0,0.0,0.0,0.0,0.0,0.0,0.0,0.0,0.0,0.0,0.0,0.0,0.6043,0.6276,0.6752,0.7109,0.7204,0.721,0.721,0.721,0.6738,0.6437,0.0,0.0,0.0,0.0,0.0,0.0,0.0,0.0,0.0,0.0,0.0,0.0,0.0,0.0,0.0,0.0,0.0,0.0,0.0,0.0,0.0,0.0,0.0,0.0,0.0,0.0,0.0,0.0,0.0,0.0,0.0,0.0,0.0,0.0,0.0,0.0,0.0,0.0,0.0,0.0,0.0,0.0,0.2927,0.2614,0.0,0.0,0.0,0.3271,0.3419,0.0,0.0,0.0,0.0,0.0,0.0,0.0,0.0,0.0,0.0,0.0,0.0,0.0,0.0,0.0,0.0,0.0,0.0,0.0,0.0,0.0,0.0,0.0,0.0,0.0,0.0,0.0,0.0,0.0,0.0,0.0,0.0,0.0,0.0,0.0,0.0,0.0,0.0,0.0,0.0,0.0,0.0,0.0,0.0,0.0,0.0,0.0,0.0,0.0,0.0,0.0,0.0,0.0,0.0,0.0,0.0,0.0,0.6233,0.6892,0.721,0.721,0.721,0.721,0.7202,0.6717,0.0,0.0,0.0,0.0,0.0,0.0,0.0,0.0,0.0,0.0,0.0,0.0,0.0,0.0,0.0,0.0,0.0,0.0,0.0,0.0,0.0,0.0,0.0,0.0,0.0,0.0,0.0,0.0591,0.0,0.0,0.0,0.0,0.0,0.0,0.0,0.0,0.0,0.0,0.0,0.0,0.0,0.0,0.3321,0.393,0.3768,0.399,0.0,0.0,0.4186,0.4724,0.5018,0.5076,0.0,0.0,0.0,0.0,0.0,0.0,0.0,0.0,0.0,0.0,0.0,0.0,0.0,0.0,0.0,0.0,0.0,0.0,0.0,0.0,0.0,0.0,0.0,0.0,0.0,0.0,0.0,0.0,0.0,0.0,0.0,0.0,0.0,0.0,0.0,0.0,0.0,0.0,0.0,0.0,0.0,0.0,0.0,0.0,0.0,0.0,0.0,0.0,0.0,0.0,0.0,0.0,0.0,0.0,0.6089,0.6121,0.6846,0.721,0.721,0.721,0.721,0.7204,0.6798,0.6445,0.0,0.0,0.0,0.0,0.0,0.0,0.0,0.0,0.0,0.0,0.0,0.0,0.0,0.0,0.0,0.0,0.0,0.0,0.0,0.0,0.0,0.0,0.0,0.0,0.0,0.0,0.0,0.0,0.0,0.0,0.0,0.0,0.0,0.0,0.0,0.0,0.0,0.0,0.0,0.0,0.0,0.383,0.5909,0.5311,0.5066,0.0,0.6224,0.5872,0.4966,0.5667,0.5898,0.478,0.0,0.0,0.0,0.0,0.0,0.0,0.0,0.0,0.0,0.0,0.0,0.0,0.0,0.0,0.0,0.0,0.0,0.0,0.0,0.0,0.0,0.0,0.0,0.0,0.0,0.0,0.0,0.0,0.0,0.0,0.0,0.0,0.0,0.0,0.0,0.0,0.0,0.0,0.0,0.0,0.0,0.0,0.0,0.0,0.0,0.0,0.0,0.0,0.0,0.0,0.0,0.0,0.0,0.6086,0.6094,0.6843,0.721,0.7207,0.7141,0.7048,0.7106,0.6698,0.6374,0.0,0.0,0.0,0.0,0.0,0.0,0.0,0.0,0.0,0.0,0.0,0.0,0.0,0.0,0.0,0.0,0.0,0.0,0.0,0.0,0.0,0.0,0.0,0.0,0.0,0.0,0.0,0.0,0.1747,0.1929,0.1916,0.0,0.0,0.0,0.0,0.0,0.0,0.0,0.0,0.0,0.0,0.5377,0.629,0.6056,0.0,0.0,0.6836,0.6484,0.6731,0.7017,0.7097,0.6534,0.6308,0.0,0.0,0.0,0.0,0.0,0.0,0.0,0.0,0.0,0.0,0.0,0.0,0.0,0.0,0.0,0.0,0.0,0.0,0.0,0.0,0.0,0.0,0.0,0.0,0.0,0.0,0.0,0.0,0.0,0.0,0.0,0.0,0.0,0.0,0.0,0.0,0.0,0.0,0.0,0.0,0.0,0.0,0.0,0.0,0.0,0.0,0.0,0.0,0.0,0.0,0.0,0.0,0.6105,0.6191,0.6865,0.721,0.721,0.7098,0.6986,0.6978,0.6665,0.6382,0.0,0.0,0.0,0.0,0.0,0.0,0.0,0.0,0.0,0.0,0.0,0.0,0.0,0.0,0.0,0.0,0.0,0.0,0.0,0.0,0.0,0.0,0.0,0.0,0.0,0.0,0.0,0.0,0.2856,0.2976,0.2904,0.0,0.0,0.0,0.0,0.0,0.0,0.0,0.0,0.0,0.0,0.6395,0.6804,0.6889,0.7138,0.7889,0.7388,0.7138,0.7889,0.7897,0.7831,0.7685,0.0,0.0,0.0,0.0,0.0,0.0,0.0,0.0,0.0,0.0,0.0,0.0,0.0,0.0,0.0,0.0,0.0,0.0,0.0,0.0,0.0,0.0,0.0,0.0,0.0,0.0,0.0,0.5184,0.0,0.0,0.5026,0.0,0.0,0.0,0.0,0.0,0.0,0.0,0.0,0.0,0.0,0.0,0.0,0.0,0.0,0.0,0.0,0.0,0.0,0.0,0.0,0.0,0.0,0.6146,0.6317,0.6903,0.721,0.7207,0.7043,0.6986,0.698,0.6744,0.6505,0.6317,0.0,0.0,0.0,0.0,0.0,0.0,0.0,0.0,0.0,0.0,0.0,0.0,0.0,0.0,0.0,0.0,0.0,0.0,0.0,0.0,0.0,0.0,0.0,0.0,0.0,0.0,0.3909,0.3757,0.3737,0.0,0.0,0.0,0.0,0.0,0.0,0.0,0.0,0.0,0.0,0.626,0.6787,0.7816,0.7939,0.7939,0.7988,0.7988,0.7939,0.7988,0.7985,0.7934,0.0,0.0,0.0,0.0,0.0,0.0,0.0,0.0,0.0,0.0,0.0,0.0,0.0,0.0,0.0,0.0,0.0,0.0,0.0,0.0,0.0,0.0,0.0,0.0,0.0,0.0,0.0,0.5659,0.5553,0.0,0.0,0.0,0.0,0.0,0.0,0.0,0.0,0.0,0.0,0.0,0.6209,0.6209,0.0,0.0,0.0,0.0,0.0,0.0,0.0,0.0,0.0,0.0,0.0,0.0,0.6276,0.6295,0.6906,0.721,0.721,0.7046,0.6986,0.6983,0.6825,0.6627,0.6385,0.0,0.0,0.0,0.0,0.0,0.0,0.0,0.0,0.0,0.0,0.0,0.0,0.0,0.0,0.0,0.0,0.0,0.0,0.0,0.0,0.0,0.0,0.0,0.0,0.0,0.5911,0.0,0.0,0.0,0.0,0.0,0.0,0.0,0.0,0.0,0.0,0.0,0.5328,0.6153,0.689,0.7524,0.7918,0.7988,0.7988,0.0,0.0,0.0,0.0,0.0,0.0,0.0,0.0,0.0,0.0,0.0,0.0,0.0,0.0,0.7801,0.7499,0.7489,0.7539,0.759,0.0,0.0,0.0,0.0,0.0,0.0,0.0,0.0,0.0,0.0,0.0,0.0,0.0,0.0,0.6127,0.0,0.5934,0.0,0.0,0.0,0.0,0.0,0.0,0.0,0.0,0.6524,0.6665,0.6627,0.663,0.6589,0.0,0.6393,0.6192,0.0,0.0,0.0,0.0,0.0,0.0,0.0,0.0,0.6358,0.6404,0.6947,0.721,0.7207,0.7043,0.6986,0.6983,0.6866,0.6728,0.657,0.6415,0.6184,0.0,0.0,0.0,0.0,0.0,0.0,0.0,0.0,0.0,0.0,0.0,0.0,0.0,0.0,0.0,0.0,0.0,0.0,0.0,0.0,0.0,0.0,0.0,0.6491,0.0,0.0,0.0,0.0,0.0,0.0,0.0,0.0,0.0,0.5196,0.5749,0.6328,0.6774,0.7408,0.7877,0.7975,0.0,0.0,0.0,0.0,0.0,0.0,0.0,0.7953,0.7899,0.7814,0.7736,0.7682,0.779,0.7872,0.7821,0.0,0.0,0.7655,0.7638,0.7689,0.7743,0.7712,0.7719,0.7858,0.7889,0.787,0.0,0.0,0.0,0.0,0.0,0.0,0.0,0.0,0.6812,0.6679,0.0,0.6416,0.0,0.0,0.0,0.0,0.0,0.6238,0.0,0.0,0.697,0.7089,0.6991,0.6983,0.6986,0.6983,0.6864,0.6747,0.6613,0.6287,0.0,0.0,0.0,0.0,0.0,0.0,0.6393,0.6622,0.6972,0.721,0.7207,0.7046,0.6994,0.6991,0.688,0.6817,0.6806,0.6549,0.6414,0.6381,0.6076,0.0,0.0,0.0,0.0,0.0,0.0,0.0,0.0,0.0,0.0,0.0,0.0,0.0,0.0,0.0,0.0,0.0,0.0,0.0,0.0,0.6712,0.0,0.0,0.0,0.0,0.0,0.0,0.0,0.0,0.0,0.0,0.6914,0.6603,0.67,0.7656,0.0,0.0,0.0,0.0,0.833,0.833,0.8391,0.8431,0.835,0.8327,0.8225,0.8029,0.0,0.0,0.7858,0.7907,0.7965,0.7865,0.7974,0.8002,0.8002,0.787,0.7865,0.7944,0.7919,0.7837,0.7965,0.8032,0.8039,0.716,0.0,0.0,0.0,0.0,0.6948,0.7037,0.7182,0.7184,0.7095,0.6948,0.695,0.0,0.0,0.0,0.0,0.0,0.0,0.6635,0.6755,0.6948,0.7059,0.7161,0.7161,0.7163,0.7158,0.7125,0.7089,0.7051,0.6896,0.6513,0.5866,0.0,0.0,0.0,0.0,0.6594,0.6755,0.7018,0.721,0.721,0.7177,0.7161,0.7161,0.7128,0.7054,0.7109,0.7043,0.6834,0.6575,0.6454,0.0,0.0,0.0,0.0,0.0,0.0,0.0,0.0,0.0,0.0,0.0,0.0,0.0,0.0,0.0,0.0,0.0,0.0,0.0,0.6675,0.6892,0.6876,0.0,0.0,0.0,0.0,0.0,0.0,0.0,0.0,0.0,0.756,0.752,0.7628,0.0,0.0,0.8208,0.8204,0.833,0.8418,0.8473,0.8507,0.0,0.848,0.8421,0.8456,0.836,0.8357,0.834,0.8299,0.8326,0.834,0.8292,0.8323,0.8357,0.8343,0.8143,0.7955,0.7982,0.8089,0.8184,0.8323,0.8438,0.8547,0.757,0.7478,0.7289,0.7267,0.7296,0.7298,0.7394,0.7548,0.7546,0.7481,0.7429,0.7372,0.7214,0.694,0.6893,0.0,0.0,0.0,0.6896,0.7016,0.7043,0.7144,0.7207,0.721,0.721,0.721,0.721,0.721,0.721,0.7166,0.6809,0.6279,0.0,0.0,0.62,0.6521,0.6752,0.6877,0.7114,0.721,0.721,0.721,0.721,0.721,0.721,0.721,0.721,0.721,0.7035,0.6774,0.683,0.6721,0.0,0.0,0.0,0.0,0.0,0.0,0.0,0.0,0.0,0.0,0.0,0.5983,0.5654,0.0,0.0,0.0,0.6576,0.6818,0.6949,0.7071,0.0,0.0,0.0,0.0,0.0,0.0,0.0,0.7221,0.7495,0.7716,0.7804,0.7997,0.813,0.813,0.8214,0.834,0.8398,0.0,0.857,0.8574,0.8625,0.8642,0.8584,0.857,0.855,0.8542,0.8535,0.8535,0.8535,0.8535,0.8535,0.8535,0.8535,0.8535,0.8535,0.8333,0.8214,0.8214,0.8286,0.8432,0.8469,0.8557,0.8648,0.8008,0.7845,0.7459,0.7399,0.7543,0.7546,0.7668,0.7928,0.793,0.7812,0.7714,0.7714,0.7527,0.7262,0.7092,0.0,0.7254,0.7245,0.7241,0.7288,0.7225,0.7226,0.7224,0.7213,0.721,0.721,0.7154,0.7154,0.7204,0.7051,0.6883,0.682,0.6817,0.6749,0.663,0.6738,0.6864,0.6983,0.7141,0.7199,0.721,0.721,0.721,0.721,0.721,0.721,0.721,0.7199,0.7147,0.7035,0.7116,0.7152,0.6988,0.0,0.0,0.0,0.0,0.0,0.0,0.0,0.0,0.0,0.0,0.0,0.0,0.0,0.0,0.0,0.721,0.0,0.7436,0.7261,0.0,0.0,0.0,0.6977,0.7115,0.7316,0.7453,0.7453,0.0,0.0,0.7848,0.8096,0.8279,0.8299,0.8361,0.8353,0.8479,0.8632,0.8726,0.8726,0.879,0.8831,0.875,0.8726,0.8689,0.857,0.8516,0.8537,0.8537,0.8537,0.8526,0.854,0.8523,0.8526,0.852,0.8526,0.8516,0.8516,0.8506,0.8503,0.8513,0.8537,0.8564,0.875,0.8054,0.7845,0.7736,0.7788,0.7788,0.7881,0.793,0.7933,0.7853,0.7831,0.7828,0.7782,0.7755,0.7584,0.7546,0.7565,0.7475,0.7448,0.7464,0.7347,0.729,0.7288,0.7254,0.721,0.7154,0.671,0.6763,0.7154,0.6684,0.6616,0.6945,0.6942,0.6831,0.6632,0.6741,0.6861,0.6983,0.7067,0.7122,0.7207,0.721,0.721,0.721,0.721,0.721,0.721,0.7125,0.7013,0.6983,0.7126,0.7037,0.6763,0.6705,0.0,0.0,0.0,0.0,0.0,0.0,0.0,0.0,0.0,0.6252,0.5735,0.0,0.6552,0.0,0.7333,0.7662,0.7553,0.7512,0.0,0.0,0.7309,0.7326,0.7475,0.7617,0.7709,0.7706,0.7868,0.8031,0.8197,0.8228,0.8353,0.857,0.8604,0.8621,0.8655,0.873,0.8828,0.8828,0.8854,0.8923,0.8834,0.8831,0.8811,0.8838,0.8825,0.8774,0.8774,0.8828,0.8828,0.8777,0.8777,0.8828,0.8821,0.8832,0.8825,0.8821,0.8737,0.8655,0.8659,0.8743,0.8774,0.9196,0.8591,0.8206,0.7921,0.7933,0.7933,0.7933,0.7933,0.7933,0.7933,0.7933,0.7933,0.7933,0.793,0.7807,0.7777,0.7766,0.7655,0.76,0.7592,0.7472,0.7418,0.7413,0.7059,0.6889,0.6843,0.6221,0.6086,0.6376,0.6318,0.6455,0.6675,0.695,0.6967,0.679,0.6796,0.6836,0.6902,0.6959,0.7095,0.7204,0.721,0.7158,0.7056,0.7054,0.6948,0.6839,0.6777,0.6747,0.6748,0.6923,0.6932,0.6695,0.6713,0.6599,0.0,0.0,0.0,0.0,0.0,0.0,0.0,0.0,0.0,0.0,0.0,0.6803,0.6892,0.7455,0.7726,0.7516,0.756,0.759,0.757,0.7567,0.7628,0.778,0.7865,0.794,0.8007,0.8092,0.8197,0.8343,0.8421,0.8523,0.8693,0.8767,0.8811,0.8818,0.8834,0.8937,0.8937,0.8937,0.8937,0.8937,0.8937,0.8937,0.8937,0.8937,0.8937,0.8937,0.8937,0.8937,0.8937,0.8937,0.8937,0.8937,0.8937,0.8937,0.8927,0.8872,0.8818,0.8815,0.8828,0.8937,0.936,0.9093,0.8389,0.8054,0.7955,0.7955,0.7947,0.7933,0.7933,0.7933,0.7933,0.7933,0.7933,0.7933,0.7933,0.7933,0.7864,0.7766,0.7725,0.7717,0.7597,0.7485,0.7365,0.6762,0.6415,0.6272,0.5696,0.5421,0.5446,0.5835,0.6102,0.619,0.6745,0.6966,0.6853,0.6802,0.6804,0.6804,0.6923,0.7032,0.7185,0.7116,0.7056,0.6793,0.6779,0.6673,0.6398,0.6373,0.6421,0.6412,0.6664,0.679,0.6793,0.6777,0.6725,0.0,0.6474,0.0,0.0,0.0,0.0,0.0,0.0,0.0,0.0,0.7034,0.7136,0.7152,0.7523,0.7712,0.7478,0.7577,0.7706,0.7824,0.7841,0.7892,0.7971,0.8005,0.8119,0.831,0.8337,0.8353,0.8496,0.8632,0.871,0.875,0.8794,0.892,0.8878,0.8878,0.8937,0.8937,0.8937,0.8937,0.8937,0.8937,0.8937,0.8937,0.8937,0.8937,0.8937,0.8937,0.8937,0.8937,0.8937,0.8937,0.8937,0.8937,0.8937,0.8937,0.8875,0.8927,0.8927,0.8875,0.8937,0.9096,0.8411,0.8209,0.8103,0.8081,0.8081,0.8023,0.7933,0.7933,0.7933,0.7933,0.7933,0.7933,0.7933,0.7933,0.7933,0.7933,0.785,0.79,0.7895,0.772,0.7368,0.6824,0.6619,0.6219,0.5735,0.515,0.5051,0.5482,0.5083,0.5073,0.5435,0.6032,0.6253,0.6148,0.0,0.0,0.0,0.6923,0.6994,0.7013,0.6918,0.6801,0.666,0.6654,0.0,0.6442,0.635,0.6377,0.6568,0.6709,0.0,0.0,0.0,0.0,0.0,0.0,0.0,0.0,0.0,0.0,0.0,0.7004,0.695,0.6896,0.7173,0.738,0.7502,0.7695,0.7841,0.7909,0.7887,0.7917,0.7944,0.7948,0.7961,0.7992,0.815,0.8241,0.8269,0.8374,0.8499,0.8642,0.8696,0.8757,0.8814,0.8865,0.8937,0.8937,0.8937,0.8937,0.8937,0.8937,0.8937,0.8937,0.8937,0.8937,0.8937,0.8937,0.8937,0.8937,0.8937,0.8937,0.8937,0.8937,0.8937,0.8937,0.8937,0.8937,0.8937,0.8937,0.8937,0.8937,0.8937,0.8937,0.9705,0.0,0.8333,0.8141,0.0,0.8144,0.8073,0.8018,0.7958,0.7933,0.7933,0.7933,0.7933,0.7933,0.7933,0.7933,0.7933,0.7933,0.7933,0.7867,0.7812,0.748,0.6812,0.6397,0.587,0.5177,0.4585,0.4781,0.5514,0.4897,0.5008,0.5815,0.5824,0.5722,0.5673,0.6268,0.6678,0.6896,0.6953,0.701,0.7119,0.7008,0.6861,0.663,0.6619,0.0,0.0,0.0,0.0,0.0,0.0,0.0,0.0,0.7245,0.0,0.7255,0.7187,0.718,0.7255,0.7326,0.7428,0.7526,0.7537,0.7446,0.7278,0.7529,0.7733,0.7807,0.7833,0.7904,0.7978,0.7988,0.7988,0.7988,0.7988,0.8015,0.8143,0.8221,0.833,0.8469,0.855,0.8652,0.875,0.8821,0.8849,0.8868,0.8937,0.8937,0.8937,0.8937,0.8937,0.8937,0.8937,0.8937,0.8937,0.8937,0.8937,0.8937,0.8937,0.8937,0.8937,0.8937,0.8937,0.8937,0.8937,0.8937,0.8937,0.8937,0.8937,0.8937,0.8937,0.8937,0.8937,0.8937,0.8937,1.0256,0.9427,0.8563,0.8233,0.8236,0.8194,0.8198,0.8076,0.0,0.0,0.0,0.7933,0.7933,0.7933,0.7933,0.7933,0.7933,0.7933,0.7933,0.7933,0.7747,0.7378,0.6705,0.6274,0.5689,0.5021,0.4717,0.4976,0.5659,0.5124,0.519,0.5895,0.5485,0.5388,0.5541,0.604,0.6554,0.7018,0.6994,0.7029,0.7177,0.7161,0.6942,0.6576,0.6597,0.6439,0.6132,0.6144,0.6318,0.6633,0.667,0.6861,0.7175,0.7213,0.7227,0.7257,0.7421,0.7546,0.7672,0.7784,0.7906,0.7982,0.7988,0.7887,0.7695,0.785,0.7988,0.7988,0.7988,0.7988,0.7988,0.7988,0.7988,0.7988,0.8015,0.8133,0.8303,0.8378,0.8452,0.8662,0.8726,0.8794,0.8913,0.893,0.8937,0.8937,0.8937,0.8937,0.8937,0.8937,0.8937,0.8937,0.8937,0.8937,0.8937,0.8937,0.8937,0.8937,0.8937,0.8937,0.8937,0.8937,0.8937,0.8937,0.8937,0.8937,0.8937,0.8937,0.8937,0.8937,0.8937,0.8937,0.8937,0.8937,0.8937,0.9555,0.9424,0.8563,0.8233,0.8244,0.8348,0.832,0.8195,0.7967,0.7933,0.7933,0.7933,0.7933,0.7933,0.7933,0.7933,0.7933,0.7933,0.7933,0.7869,0.7319,0.6705,0.6092,0.6519,0.639,0.589,0.6799,0.6805,0.5879,0.5677,0.5128,0.4319,0.4525,0.5223,0.6102,0.6262,0.6589,0.713,0.7035,0.6994,0.7008,0.6907,0.6779,0.6627,0.6524,0.6396,0.6298,0.6381,0.6546,0.6767,0.6995,0.7271,0.7661,0.7709,0.7773,0.785,0.7884,0.7907,0.7928,0.7997,0.7968,0.7985,0.7988,0.7968,0.7934,0.7965,0.7988,0.7988,0.7988,0.7988,0.7988,0.7988,0.7992,0.8002,0.8157,0.8248,0.834,0.8489,0.8652,0.8716,0.8828,0.8848,0.893,0.8937,0.8937,0.8937,0.8937,0.8937,0.8937,0.8937,0.8937,0.8937,0.8937,0.8937,0.8937,0.8937,0.8937,0.8937,0.8937,0.8937,0.8937,0.8937,0.8937,0.8937,0.8937,0.8937,0.8937,0.8937,0.8937,0.8937,0.8937,0.8937,0.8937,0.8937,0.8937,0.9903,0.9417,0.8549,0.8174,0.8233,0.8225,0.819,0.8122,0.7948,0.7971,0.8023,0.7899,0.7933,0.7933,0.7933,0.7933,0.7933,0.7933,0.7933,0.7869,0.7564,0.7258,0.7011,0.7317,0.7255,0.7067,0.7553,0.795,0.7832,0.6513,0.5823,0.5747,0.4685,0.4625,0.5708,0.5817,0.6262,0.7152,0.7161,0.713,0.713,0.7076,0.6937,0.682,0.676,0.6646,0.6467,0.6655,0.6839,0.7009,0.7301,0.7576,0.788,0.7887,0.7967,0.7982,0.7988,0.7988,0.7988,0.7988,0.7988,0.7988,0.7988,0.7988,0.7988,0.7988,0.7988,0.7988,0.7988,0.7988,0.7988,0.7988,0.8072,0.816,0.8231,0.8333,0.8489,0.8615,0.874,0.8763,0.8838,0.8937,0.8937,0.8937,0.8937,0.8937,0.8937,0.8937,0.8937,0.8937,0.8937,0.8937,0.8937,0.8937,0.8937,0.8937,0.8937,0.8937,0.8937,0.8937,0.8937,0.8937,0.8937,0.8937,0.8937,0.8937,0.8937,0.8937,0.8937,0.8937,0.8937,0.8937,0.8937,0.8937,0.8937,1.0734,1.0043,0.891,0.8311,0.8223,0.8136,0.8095,0.8084,0.7964,0.7967,0.8089,0.7924,0.7933,0.7933,0.7933,0.7933,0.7933,0.7933,0.7933,0.7933,0.7933,0.7933,0.7933,0.8175,0.8291,0.8404,0.859,0.9137,0.9485,0.7703,0.6869,0.6963,0.4775,0.4201,0.5369,0.5425,0.5984,0.7099,0.721,0.721,0.721,0.721,0.7111,0.7032,0.6997,0.6947,0.6818,0.6961,0.7193,0.734,0.7559,0.7793,0.7988,0.7988,0.7988,0.7988,0.7988,0.7988,0.7988,0.7988,0.7988,0.7988,0.7988,0.7988,0.7988,0.7988,0.7988,0.7988,0.7988,0.7988,0.7995,0.8029,0.814,0.8255,0.8336,0.8465,0.8665,0.874,0.8804,0.892,0.8937,0.8937,0.8937,0.8937,0.8937,0.8937,0.8937,0.8937,0.8937,0.8937,0.8937,0.8937,0.8937,0.8937,0.8937,0.8937,0.8937,0.8937,0.8937,0.8937,0.8937,0.8937,0.8937,0.8937,0.8937,0.8937,0.8937,0.8937,0.8937,0.8937,0.8937,0.8937,0.8937,0.8937,0.8937,1.2005,1.1675,1.0036,0.8935,0.822,0.8212,0.8204,0.819,0.8084,0.8106,0.8095,0.7926,0.7933,0.7933,0.7933,0.7933,0.7933,0.7933,0.7933,0.7933,0.7933,0.7933,0.8052,0.9079,0.9623,0.9744,1.0732,1.0728,0.9926,0.9529,0.8193,0.5983,0.4325,0.4201,0.5258,0.5425,0.5984,0.7154,0.721,0.721,0.721,0.721,0.7204,0.7196,0.7092,0.7137,0.7305,0.7365,0.7488,0.782,0.7908,0.7992,0.7988,0.7988,0.7988,0.7988,0.7988,0.7988,0.7988,0.7988,0.7988,0.7988,0.7988,0.7988,0.7988,0.7988,0.7988,0.7998,0.7995,0.8002,0.7998,0.8167,0.8262,0.8313,0.8503,0.8686,0.8723,0.878,0.8871,0.8933,0.8937,0.8937,0.8937,0.8937,0.8937,0.8937,0.8937,0.8937,0.8937,0.8937,0.8937,0.8937,0.8937,0.8937,0.8937,0.8937,0.8937,0.8937,0.8937,0.8937,0.8937,0.8937,0.8937,0.8937,0.8937,0.8937,0.8937,0.8937,0.8937,0.8937,0.8937,0.8937,0.8937,0.8937,0.8937,1.2178,1.2062,1.0795,0.9698,0.8886,0.8889,0.8516,0.8013,0.7967,0.8007,0.8004,0.7891,0.7933,0.7933,0.7933,0.7933,0.7933,0.7933,0.7933,0.7933,0.848,0.8845,0.915,1.0176,1.0785,1.0974,1.153,1.1526,1.088,1.0056,0.8301,0.5914,0.4949,0.4925,0.5369,0.5425,0.5984,0.7154,0.721,0.7432,0.7875,0.7986,0.7709,0.7315,0.7659,0.7701,0.7468,0.7573,0.771,0.7866,0.8103,0.8136,0.7995,0.7988,0.7988,0.7988,0.7988,0.7988,0.7988,0.7988,0.7988,0.7988,0.7988,0.7988,0.7988,0.7988,0.8022,0.816,0.8177,0.8177,0.8187,0.8309,0.8428,0.8523,0.8642,0.8747,0.8838,0.8844,0.8937,0.8937,0.8937,0.8937,0.8937,0.8937,0.8937,0.8937,0.8937,0.8937,0.8937,0.8937,0.8937,0.8937,0.8937,0.8937,0.8937,0.8937,0.8937,0.8937,0.8937,0.8937,0.8937,0.8937,0.8937,0.8937,0.8937,0.8937,0.8937,0.8937,0.8937,0.8937,0.8937,0.8937,0.8937,0.8937,0.8937,1.2595,1.2479,1.1571,1.0607,0.9697,0.9697,0.9332,0.872,0.8662,0.8541,0.8297,0.8541,0.8541,0.8299,0.8055,0.7933,0.7933,0.7933,0.7933,0.8055,0.9031,0.964,0.9879,1.1031,1.1643,1.1772,1.1776,1.1837,1.1611,1.0281,0.8549,0.6884,0.5853,0.5594,0.5817,0.565,0.5984,0.7099,0.7432,0.7875,0.8484,0.8982,0.8813,0.8036,0.8263,0.8326,0.7956,0.7861,0.7912,0.8138,0.8298,0.8279,0.817,0.8076,0.8035,0.7992,0.7988,0.7988,0.7988,0.7988,0.7988,0.7992,0.8022,0.8102,0.8059,0.8086,0.8208,0.8309,0.8367,0.8384,0.8343,0.8459,0.8591,0.8696,0.8737,0.8825,0.8865,0.8937,0.8937,0.8937,0.8937,0.8937,0.8937,0.8937,0.8937,0.8937,0.8937,0.8937,0.8937,0.8937,0.8937,0.8937,0.8937,0.8937,0.8937,0.8937,0.8937,0.8937,0.8937,0.8937,0.8937,0.8937,0.8937,0.8937,0.8937,0.8937,0.8937,0.8937,0.8937,0.8937,0.8937,0.8937,0.8937,0.8937,0.8937,1.3629,1.3449,1.2539,1.1571,1.0728,1.0728,1.0668,1.0486,1.0607,1.0122,0.9457,1.0122,1.0122,0.9214,0.8421,0.7933,0.7933,0.7994,0.7994,0.8177,0.9576,1.0122,0.994,1.139,1.2001,1.1837,1.1837,1.1837,1.1692,1.0292,0.9483,0.9116,0.6763,0.6042,0.6707,0.5929,0.5982,0.7154,0.7931,0.8488,0.8702,1.0139,1.0464,0.9743,0.8923,0.8751,0.9058,0.8288,0.8047,0.8632,0.8547,0.8465,0.8442,0.833,0.8197,0.8025,0.8005,0.7998,0.8008,0.8015,0.8012,0.8019,0.8191,0.8262,0.8316,0.8357,0.8431,0.8525,0.8584,0.8608,0.8526,0.8618,0.8703,0.8726,0.8842,0.8861,0.8878,0.8937,0.8937,0.8937,0.8937,0.8937,0.8937,0.8937,0.8937,0.8937,0.8937,0.8937,0.8937,0.8937,0.8937,0.8937,0.8937,0.8937,0.8937,0.8937,0.8937,0.8937,0.8937,0.8937,0.8937,0.8937,0.8937,0.8937,0.8937,0.8937,0.8937,0.8937,0.8937,0.8937,0.8937,0.8937,0.8937,0.8937,0.8937,1.3688,1.3688,1.3324,1.2599,1.1752,1.1696,1.139,1.0789,1.0793,1.0607,1.0365,1.0668,1.0607,1.0243,0.9937,0.9393,0.8848,0.8787,0.8787,0.897,1.0486,1.1091,1.091,1.1756,1.2062,1.1833,1.1837,1.1837,1.1752,1.1102,1.0339,0.9347,0.7627,0.6891,0.6943,0.5982,0.5984,0.7154,0.8042,0.8761,0.9361,1.0519,1.1181,1.1396,1.0076,0.9251,0.9085,0.8323,0.8099,0.845,0.8548,0.8584,0.8489,0.8435,0.8381,0.833,0.8323,0.8323,0.8323,0.8323,0.8323,0.8326,0.837,0.8404,0.8411,0.8455,0.852,0.8615,0.8669,0.8706,0.8781,0.8825,0.8855,0.8862,0.8903,0.8937,0.8937,0.8937,0.8937,0.8937,0.8937,0.8937,0.8937,0.8937,0.8937,0.8937,0.8937,0.8937,0.8937,0.8937,0.8937,0.8937,0.8937,0.8937,0.8937,0.8937,0.8937,0.8937,0.8937,0.8937,0.8937,0.8937,0.8937,0.8937,0.8937,0.8937,0.8937,0.8937,0.8937,0.8937,0.8937,0.8937,0.8937,0.8937,0.8937,1.3688,1.3688,1.3688,1.3324,1.2724,1.2659,1.2359,1.1752,1.1752,1.1575,1.1333,1.1571,1.1571,1.1269,1.1273,1.091,1.0243,0.994,0.9758,0.9883,1.1152,1.1635,1.1454,1.1933,1.2066,1.1833,1.1837,1.1837,1.1812,1.1589,1.0813,0.948,0.8241,0.7491,0.7118,0.6151,0.6316,0.7543,0.8481,0.9361,1.0186,1.0798,1.1509,1.1946,1.046,0.9471,0.942,0.854,0.8173,0.8474,0.8675,0.8716,0.8574,0.8554,0.853,0.8489,0.8531,0.8535,0.8535,0.8535,0.8531,0.8486,0.853,0.8557,0.8557,0.8601,0.8682,0.8757,0.8784,0.8838,0.8906,0.8933,0.8937,0.8937,0.8937,0.8937,0.8937,0.8937,0.8937,0.8937,0.8937,0.8937,0.8937,0.8937,0.8937,0.8937,0.8937,0.8937,0.8937,0.8937,0.8937,0.8937,0.8937,0.8937,0.8937,0.8937,0.8937,0.8937,0.8937,0.8937,0.8937,0.8937,0.8937,0.8937,0.8937,0.8937,0.8937,0.8937,0.8937,0.8937,0.8937,0.8937,0.8937,0.8937,0.8937,1.3688,1.3688,1.3688,1.3688,1.3569,1.3569,1.3629,1.3509,1.3509,1.296,1.2359,1.3144,1.296,1.2354,1.2234,1.2174,1.1933,1.1329,1.091,1.091,1.1514,1.17,1.1454,1.1937,1.2001,1.1837,1.1837,1.1837,1.1824,1.1427,1.066,0.9552,0.8552,0.7689,0.7218,0.6662,0.7041,0.8315,0.9306,1.0186,1.0966,1.1131,1.1618,1.2055,1.0021,0.9313,1.0527,0.8927,0.8263,0.8758,0.8868,0.8807,0.8733,0.8713,0.8652,0.8547,0.8559,0.8552,0.8506,0.8572,0.8537,0.8547,0.8635,0.871,0.873,0.8821,0.8844,0.8851,0.8861,0.8878,0.8878,0.8937,0.8937,0.8937,0.8937,0.8937,0.8937,0.8937,0.8937,0.8937,0.8937,0.8937,0.8937,0.8937,0.8937,0.8937,0.8937,0.8937,0.8937,0.8937,0.8937,0.8937,0.8937,0.8937,0.8937,0.8937,0.8937,0.8937,0.8937,0.8937,0.8937,0.8937,0.8937,0.8937,0.8937,0.8937,0.8937,0.8937,0.8937,0.8937,0.8937,0.8937,0.8937,0.8937,0.8937,1.3688,1.3688,1.3688,1.3688,1.3688,1.3688,1.3688,1.3688,1.3688,1.3504,1.3324,1.3569,1.3509,1.3264,1.3204,1.3204,1.3204,1.2904,1.2419,1.1937,1.2238,1.2359,1.2238,1.2005,1.1893,1.1837,1.1837,1.1837,1.1639,1.0853,1.0021,0.934,0.7913,0.7219,0.7217,0.7195,0.7706,0.854,0.997,1.0848,1.1126,1.1673,1.211,1.2169,1.0629,1.0029,1.0586,0.8982,0.8266,0.8598,0.8823,0.8861,0.8821,0.8866,0.8842,0.8804,0.8743,0.8798,0.8794,0.8791,0.8784,0.8801,0.8838,0.8807,0.8814,0.8851,0.8937,0.8937,0.8937,0.8937,0.8937,0.8937,0.8937,0.8937,0.8937,0.8937,0.8937,0.8937,0.8937,0.8937,0.8937,0.8937,0.8937,0.8937,0.8937,0.8937,0.8937,0.8937,0.8937,0.8937,0.8937,0.8937,0.8937,0.8937,0.8937,0.8937,0.8937,0.8937,0.8937,0.8937,0.8937,0.8937,0.8937,0.8937,0.8937,0.8937,0.8937,0.8937,0.8937,0.8937,0.8937,0.8937,0.8937,0.8937,0.8937,1.392,1.392,1.392,1.3873,1.3811,1.3807,1.3759,1.3698,1.3688,1.3688,1.3688,1.3688,1.3688,1.3688,1.3688,1.3688,1.3688,1.3688,1.3324,1.2779,1.2659,1.2715,1.2599,1.2074,1.1837,1.1837,1.1837,1.1837,1.1772,1.0967,1.0275,0.9585,0.8369,0.7599,0.7513,0.7821,0.832,0.9099,1.0355,1.1236,1.1564,1.1782,1.2055,1.211,1.0684,1.0135,1.0527,0.9096,0.8322,0.8598,0.8823,0.8881,0.8937,0.8933,0.8937,0.8937,0.8937,0.8878,0.8937,0.892,0.8937,0.8937,0.8937,0.8937,0.8937,0.8937,0.8937,0.8937,0.8937,0.8937,0.8937,0.8937,0.8937,0.8937,0.8937,0.8937,0.8937,0.8937,0.8937,0.8937,0.8937,0.8937,0.8937,0.8937,0.8937,0.8937,0.8937,0.8937,0.8937,0.8937,0.8937,0.8937,0.8937,0.8937,0.8937,0.8937,0.8937,0.8937,0.8937,0.8937,0.8937,0.8937,0.8937,0.8937,0.8937,0.8937,0.8937,0.8937,0.8937,0.8937,0.8937,0.8937,0.8937,0.8937,0.8937,1.4307,1.4312,1.4288,1.4151,1.3996,1.3967,1.3849,1.3707,1.3688,1.3688,1.3688,1.3688,1.3688,1.3688,1.3688,1.3688,1.3688,1.3688,1.3688,1.3384,1.3024,1.2659,1.2483,1.2014,1.1837,1.1837,1.1837,1.1837,1.1772,1.1402,1.1195,1.0154,0.9519,0.9033,0.8359,0.853,0.9283,0.993,1.0794,1.1618,1.2219,1.1678,1.1673,1.2382,1.0625,0.9911,1.0464,0.9368,0.8654,0.8881,0.8881,0.8937,0.8937,0.8937,0.8937,0.8937,0.8937,0.8937,0.8937,0.8937,0.8937,0.8937,0.8937,0.8937,0.8937,0.8937,0.8937,0.8937,0.8937,0.8937,0.8937,0.8937,0.8937,0.8937,0.8937,0.8937,0.8937,0.8937,0.8937,0.8937,0.8937,0.8937,0.8937,0.8937,0.8937,0.8937,0.8937,0.8937,0.8937,0.8937,0.8937,0.8937,0.8937,0.8937,0.8937,0.8937,0.8937,0.8937,0.8937,0.8937,0.8937,0.8937,0.8937,0.8937,0.8937,0.8937,0.8937,0.8937,0.8937,0.8937,0.8937,0.8937,0.8937,0.8937,0.8937,1.4312,1.4298,1.4151,1.4057,1.3986,1.3844,1.375,1.3693,1.3688,1.3688,1.3688,1.3688,1.3688,1.3688,1.3688,1.3688,1.3688,1.3688,1.3688,1.3569,1.3024,1.2427,1.2134,1.1897,1.1837,1.1837,1.1837,1.1837,1.1716,1.097,1.045,1.0282,0.9755,0.9265,0.9086,1.0054,1.0635,1.0877,1.1618,1.211,1.2278,1.2223,1.2387,1.2876,1.1996,1.1391,1.1227,0.9699,0.8823,0.8881,0.8937,0.8937,0.8937,0.8937,0.8937,0.8937,0.8937,0.8937,0.8937,0.8937,0.8937,0.8937,0.8937,0.8937,0.8937,0.8937,0.8937,0.8937,0.8937,0.8937,0.8937,0.8937,0.8937,0.8937,0.8937,0.8937,0.8937,0.8937,0.8937,0.8937,0.8937,0.8937,0.8937,0.8937,0.8937,0.8937,0.8937,0.8937,0.8937,0.8937,0.8937,0.8937,0.8937,0.8937,0.8937,0.8937,0.8937,0.8937,0.8937,0.8937,0.8937,0.8937,0.8937,0.8937,0.8937,0.8937,0.8937,0.8937,0.8937,0.8937,0.8937,0.8937,0.8937,0.8937,0.8937,1.4449,1.4426,1.4222,1.409,1.4,1.3873,1.3773,1.3703,1.3688,1.3688,1.3688,1.3688,1.3688,1.3688,1.3688,1.3688,1.3688,1.3688,1.3688,1.3569,1.3024,1.2367,1.1953,1.1837,1.1837,1.1837,1.1837,1.1837,1.1712,1.1088,1.1016,1.1178,1.0561,1.0313,1.0565,1.1032,1.1426,1.1377,1.1996,1.2382,1.2387,1.2659,1.2935,1.3207,1.2871,1.2372,1.1273,1.0186,0.9482,0.9044,0.8937,0.8937,0.8937,0.8937,0.8937,0.8937,0.8937,0.8937,0.8937,0.8937,0.8937,0.8937,0.8937,0.8937,0.8937,0.8937,0.8937,0.8937,0.8937,0.8937,0.8937,0.8937,0.8937,0.8937,0.8937,0.8937,0.8937,0.8937,0.8937,0.8937,0.8937,0.8937,0.8937,0.8937,0.8937,0.8937,0.8937,0.8937,0.8937,0.8937,0.8937,0.8937,0.8937,0.8937,0.8937,0.8937,0.8937,0.8937,0.8992,0.8937,0.8992,0.8937,0.8937,0.8937,0.8937,0.8937,0.8992,0.8992,0.8937,0.8937,0.8937,0.8937,0.8937,0.8937,0.8937,1.4619,1.4581,1.4364,1.418,1.4019,1.3981,1.3844,1.3712,1.3688,1.3688,1.3688,1.3688,1.3688,1.3688,1.3688,1.3688,1.3688,1.3688,1.3688,1.3444,1.2964,1.2427,1.1949,1.1837,1.1837,1.1837,1.1837,1.1833,1.1889,1.1997,1.2359,1.235,1.2041,1.2009,1.1997,1.1955,1.1718,1.1729,1.2192,1.2538,1.2668,1.2985,1.3315,1.3635,1.3462,1.2585,1.1437,1.0676,1.0076,0.8937,0.8937,0.8937,0.8937,0.8937,0.8937,0.8937,0.8937,0.8937,0.8937,0.8937,0.8937,0.8937,0.8937,0.8937,0.8937,0.8937,0.8937,0.8937,0.8937,0.8937,0.8937,0.8937,0.8937,0.8937,0.8937,0.8937,0.8937,0.8937,0.8937,0.8937,0.8937,0.8937,0.8937,0.8937,0.8937,0.8937,0.8937,0.8937,0.8937,0.8937,0.8937,0.8937,0.8937,0.8937,0.8937,0.8937,0.8937,0.8937,0.9047,0.9051,0.9106,0.9051,0.8995,0.8995,0.9158,0.9213,0.9158,0.9103,0.9047,0.9047,0.9158,0.9047,0.894,0.8937,0.8937,1.4471,1.4359,1.4166,1.4048,1.3986,1.3835,1.3736,1.3693,1.3688,1.3688,1.3688,1.3688,1.3688,1.3688,1.3688,1.3688,1.3688,1.3688,1.3569,1.3264,1.29,1.2479,1.2122,1.1949,1.1837,1.1837,1.1837,1.1949,1.2062,1.2242,1.2539,1.2964,1.2951,1.293,1.2999,1.2916,1.2834,1.2604,1.2659,1.2822,1.3078,1.3261,1.3748,1.439,1.4223,1.3349,1.2141,1.1164,1.0131,0.921,0.8937,0.8937,0.8937,0.8937,0.8937,0.8992,0.8937,0.8937,0.8937,0.8937,0.8937,0.8937,0.8937,0.8937,0.8937,0.8937,0.8937,0.8937,0.8937,0.8937,0.8937,0.8937,0.8937,0.8937,0.8937,0.8937,0.8937,0.8937,0.8937,0.8937,0.8937,0.8937,0.8937,0.8937,0.8937,0.8937,0.8937,0.8937,0.8937,0.8937,0.8937,0.8937,0.8937,0.8937,0.8937,0.8937,0.8992,0.8992,0.9103,0.9268,0.9272,0.9323,0.9379,0.9434,0.9485,0.9489,0.9379,0.9489,0.9485,0.9489,0.9379,0.9268,0.9158,0.9047,0.9023,1.4274,1.4151,1.3948,1.3859,1.3844,1.3736,1.3688,1.3688,1.3688,1.3688,1.3688,1.3688,1.3688,1.3688,1.3688,1.3688,1.3688,1.3688,1.3504,1.3264,1.3024,1.2659,1.2294,1.2186,1.213,1.1893,1.1949,1.2062,1.2238,1.2479,1.2844,1.3209,1.3324,1.3407,1.3518,1.3443,1.3224,1.3069,1.2908,1.2979,1.3372,1.3681,1.4277,1.5143,1.5083,1.4433,1.329,1.2091,1.095,0.9915,0.921,0.8937,0.8937,0.8937,0.9154,0.9592,0.9099,0.932,0.9482,0.9206,0.8937,0.8937,0.8937,0.8937,0.8937,0.8937,0.8937,0.8937,0.8937,0.8937,0.8937,0.8937,0.8937,0.8937,0.8937,0.8937,0.8937,0.8937,0.8937,0.8937,0.8937,0.8937,0.8937,0.8937,0.8937,0.8937,0.8937,0.8937,0.8937,0.8937,0.8937,0.8937,0.8937,0.8937,0.8937,0.8937,0.9047,0.9158,0.9268,0.9434,0.9544,0.9655,0.9765,0.9761,0.9761,0.9651,0.9599,0.9761,0.9761,0.9544,0.9434,0.9434,0.9404,0.9339,0.9321,1.3991,1.3948,1.3764,1.3688,1.3688,1.3688,1.3688,1.3688,1.3688,1.3717,1.374,1.374,1.3792,1.3797,1.3816,1.3783,1.375,1.3745,1.3579,1.3389,1.3204,1.29,1.2539,1.2539,1.2427,1.2014,1.2186,1.2298,1.2539,1.2844,1.3144,1.3324,1.3569,1.3674,1.3636,1.3532,1.3405,1.3296,1.3231,1.3333,1.3779,1.4217,1.4948,1.5565,1.5779,1.519,1.4056,1.2911,1.176,1.0731,0.9533,0.9047,0.8937,0.8992,0.9261,1.0296,0.9372,0.9316,0.9644,0.9427,0.8937,0.8937,0.8937,0.8937,0.8937,0.8937,0.8937,0.8937,0.8937,0.8937,0.8937,0.8937,0.8937,0.8937,0.8937,0.8937,0.8937,0.8937,0.8937,0.8937,0.8937,0.8937,0.8937,0.8937,0.8937,0.8937,0.8937,0.8937,0.8937,0.8937,0.8937,0.8937,0.8937,0.8937,0.8937,0.9754,0.9699,0.9537,0.9651,0.9871,0.9981,0.9926,0.9981,0.9926,0.9871,0.9871,0.9926,1.0088,0.9981,0.9655,0.961,0.9728,0.9672,0.9633,0.9574,1.3906,1.374,1.3703,1.3688,1.3693,1.3693,1.3707,1.3688,1.3721,1.3797,1.3944,1.3962,1.4048,1.4147,1.4203,1.4114,1.3962,1.392,1.3779,1.3537,1.3389,1.3084,1.2964,1.284,1.2664,1.2603,1.2659,1.2779,1.29,1.3144,1.3384,1.3564,1.3688,1.3688,1.3684,1.3636,1.3596,1.3609,1.3732,1.4049,1.4449,1.4889,1.5352,1.5856,1.5885,1.5351,1.4326,1.3073,1.1873,1.0731,0.9537,0.9047,0.9047,0.9047,0.921,0.9482,0.9478,0.9533,0.9699,0.9261,0.8937,0.8937,0.8937,0.8937,0.8937,0.8937,0.8937,0.8937,0.8937,0.8937,0.8937,0.8937,0.8937,0.8937,0.8937,0.8937,0.8937,0.8937,0.8937,0.8937,0.8937,0.8937,0.8937,0.8937,0.8937,0.8937,0.8937,0.8937,0.8937,0.8937,0.8937,0.8937,0.8937,0.8937,0.8937,1.0076,1.0672,1.03,1.03,1.0574,1.0578,1.0308,1.0198,1.0202,1.0257,1.0312,1.0417,1.0417,1.0363,1.0091,1.0056,1.0078,1.001,0.9934,0.9813,1.3783,1.3693,1.3688,1.3759,1.3844,1.3854,1.3915,1.4005,1.4014,1.4066,1.4142,1.417,1.4213,1.4293,1.4312,1.4203,1.4062,1.4014,1.3892,1.3671,1.3509,1.3329,1.3264,1.3204,1.3084,1.3084,1.3144,1.3144,1.3264,1.3384,1.3504,1.3629,1.3688,1.3688,1.3688,1.3679,1.3811,1.3996,1.4239,1.4609,1.5094,1.5499,1.5743,1.5827,1.5885,1.5571,1.5024,1.3948,1.2797,1.1651,1.046,0.997,0.986,0.9915,1.008,1.057,1.0625,1.0621,1.0515,1.0241,0.9644,0.8992,0.8937,0.8937,0.8937,0.8937,0.8937,0.8937,0.8937,0.8937,0.8937,0.8937,0.8937,0.8937,0.8937,0.8937,0.8937,0.8937,0.8937,0.8937,0.8937,0.8937,0.8937,0.8937,0.8937,0.8937,0.8937,0.8937,0.8937,0.8937,0.8937,0.9099,0.921,0.9699,0.9915,1.1051,1.1701,1.1328,1.1273,1.1546,1.1118,1.0794,1.0582,1.0472,1.0582,1.0582,1.0637,1.0582,1.0582,1.0527,1.0378,1.026,1.0295,1.0247,1.018,1.3717,1.3755,1.375,1.3873,1.4052,1.4071,1.4156,1.4288,1.4298,1.4322,1.4378,1.4378,1.4402,1.444,1.4421,1.4322,1.4095,1.4085,1.3939,1.3726,1.3688,1.3569,1.3449,1.3509,1.3564,1.3384,1.3509,1.3569,1.3449,1.3569,1.3688,1.3688,1.3688,1.3688,1.3688,1.3688,1.4097,1.4401,1.4654,1.4998,1.5682,1.5963,1.5934,1.5891,1.5885,1.5891,1.5672,1.4648,1.3732,1.2694,1.1764,1.1,1.1109,1.1273,1.1819,1.2526,1.2526,1.2358,1.176,1.1219,1.0021,0.9047,0.8937,0.8937,0.8937,0.8937,0.8937,0.8937,0.8937,0.8937,0.8937,0.8937,0.8937,0.8937,0.8937,0.8937,0.8937,0.8937,0.8937,0.8937,0.8937,0.8937,0.8937,0.8937,0.8937,0.8937,0.8937,0.8937,0.8937,0.8937,0.8992,0.9261,0.9644,1.0457,1.1214,1.2354,1.2674,1.2462,1.2679,1.3004,1.2146,1.1232,1.1072,1.0852,1.0582,1.0582,1.0637,1.0747,1.0637,1.0582,1.0421,1.0413,1.0496,1.0746,1.0852,1.3797,1.3972,1.3972,1.409,1.426,1.4274,1.4288,1.4331,1.435,1.4426,1.4532,1.4536,1.4621,1.4715,1.4739,1.4605,1.4359,1.4203,1.4014,1.3731,1.3688,1.3688,1.3624,1.3688,1.3688,1.3569,1.3688,1.3688,1.3629,1.3688,1.3688,1.3688,1.3688,1.3688,1.3688,1.3808,1.4038,1.4624,1.5192,1.5787,1.6337,1.6313,1.6115,1.5946,1.5885,1.5885,1.5779,1.4976,1.4169,1.384,1.2802,1.2254,1.2363,1.3295,1.3727,1.3619,1.3014,1.1982,1.1433,1.1055,1.0402,0.943,0.8992,0.8937,0.8937,0.8937,0.8937,0.8937,0.8937,0.8937,0.8937,0.8937,0.8937,0.8937,0.8937,0.8937,0.8937,0.8937,0.8937,0.8937,0.8937,0.8937,0.8937,0.8937,0.8937,0.8937,0.8937,0.8937,0.9047,0.9154,0.9372,0.9695,1.0891,1.1755,1.262,1.3755,1.3922,1.3706,1.3922,1.4239,1.3058,1.1982,1.1446,1.1232,1.0907,1.0798,1.1013,1.1013,1.0798,1.0743,1.0798,1.0719,1.0685,1.1021,1.1786,1.4095,1.418,1.418,1.4303,1.4487,1.4492,1.4563,1.4652,1.4662,1.4649,1.4725,1.4739,1.479,1.4833,1.4827,1.4591,1.4336,1.4199,1.3986,1.375,1.3688,1.3688,1.3688,1.3688,1.3688,1.3688,1.3688,1.3688,1.3688,1.3688,1.3688,1.3688,1.3688,1.3688,1.3808,1.4038,1.4575,1.5252,1.592,1.65,1.6618,1.6429,1.6157,1.591,1.5891,1.5885,1.5779,1.5571,1.4761,1.4385,1.357,1.3457,1.3511,1.3948,1.4385,1.5083,1.4756,1.3938,1.2911,1.2091,1.1059,1.0025,0.9372,0.8937,0.8937,0.8937,0.8937,0.8937,0.8937,0.8937,0.8937,0.8937,0.8937,0.8937,0.8937,0.8937,0.8937,0.8937,0.8937,0.8937,0.8937,0.9099,0.921,0.932,0.921,0.8937,0.9047,0.9154,0.9427,0.975,1.0021,1.0347,1.181,1.3378,1.4293,1.5269,1.5381,1.5221,1.4995,1.4942,1.376,1.2896,1.2417,1.1773,1.1232,1.1232,1.1446,1.1232,1.0962,1.1072,1.1232,1.1518,1.1916,1.2998,1.3581,1.4463,1.4463,1.4411,1.4515,1.4704,1.464,1.4789,1.4852,1.4852,1.4856,1.487,1.4856,1.4838,1.4772,1.469,1.4501,1.4227,1.4081,1.3892,1.3755,1.3688,1.3688,1.3688,1.3688,1.3688,1.3688,1.3688,1.3688,1.3688,1.3688,1.3688,1.3688,1.3688,1.3808,1.4043,1.4396,1.4873,1.5817,1.6687,1.6948,1.6736,1.6513,1.6217,1.6,1.5885,1.5885,1.5885,1.5838,1.5298,1.4922,1.4708,1.46,1.4654,1.4761,1.5083,1.5618,1.5565,1.5298,1.4379,1.3452,1.22,1.0895,0.9695,0.8937,0.8937,0.8937,0.8937,0.8937,0.8937,0.8937,0.8937,0.8937,0.8937,0.8937,0.8937,0.8937,0.8992,0.9099,0.9099,0.9047,0.921,0.9592,0.9699,0.9864,0.9647,0.9103,0.9103,0.9427,1.0021,1.0672,1.116,1.1647,1.2896,1.4352,1.5102,1.5914,1.6299,1.6571,1.6293,1.5808,1.4781,1.4083,1.3599,1.2792,1.1932,1.22,1.2738,1.1932,1.1286,1.1987,1.2678,1.299,1.3592,1.4662,1.524,1.4828,1.4809,1.4681,1.4649,1.4838,1.4847,1.4852,1.487,1.487,1.4926,1.4838,1.4847,1.4743,1.4607,1.4567,1.4374,1.4048,1.4019,1.3868,1.3745,1.3688,1.3688,1.3688,1.3688,1.3688,1.3688,1.3688,1.3688,1.3688,1.3688,1.3688,1.3688,1.3868,1.4102,1.4396,1.4748,1.5461,1.6354,1.712,1.7165,1.6863,1.6622,1.6404,1.6018,1.5897,1.5885,1.5891,1.5922,1.5922,1.566,1.5588,1.5624,1.5529,1.5535,1.5731,1.5832,1.5885,1.5731,1.5292,1.4379,1.2911,1.1168,0.9805,0.9099,0.8937,0.8937,0.8937,0.8937,0.8937,0.8937,0.8937,0.8937,0.921,0.9103,0.9265,0.9537,0.9592,0.9537,0.9537,0.9265,0.9592,1.03,1.068,1.0895,1.0676,1.019,1.0457,1.0832,1.1592,1.2236,1.267,1.327,1.4191,1.5055,1.547,1.6121,1.6836,1.7107,1.7047,1.6611,1.5968,1.5375,1.462,1.4137,1.3442,1.376,1.3863,1.3334,1.3117,1.3652,1.412,1.4412,1.5093,1.6103,1.6431,1.4624,1.4737,1.4602,1.4687,1.487,1.487,1.487,1.487,1.4866,1.479,1.4747,1.4678,1.4633,1.4459,1.4293,1.418,1.3996,1.3859,1.3769,1.3721,1.3688,1.3688,1.3688,1.3688,1.3688,1.3688,1.3688,1.3688,1.3688,1.3748,1.3978,1.4097,1.4277,1.4391,1.4689,1.5402,1.6231,1.6826,1.7285,1.728,1.7014,1.6754,1.6519,1.6175,1.5934,1.6,1.6103,1.6127,1.6229,1.6284,1.6205,1.6151,1.6103,1.6012,1.594,1.5916,1.5916,1.5903,1.5725,1.4756,1.3132,1.1273,1.0237,0.9695,0.9154,0.8992,0.8937,0.8937,0.8992,0.9044,0.8937,0.9478,0.9966,0.9588,0.9702,1.019,1.0245,1.0241,1.057,1.057,1.1059,1.166,1.1873,1.2032,1.171,1.1383,1.1755,1.229,1.3102,1.375,1.418,1.4615,1.5488,1.6027,1.6446,1.6988,1.7483,1.7536,1.7589,1.7206,1.667,1.6021,1.5375,1.5055,1.4835,1.4781,1.4781,1.4728,1.4728,1.4728,1.5183,1.576,1.6611,1.75,1.7484,1.4397,1.4529,1.4534,1.4695,1.4852,1.487,1.4828,1.4786,1.4776,1.4663,1.4539,1.4525,1.4421,1.4222,1.4099,1.3972,1.3887,1.3769,1.3712,1.3688,1.3688,1.3688,1.3688,1.3688,1.3688,1.3688,1.3688,1.3688,1.3688,1.3868,1.4157,1.457,1.4986,1.5224,1.5461,1.6177,1.7067,1.7361,1.7467,1.7352,1.7092,1.6923,1.6706,1.6441,1.6254,1.626,1.6374,1.6416,1.6483,1.6543,1.6513,1.6423,1.6344,1.6247,1.6109,1.6036,1.6,1.5982,1.5642,1.4756,1.3511,1.2254,1.1433,1.0676,0.9864,0.9644,1.008,0.894,0.9154,0.9316,0.921,0.975,0.9915,0.9482,1.1004,1.1546,1.1164,1.1055,1.1601,1.1982,1.2526,1.2965,1.3236,1.3393,1.3334,1.3063,1.3112,1.3809,1.4835,1.5375,1.5695,1.6127,1.6617,1.71,1.7529,1.7529,1.7536,1.7536,1.7589,1.7589,1.7153,1.6564,1.6346,1.6293,1.6074,1.5802,1.5802,1.6021,1.5808,1.5482,1.615,1.7012,1.735,1.8046,1.8147,1.4303,1.4317,1.4317,1.4548,1.4809,1.4922,1.4808,1.4583,1.4633,1.452,1.4336,1.4317,1.4208,1.4043,1.3967,1.3887,1.3769,1.3707,1.3688,1.3688,1.3688,1.3688,1.3688,1.3688,1.3688,1.3688,1.3688,1.3688,1.3688,1.4157,1.451,1.5051,1.5704,1.6354,1.6478,1.7067,1.7479,1.7485,1.7485,1.7334,1.7183,1.7074,1.6881,1.6736,1.6585,1.6567,1.6664,1.6688,1.6748,1.6809,1.6754,1.6688,1.6664,1.6622,1.6477,1.6296,1.6278,1.6157,1.5886,1.4838,1.4186,1.3624,1.2743,1.1873,1.1219,1.1219,1.1114,0.9644,1.0025,0.997,0.9915,1.0025,1.008,1.046,1.1982,1.2743,1.2413,1.2516,1.3171,1.3501,1.3835,1.4218,1.4546,1.4815,1.4959,1.4846,1.4632,1.5221,1.6193,1.6617,1.6776,1.6942,1.7265,1.7371,1.7582,1.7582,1.7589,1.7589,1.7589,1.7589,1.7589,1.7265,1.7206,1.7424,1.7153,1.6664,1.7041,1.7477,1.6935,1.6502,1.745,1.8147,1.8427,1.8531,1.8551,1.3981,1.4114,1.4114,1.427,1.4506,1.452,1.4477,1.4426,1.4407,1.4303,1.4142,1.4109,1.3991,1.3854,1.3807,1.3769,1.3712,1.3688,1.3688,1.3688,1.3688,1.3688,1.3688,1.3688,1.3688,1.3688,1.3688,1.3688,1.3688,1.4396,1.4873,1.5472,1.6419,1.7073,1.7191,1.7426,1.7485,1.7485,1.7473,1.7424,1.7334,1.7189,1.7056,1.6954,1.6821,1.6815,1.6942,1.6954,1.702,1.7105,1.7056,1.696,1.6923,1.6869,1.6688,1.6567,1.6549,1.6429,1.6241,1.5662,1.5141,1.4461,1.384,1.3073,1.2146,1.2141,1.1437,1.0785,1.1219,1.1059,1.0621,1.2091,1.2476,1.22,1.3122,1.3884,1.4046,1.4535,1.5024,1.5078,1.5298,1.5244,1.541,1.5618,1.5773,1.598,1.5761,1.598,1.6789,1.7107,1.7318,1.7371,1.7529,1.7536,1.7589,1.7589,1.7589,1.7589,1.7589,1.7589,1.7589,1.7589,1.7589,1.7529,1.7529,1.7589,1.7589,1.7589,1.7589,1.7689,1.8136,1.843,1.8515,1.8575,1.8674,1.3769,1.3892,1.3896,1.3972,1.4109,1.4246,1.4279,1.4203,1.4133,1.4019,1.3915,1.3896,1.383,1.3721,1.3688,1.3688,1.3688,1.3688,1.3688,1.3688,1.3688,1.3688,1.3688,1.3688,1.3688,1.3688,1.3748,1.3748,1.4102,1.4634,1.5467,1.6301,1.7073,1.7309,1.7426,1.7485,1.7485,1.7485,1.7479,1.7479,1.7412,1.7334,1.7243,1.7189,1.7117,1.7062,1.7177,1.7255,1.7298,1.7382,1.734,1.7219,1.7159,1.7086,1.6923,1.6875,1.6718,1.6616,1.6477,1.6379,1.5814,1.5152,1.4883,1.4218,1.3452,1.3609,1.2738,1.2254,1.2526,1.2146,1.1928,1.3619,1.3781,1.3447,1.3992,1.4756,1.4756,1.5137,1.5672,1.5832,1.5891,1.5945,1.6051,1.6264,1.6418,1.663,1.6842,1.706,1.7272,1.743,1.7589,1.7589,1.7589,1.7589,1.7589,1.7589,1.7589,1.7589,1.7589,1.7589,1.7589,1.7589,1.7589,1.7589,1.7589,1.7589,1.7589,1.7589,1.7589,1.7709,1.7989,1.8243,1.8444,1.8612,1.8745,1.3748,1.3748,1.3688,1.3703,1.3764,1.4099,1.4161,1.3986,1.3792,1.3707,1.3703,1.3717,1.3707,1.3698,1.3688,1.3688,1.3688,1.3688,1.3688,1.3688,1.3688,1.3688,1.3688,1.3688,1.3688,1.3688,1.3808,1.4157,1.4629,1.5289,1.6242,1.7073,1.7367,1.7485,1.7485,1.7485,1.7485,1.7485,1.7485,1.7485,1.7455,1.7455,1.7412,1.7388,1.737,1.7364,1.7412,1.743,1.7449,1.7473,1.7461,1.7461,1.7467,1.7479,1.731,1.7123,1.6881,1.6809,1.6724,1.6712,1.6561,1.5985,1.5851,1.5254,1.4809,1.475,1.4046,1.3506,1.3452,1.3127,1.3019,1.356,1.4051,1.4369,1.4857,1.497,1.4761,1.5083,1.5672,1.5891,1.5945,1.6057,1.6271,1.6483,1.6849,1.6955,1.7113,1.7272,1.743,1.7483,1.7589,1.7589,1.7589,1.7589,1.7589,1.7589,1.7589,1.7589,1.7589,1.7589,1.7589,1.7589,1.7589,1.7589,1.7589,1.7589,1.7589,1.7589,1.7589,1.7749,1.7923,1.819,1.843,1.8675,1.8821,1.4331,1.4272,1.3863,1.3688,1.3707,1.3821,1.3835,1.3773,1.3707,1.3688,1.3688,1.3688,1.3688,1.3688,1.3688,1.3688,1.3688,1.3688,1.3688,1.3688,1.3688,1.3688,1.3688,1.3688,1.3688,1.3863,1.4097,1.4451,1.4867,1.565,1.6596,1.7367,1.7485,1.7485,1.7485,1.7485,1.7485,1.7485,1.7485,1.7485,1.7485,1.7485,1.7485,1.7485,1.7485,1.7485,1.7485,1.7485,1.7485,1.7485,1.7485,1.7485,1.7485,1.7485,1.7406,1.7394,1.728,1.7201,1.7026,1.6978,1.6863,1.6592,1.6326,1.6018,1.5696,1.547,1.5143,1.4648,1.4482,1.4315,1.4099,1.4374,1.475,1.5131,1.5506,1.5399,1.519,1.5351,1.5885,1.5998,1.6057,1.6324,1.6483,1.6802,1.7113,1.7226,1.7331,1.7483,1.7589,1.7589,1.7589,1.7589,1.7589,1.7589,1.7589,1.7589,1.7589,1.7589,1.7589,1.7589,1.7589,1.7589,1.7589,1.7589,1.7589,1.7589,1.7589,1.7589,1.7589,1.7669,1.7842,1.8136,1.845,1.8668,1.8884,1.4992,1.4932,1.4341,1.3923,1.3688,1.3688,1.3688,1.3688,1.3688,1.3688,1.3688,1.3688,1.3688,1.3688,1.3688,1.3688,1.3688,1.3688,1.3688,1.3688,1.3688,1.3688,1.3688,1.3748,1.3863,1.4097,1.4456,1.4867,1.5407,1.6236,1.7191,1.7426,1.7485,1.7485,1.7485,1.7485,1.7485,1.7485,1.7485,1.7485,1.7485,1.7485,1.7485,1.7485,1.7485,1.7485,1.7485,1.7485,1.7485,1.7485,1.7485,1.7485,1.7485,1.7485,1.7485,1.7467,1.7443,1.737,1.7274,1.7249,1.7092,1.6869,1.6604,1.6338,1.6103,1.5815,1.5499,1.5137,1.5458,1.5672,1.5512,1.5405,1.5618,1.5885,1.5885,1.5885,1.5885,1.5832,1.5998,1.6105,1.6324,1.659,1.6855,1.7173,1.7378,1.743,1.743,1.7536,1.7589,1.7589,1.7589,1.7589,1.7589,1.7589,1.7589,1.7589,1.7589,1.7589,1.7589,1.7589,1.7589,1.7589,1.7589,1.7589,1.7589,1.7589,1.7589,1.7589,1.7602,1.7675,1.7769,1.8023,1.835,1.8688,1.8823,1.5655,1.5596,1.4932,1.4396,1.3863,1.3868,1.3808,1.3748,1.3748,1.3688,1.3688,1.3688,1.3688,1.3688,1.3688,1.3688,1.3688,1.3688,1.3688,1.3688,1.3688,1.3688,1.3748,1.3803,1.4097,1.4451,1.4927,1.5585,1.6473,1.7067,1.7367,1.7485,1.7485,1.7485,1.7485,1.7485,1.7485,1.7485,1.7485,1.7485,1.7485,1.7485,1.7485,1.7485,1.7485,1.7485,1.7485,1.7485,1.7485,1.7485,1.7485,1.7485,1.7485,1.7485,1.7485,1.7485,1.7485,1.7467,1.743,1.7412,1.7322,1.7117,1.6881,1.661,1.6368,1.6024,1.5642,1.5565,1.5779,1.5832,1.5672,1.5672,1.5832,1.5885,1.5885,1.5885,1.5885,1.5945,1.6111,1.6324,1.6643,1.6908,1.7014,1.7331,1.7483,1.7529,1.7582,1.7589,1.7589,1.7589,1.7589,1.7589,1.7589,1.7589,1.7589,1.7589,1.7589,1.7589,1.7589,1.7589,1.7589,1.7589,1.7589,1.7589,1.7589,1.7589,1.7589,1.7589,1.7589,1.7602,1.7722,1.7916,1.825,1.8657,1.8928,1.6307,1.6242,1.5591,1.524,1.5061,1.4575,1.4396,1.4331,1.3863,1.3688,1.3688,1.3688,1.3688,1.3688,1.3688,1.3688,1.3688,1.3688,1.3688,1.3748,1.3748,1.3868,1.3868,1.4157,1.4451,1.4867,1.5467,1.636,1.7009,1.7361,1.7485,1.7485,1.7485,1.7485,1.7485,1.7485,1.7485,1.7485,1.7485,1.7485,1.7485,1.7485,1.7485,1.7485,1.7485,1.7485,1.7485,1.7485,1.7485,1.7485,1.7485,1.7485,1.7485,1.7485,1.7485,1.7485,1.7485,1.7485,1.7485,1.7485,1.7418,1.7334,1.7129,1.6875,1.6561,1.6139,1.5903,1.5897,1.5885,1.5885,1.5885,1.5885,1.5885,1.5885,1.5885,1.5885,1.5885,1.6051,1.6217,1.6537,1.6908,1.712,1.7279,1.7384,1.7536,1.7589,1.7589,1.7589,1.7589,1.7589,1.7589,1.7589,1.7589,1.7589,1.7589,1.7589,1.7589,1.7589,1.7589,1.7589,1.7589,1.7589,1.7589,1.7589,1.7589,1.7589,1.7589,1.7589,1.7589,1.7589,1.7662,1.7849,1.8183,1.8577,1.8911,1.695,1.6891,1.6242,1.5833,1.5537,1.517,1.4867,1.457,1.4217,1.3923,1.3748,1.3688,1.3688,1.3688,1.3688,1.3748,1.3748,1.3688,1.3923,1.4043,1.3983,1.4162,1.4396,1.4629,1.5105,1.5521,1.6354,1.7126,1.7426,1.7485,1.7485,1.7485,1.7485,1.7485,1.7485,1.7485,1.7485,1.7485,1.7485,1.7485,1.7485,1.7485,1.7485,1.7485,1.7485,1.7485,1.7485,1.7485,1.7485,1.7485,1.7485,1.7485,1.7485,1.7485,1.7485,1.7485,1.7485,1.7485,1.7485,1.7485,1.7485,1.7406,1.7249,1.6954,1.6682,1.6278,1.6006,1.5976,1.5897,1.5885,1.5885,1.5885,1.5885,1.5885,1.5885,1.5885,1.6045,1.6264,1.6371,1.6583,1.7008,1.7378,1.7483,1.7483,1.7589,1.7589,1.7589,1.7589,1.7589,1.7589,1.7589,1.7589,1.7589,1.7589,1.7589,1.7589,1.7589,1.7589,1.7589,1.7589,1.7589,1.7589,1.7589,1.7589,1.7589,1.7589,1.7589,1.7589,1.7589,1.7589,1.7669,1.7776,1.815,1.8524,1.8844,1.7382,1.7372,1.6838,1.6338,1.5833,1.5715,1.5413,1.4927,1.4753,1.4396,1.3923,1.3863,1.3808,1.3688,1.3688,1.3748,1.3868,1.3983,1.4217,1.4515,1.4282,1.4639,1.4997,1.5229,1.5763,1.6354,1.7067,1.7303,1.7485,1.7485,1.7485,1.7485,1.7485,1.7485,1.7485,1.7485,1.7485,1.7485,1.7485,1.7543,1.7543,1.7543,1.7485,1.7485,1.7485,1.7485,1.7485,1.7485,1.7485,1.7602,1.7602,1.7543,1.7485,1.7485,1.7485,1.7485,1.7485,1.7485,1.7485,1.7485,1.7485,1.7424,1.7231,1.7026,1.6767,1.6501,1.6223,1.6036,1.5964,1.5885,1.5885,1.5885,1.5885,1.5885,1.5885,1.5945,1.6158,1.6365,1.6577,1.6736,1.7107,1.7529,1.7582,1.7589,1.7589,1.7589,1.7589,1.7589,1.7589,1.7589,1.7589,1.7589,1.7589,1.7589,1.7589,1.7589,1.7589,1.7589,1.7589,1.7589,1.7589,1.7589,1.7589,1.7589,1.7589,1.7589,1.7589,1.7589,1.7589,1.7589,1.7629,1.7762,1.8217,1.8571,1.8818,1.6978,1.7171,1.705,1.6989,1.6979,1.6532,1.6236,1.6059,1.5575,1.5056,1.4475,1.4381,1.4222,1.3744,1.3688,1.3928,1.4456,1.4451,1.4813,1.5235,1.5056,1.5299,1.5655,1.6,1.6596,1.7067,1.7361,1.7426,1.7485,1.7485,1.7485,1.7485,1.7485,1.7485,1.7485,1.7485,1.7485,1.7485,1.7543,1.7608,1.7784,1.7726,1.7485,1.7485,1.7485,1.7485,1.7485,1.7485,1.7667,1.7784,1.7901,1.7784,1.7661,1.7602,1.7602,1.7602,1.7543,1.7543,1.7602,1.7543,1.7602,1.7655,1.7502,1.7359,1.7098,1.6786,1.6508,1.6235,1.612,1.5916,1.5885,1.5885,1.5885,1.5945,1.5945,1.6051,1.6217,1.653,1.6789,1.7001,1.7325,1.7536,1.7589,1.7589,1.7589,1.7589,1.7589,1.7589,1.7589,1.7589,1.7589,1.7589,1.7589,1.7589,1.7589,1.7589,1.7589,1.7589,1.7589,1.7589,1.7589,1.7589,1.7589,1.7589,1.7589,1.7589,1.7589,1.7589,1.7589,1.7589,1.7589,1.7749,1.823,1.8577,1.8804]}]]